[[{"header":{"parameterUnit":"m.s-1","parameterCategory":1,"la1":30.6,"la2":29.2853,"lo1":-89.7004,"lo2":-87.6739,"dy":0.0162,"dx":0.0183,"nx":112,"ny":82,"refTime":"2026-05-19T12:00:00:Z","depth":0,"parameterNumber":2,"parameterNumberName":"U-component_of_WINDS"},"data":[0.0,0.0,0.0,0.0,0.0,0.0,0.0,0.0,0.0,0.0,0.0,0.0,0.0,0.0,0.0,0.0,0.0,0.0,0.0,0.0,0.0,0.0,0.0,0.0,0.0,0.0,0.0,0.0,0.0,0.0,0.0,0.0,0.0,0.0,0.0,0.0,0.0,0.0,0.0,0.0,0.0,0.0,0.0,0.0,0.0,0.0,0.0,0.0,0.0,0.0,0.0,0.0,0.0,0.0,0.0,0.0,0.0,0.0,0.0,0.0,0.0,0.0,0.0,0.0,0.0,0.0,0.0,0.0,0.0,0.0,0.0,0.0,0.0,0.0,0.0,0.0,0.0,0.0,0.0,0.0,0.0,0.0,0.0,0.0,0.0,0.0,0.0,0.0,0.0,0.0,-3.4083,-3.9342,-4.3246,-4.4877,-4.3399,-4.0919,-3.8064,-3.4773,0.0,0.0,0.0,0.0,0.0,0.0,0.0,0.0,0.0,0.0,0.0,0.0,0.0,0.0,0.0,0.0,0.0,0.0,0.0,0.0,0.0,0.0,0.0,0.0,0.0,0.0,0.0,0.0,0.0,0.0,0.0,0.0,0.0,0.0,0.0,0.0,0.0,0.0,0.0,0.0,0.0,0.0,0.0,0.0,0.0,0.0,0.0,0.0,0.0,0.0,0.0,0.0,0.0,0.0,0.0,0.0,0.0,0.0,0.0,0.0,0.0,0.0,0.0,0.0,0.0,0.0,0.0,0.0,0.0,0.0,0.0,0.0,0.0,0.0,0.0,0.0,0.0,0.0,0.0,0.0,0.0,0.0,0.0,0.0,0.0,0.0,0.0,0.0,0.0,0.0,0.0,0.0,0.0,0.0,0.0,0.0,0.0,0.0,0.0,0.0,0.0,0.0,0.0,0.0,-3.6065,-4.1893,-4.3726,-4.4138,-4.3203,-4.0812,-3.8192,-3.5509,0.0,0.0,0.0,0.0,0.0,0.0,0.0,0.0,0.0,0.0,0.0,0.0,0.0,0.0,0.0,0.0,0.0,0.0,0.0,0.0,0.0,0.0,0.0,0.0,0.0,0.0,0.0,0.0,0.0,0.0,0.0,0.0,0.0,0.0,0.0,0.0,0.0,0.0,0.0,0.0,0.0,0.0,0.0,0.0,0.0,0.0,0.0,0.0,0.0,0.0,0.0,0.0,0.0,0.0,0.0,0.0,0.0,0.0,0.0,0.0,0.0,0.0,0.0,0.0,0.0,0.0,0.0,0.0,0.0,0.0,0.0,0.0,0.0,0.0,0.0,0.0,0.0,0.0,0.0,0.0,0.0,0.0,0.0,0.0,0.0,0.0,0.0,0.0,0.0,0.0,0.0,0.0,0.0,0.0,0.0,0.0,0.0,0.0,0.0,0.0,0.0,0.0,0.0,-3.4379,-3.8354,-4.2008,-4.3143,-4.3124,-4.1797,-3.9796,-3.7315,-3.4276,-2.9431,0.0,0.0,0.0,0.0,0.0,0.0,0.0,0.0,0.0,0.0,0.0,0.0,0.0,0.0,0.0,0.0,0.0,0.0,0.0,0.0,0.0,0.0,0.0,0.0,0.0,0.0,0.0,0.0,0.0,0.0,0.0,0.0,0.0,0.0,0.0,0.0,0.0,0.0,0.0,0.0,0.0,0.0,0.0,0.0,0.0,0.0,0.0,0.0,0.0,0.0,0.0,0.0,0.0,0.0,0.0,0.0,0.0,0.0,0.0,0.0,0.0,0.0,0.0,0.0,0.0,0.0,0.0,0.0,0.0,0.0,0.0,0.0,0.0,0.0,0.0,0.0,0.0,0.0,0.0,0.0,0.0,0.0,0.0,0.0,0.0,0.0,0.0,0.0,0.0,0.0,0.0,0.0,0.0,0.0,0.0,0.0,0.0,0.0,0.0,0.0,0.0,0.0,-3.7187,-3.9931,-4.1615,-4.2412,-4.2085,-4.0362,-3.8488,-3.5949,-3.2526,-2.8525,0.0,0.0,0.0,0.0,0.0,0.0,0.0,0.0,0.0,0.0,0.0,0.0,0.0,0.0,0.0,0.0,0.0,0.0,0.0,0.0,0.0,0.0,0.0,0.0,0.0,0.0,0.0,0.0,0.0,0.0,0.0,0.0,0.0,0.0,0.0,0.0,0.0,0.0,0.0,0.0,0.0,0.0,0.0,0.0,0.0,0.0,0.0,0.0,0.0,0.0,0.0,0.0,0.0,0.0,0.0,0.0,0.0,0.0,0.0,0.0,0.0,0.0,0.0,0.0,0.0,0.0,0.0,0.0,0.0,0.0,0.0,0.0,0.0,0.0,0.0,0.0,0.0,0.0,0.0,0.0,0.0,0.0,0.0,0.0,0.0,0.0,0.0,0.0,0.0,0.0,0.0,0.0,0.0,0.0,0.0,0.0,0.0,0.0,0.0,0.0,0.0,0.0,-3.7187,-3.9931,-4.1615,-4.1846,-4.1219,-3.9534,-3.7103,-3.4212,-3.0788,-2.7308,0.0,0.0,0.0,0.0,0.0,0.0,0.0,0.0,0.0,0.0,0.0,0.0,0.0,0.0,0.0,0.0,0.0,0.0,0.0,0.0,0.0,0.0,0.0,0.0,0.0,0.0,0.0,0.0,0.0,0.0,0.0,0.0,0.0,0.0,0.0,0.0,0.0,0.0,0.0,0.0,0.0,0.0,0.0,0.0,0.0,0.0,0.0,0.0,0.0,0.0,0.0,0.0,0.0,0.0,0.0,0.0,0.0,0.0,0.0,0.0,0.0,0.0,0.0,0.0,0.0,0.0,0.0,0.0,0.0,0.0,0.0,0.0,0.0,0.0,0.0,0.0,0.0,0.0,0.0,0.0,0.0,0.0,0.0,0.0,0.0,0.0,0.0,0.0,0.0,0.0,0.0,0.0,0.0,0.0,0.0,0.0,0.0,0.0,0.0,0.0,0.0,0.0,-3.6213,-3.8742,0.0,-4.0496,-3.9921,-3.7734,-3.5714,-3.2886,-2.8956,0.0,0.0,0.0,0.0,0.0,0.0,0.0,0.0,0.0,0.0,0.0,0.0,0.0,0.0,0.0,0.0,0.0,0.0,0.0,0.0,0.0,0.0,0.0,0.0,0.0,0.0,0.0,0.0,0.0,0.0,0.0,0.0,0.0,0.0,0.0,0.0,0.0,0.0,0.0,0.0,0.0,0.0,0.0,0.0,0.0,0.0,0.0,0.0,0.0,0.0,0.0,0.0,0.0,0.0,0.0,0.0,0.0,0.0,0.0,0.0,0.0,0.0,0.0,0.0,0.0,0.0,0.0,0.0,0.0,0.0,0.0,0.0,0.0,0.0,0.0,0.0,0.0,0.0,0.0,0.0,0.0,0.0,0.0,0.0,0.0,0.0,0.0,0.0,0.0,0.0,0.0,0.0,0.0,0.0,0.0,0.0,0.0,0.0,0.0,0.0,0.0,0.0,-3.1767,-3.5281,-3.7757,0.0,-3.9147,-3.8623,-3.6138,-3.4387,-3.1756,-2.7827,0.0,0.0,0.0,0.0,0.0,0.0,0.0,0.0,0.0,0.0,0.0,0.0,0.0,0.0,0.0,0.0,0.0,0.0,0.0,0.0,0.0,0.0,0.0,0.0,0.0,0.0,0.0,0.0,0.0,0.0,0.0,0.0,0.0,0.0,0.0,0.0,0.0,0.0,0.0,0.0,0.0,0.0,0.0,0.0,0.0,0.0,0.0,0.0,0.0,0.0,0.0,0.0,0.0,0.0,0.0,0.0,0.0,0.0,0.0,0.0,0.0,0.0,0.0,0.0,0.0,0.0,0.0,0.0,0.0,0.0,0.0,0.0,0.0,0.0,0.0,0.0,0.0,0.0,0.0,0.0,0.0,0.0,0.0,0.0,0.0,0.0,0.0,0.0,0.0,0.0,0.0,0.0,0.0,0.0,0.0,0.0,0.0,0.0,0.0,0.0,0.0,0.0,-3.0656,-3.4553,-3.7093,-3.7162,-3.7896,-3.7384,-3.4902,-3.3166,-3.0788,0.0,0.0,0.0,0.0,0.0,0.0,0.0,0.0,0.0,0.0,0.0,0.0,0.0,0.0,0.0,0.0,0.0,0.0,0.0,0.0,0.0,0.0,0.0,0.0,0.0,0.0,0.0,0.0,0.0,0.0,0.0,0.0,0.0,0.0,0.0,0.0,0.0,0.0,0.0,0.0,0.0,0.0,0.0,0.0,0.0,0.0,0.0,0.0,0.0,0.0,0.0,0.0,0.0,0.0,0.0,0.0,0.0,0.0,0.0,0.0,0.0,0.0,0.0,0.0,0.0,0.0,0.0,0.0,0.0,0.0,0.0,0.0,0.0,0.0,0.0,0.0,0.0,0.0,0.0,0.0,0.0,0.0,0.0,0.0,0.0,0.0,0.0,0.0,0.0,0.0,0.0,0.0,0.0,0.0,0.0,0.0,0.0,0.0,0.0,0.0,0.0,0.0,0.0,-2.9542,-3.302,-3.5421,-3.6013,-3.6839,-3.6351,-3.3853,-3.2643,-3.0133,-2.5734,0.0,0.0,0.0,0.0,0.0,0.0,0.0,0.0,0.0,0.0,0.0,0.0,0.0,0.0,0.0,0.0,0.0,0.0,0.0,0.0,0.0,0.0,0.0,0.0,0.0,0.0,0.0,0.0,0.0,0.0,0.0,0.0,0.0,0.0,0.0,0.0,0.0,0.0,0.0,0.0,0.0,0.0,0.0,0.0,0.0,0.0,0.0,0.0,0.0,0.0,0.0,0.0,0.0,0.0,0.0,0.0,0.0,0.0,0.0,0.0,0.0,0.0,0.0,0.0,0.0,0.0,0.0,0.0,0.0,0.0,0.0,0.0,0.0,0.0,0.0,0.0,0.0,0.0,0.0,0.0,0.0,0.0,0.0,0.0,0.0,0.0,0.0,0.0,0.0,0.0,0.0,0.0,0.0,0.0,0.0,0.0,0.0,0.0,0.0,0.0,0.0,0.0,-2.8872,-3.215,-3.4352,-3.4835,-3.5336,-3.494,-3.3103,-3.1897,-2.958,-2.5734,0.0,0.0,0.0,0.0,0.0,0.0,0.0,0.0,0.0,0.0,0.0,0.0,0.0,0.0,0.0,0.0,0.0,0.0,0.0,0.0,0.0,0.0,0.0,0.0,0.0,0.0,0.0,0.0,0.0,0.0,0.0,0.0,0.0,0.0,0.0,0.0,0.0,0.0,0.0,0.0,0.0,0.0,0.0,0.0,0.0,0.0,0.0,0.0,0.0,0.0,0.0,0.0,0.0,0.0,0.0,0.0,0.0,0.0,0.0,0.0,0.0,0.0,0.0,0.0,0.0,0.0,0.0,0.0,0.0,0.0,0.0,0.0,0.0,0.0,0.0,0.0,0.0,0.0,0.0,0.0,0.0,0.0,0.0,0.0,0.0,0.0,0.0,0.0,0.0,0.0,0.0,0.0,0.0,0.0,0.0,0.0,0.0,0.0,0.0,0.0,0.0,0.0,-2.8455,-3.1568,-3.3495,-3.3568,-3.3587,-3.3256,-3.2454,-3.1035,-2.9161,-2.6727,0.0,0.0,0.0,0.0,0.0,0.0,0.0,0.0,0.0,0.0,0.0,0.0,0.0,0.0,0.0,0.0,0.0,0.0,0.0,0.0,0.0,0.0,0.0,0.0,0.0,0.0,0.0,0.0,0.0,0.0,0.0,0.0,0.0,0.0,0.0,0.0,0.0,0.0,0.0,0.0,0.0,0.0,0.0,0.0,0.0,0.0,0.0,0.0,0.0,0.0,0.0,0.0,0.0,0.0,0.0,0.0,0.0,0.0,0.0,0.0,-2.3544,0.0,0.0,0.0,0.0,0.0,0.0,0.0,0.0,0.0,0.0,0.0,0.0,0.0,0.0,0.0,0.0,0.0,0.0,0.0,0.0,0.0,0.0,0.0,0.0,0.0,0.0,0.0,0.0,0.0,0.0,0.0,0.0,0.0,0.0,0.0,0.0,0.0,0.0,0.0,0.0,0.0,-2.7548,-2.9751,-3.1219,-3.1843,-3.1911,-3.1586,-3.0779,-3.0393,-2.89,-2.5866,-2.3879,0.0,0.0,0.0,0.0,0.0,0.0,0.0,0.0,0.0,0.0,0.0,0.0,0.0,0.0,0.0,0.0,0.0,0.0,0.0,0.0,0.0,0.0,0.0,0.0,0.0,0.0,0.0,0.0,0.0,0.0,0.0,0.0,0.0,0.0,0.0,0.0,0.0,0.0,0.0,0.0,0.0,0.0,0.0,0.0,0.0,0.0,0.0,0.0,0.0,0.0,0.0,0.0,0.0,0.0,0.0,0.0,0.0,0.0,0.0,0.0,-2.4808,0.0,0.0,0.0,0.0,0.0,0.0,0.0,0.0,0.0,0.0,0.0,0.0,0.0,0.0,0.0,0.0,0.0,0.0,0.0,0.0,0.0,0.0,0.0,0.0,0.0,0.0,0.0,0.0,0.0,0.0,0.0,0.0,0.0,0.0,0.0,0.0,0.0,0.0,0.0,0.0,-2.7328,-2.92,-3.0503,-3.1323,-3.1048,-3.065,-3.0246,-2.9861,-2.8411,-2.5578,-2.4284,0.0,0.0,0.0,0.0,0.0,0.0,0.0,0.0,0.0,0.0,0.0,0.0,0.0,0.0,0.0,0.0,0.0,0.0,0.0,0.0,0.0,0.0,0.0,0.0,0.0,0.0,0.0,0.0,0.0,0.0,0.0,0.0,0.0,0.0,0.0,0.0,0.0,0.0,0.0,0.0,0.0,0.0,0.0,0.0,0.0,0.0,0.0,0.0,0.0,0.0,0.0,0.0,0.0,-3.0934,-3.1393,-3.1952,-3.1833,-3.1765,-3.163,-2.9008,-2.7673,-2.7284,-2.6109,0.0,0.0,0.0,0.0,0.0,0.0,0.0,0.0,0.0,0.0,0.0,0.0,0.0,0.0,0.0,0.0,0.0,0.0,0.0,0.0,0.0,0.0,0.0,0.0,-2.6676,-2.6152,-2.4259,0.0,0.0,0.0,0.0,0.0,0.0,0.0,0.0,0.0,0.0,0.0,-2.7189,-2.8987,-3.0246,-3.0907,-3.0393,-2.9922,-2.9776,-2.9129,-2.779,-2.5499,-2.4591,-2.3143,0.0,0.0,0.0,0.0,0.0,0.0,0.0,0.0,0.0,0.0,0.0,0.0,0.0,0.0,0.0,0.0,0.0,0.0,0.0,0.0,0.0,0.0,0.0,0.0,0.0,0.0,0.0,0.0,0.0,0.0,0.0,0.0,-2.2215,-2.3144,0.0,0.0,0.0,0.0,0.0,0.0,0.0,0.0,0.0,0.0,0.0,0.0,0.0,-3.0006,-3.0734,-3.2019,-3.2743,-3.2983,-3.4247,-3.4923,-3.4991,-3.4353,-3.4049,-3.3998,-3.2966,0.0,-2.9634,-2.9467,0.0,0.0,0.0,0.0,0.0,0.0,0.0,0.0,0.0,0.0,0.0,0.0,0.0,0.0,0.0,0.0,0.0,0.0,0.0,0.0,0.0,0.0,-2.8761,-2.8659,-2.8642,-2.837,0.0,-2.5846,-2.4272,-2.2975,-2.2136,0.0,0.0,0.0,0.0,0.0,0.0,0.0,-2.6336,-2.8139,-2.9207,-2.9317,-2.9225,-2.8847,-2.8098,-2.7887,-2.7027,-2.5237,-2.4322,-2.3383,-2.2366,-2.088,0.0,0.0,0.0,0.0,0.0,0.0,0.0,0.0,0.0,0.0,0.0,0.0,0.0,0.0,0.0,0.0,0.0,0.0,0.0,0.0,0.0,0.0,0.0,0.0,0.0,0.0,0.0,0.0,0.0,-2.1898,-2.3894,-2.5224,-2.6198,-2.6566,0.0,0.0,0.0,0.0,0.0,0.0,0.0,0.0,0.0,-3.1427,-3.2188,-3.3136,-3.4341,-3.4979,-3.552,-3.5943,-3.6563,-3.6884,-3.6867,-3.6569,-3.6417,-3.6366,-3.5622,-3.4506,-3.3081,-3.185,-3.0683,-2.9567,0.0,0.0,0.0,0.0,-2.7977,-2.867,-2.9076,-2.9228,-2.911,-2.8383,0.0,0.0,0.0,0.0,0.0,0.0,0.0,0.0,0.0,0.0,-3.0144,-2.9719,-2.9617,-2.9279,-2.806,-2.7165,-2.6216,0.0,-2.4095,-2.3127,-2.1405,0.0,0.0,0.0,0.0,-2.4566,-2.6173,-2.7508,-2.8338,-2.8338,-2.7923,-2.7468,-2.7017,-2.685,-2.6227,-2.4944,-2.4405,-2.3573,-2.2314,-2.16,-2.042,0.0,0.0,0.0,0.0,0.0,0.0,0.0,0.0,0.0,0.0,0.0,0.0,0.0,0.0,0.0,0.0,0.0,0.0,0.0,0.0,0.0,0.0,0.0,0.0,0.0,0.0,0.0,0.0,-2.4069,-2.5889,-2.751,-2.8424,-2.878,0.0,0.0,0.0,0.0,0.0,0.0,-3.1157,-3.1935,-3.2916,-3.4235,-3.4793,-3.5746,-3.7083,-3.7269,-3.7635,-3.8176,-3.8379,-3.8464,-3.8464,-3.8278,-3.8176,-3.8125,-3.7218,-3.6451,-3.5757,-3.3694,-3.2425,-3.163,-3.0347,-2.9958,-3.011,-2.9907,-3.0294,-3.1021,-3.1579,-3.1765,-3.1664,-3.1123,-3.0192,-2.8873,-2.681,0.0,0.0,0.0,0.0,-2.8398,-2.9734,-3.0514,-3.0835,-3.048,-3.0378,-3.0023,-2.8669,-2.8229,-2.7639,0.0,-2.5446,-2.4718,-2.3336,0.0,0.0,0.0,0.0,-2.5433,-2.6373,-2.7194,-2.7709,-2.7709,-2.6995,-2.6374,-2.6016,-2.582,-2.5308,-2.4355,-2.4121,-2.3481,-2.2289,-2.2025,-2.1105,-1.9342,0.0,0.0,0.0,0.0,0.0,0.0,0.0,0.0,0.0,0.0,0.0,0.0,0.0,0.0,0.0,0.0,0.0,0.0,0.0,0.0,0.0,0.0,0.0,0.0,0.0,0.0,0.0,0.0,0.0,-3.0516,-3.1345,0.0,0.0,0.0,0.0,-3.1816,-3.2647,-3.3457,-3.4235,-3.4996,-3.5774,-3.6609,-3.666,-3.7043,-3.7838,-3.8531,-3.8903,-3.8937,-3.9656,-3.9994,-3.9977,-3.9242,-3.8937,-3.8853,-3.7422,-3.6778,-3.6626,-3.5052,-3.3947,-3.322,-3.2446,-3.2544,-3.3102,-3.2395,-3.2594,-3.3254,-3.3288,-3.3288,-3.3288,-3.3254,-3.1799,-2.9734,-2.8179,-2.7638,0.0,0.0,-2.8332,-2.9128,-2.9905,-3.0123,-3.0328,-3.0987,-3.114,-3.092,-3.014,-2.9431,-2.83,0.0,-2.578,-2.5373,-2.3904,0.0,-2.3867,-2.4077,-2.4991,-2.6007,-2.6939,-2.7278,-2.7429,-2.7429,-2.6758,-2.5939,-2.4967,-2.4748,-2.4253,-2.3232,-2.306,-2.2949,-2.2849,-2.2118,-2.1666,-2.1532,-1.9337,0.0,0.0,0.0,0.0,0.0,0.0,0.0,0.0,0.0,0.0,0.0,0.0,0.0,0.0,0.0,0.0,0.0,0.0,0.0,0.0,0.0,0.0,0.0,0.0,0.0,0.0,0.0,0.0,-3.286,-3.3435,0.0,-3.3746,-3.3404,-3.3796,-3.5275,-3.5946,-3.6823,-3.8048,-3.8802,-3.9343,-3.9614,-3.9631,-3.9749,-4.002,-3.98,-3.9723,-3.9723,-3.9977,-4.0096,-4.0096,-3.9842,-3.9723,-3.9639,-3.8142,-3.7499,-3.7381,-3.5842,-3.4776,-3.4083,-3.3833,-3.3592,-3.344,-3.3626,-3.3863,-3.4184,-3.4658,-3.4822,-3.4737,-3.4252,-3.2611,-3.0717,-3.0159,-2.933,-2.867,-2.9161,-2.9499,-2.9871,-3.0615,-3.0818,-3.0869,-3.114,-3.119,-3.0869,-2.9634,-2.9196,-2.8468,-2.6691,-2.6385,-2.6111,-2.5091,-2.4967,-2.4887,-2.4571,-2.5365,-2.6167,-2.6605,-2.6361,-2.6183,-2.6183,-2.5052,-2.4147,-2.3744,-2.3503,-2.3209,-2.2808,-2.2168,-2.2015,-2.248,-2.1776,-2.1383,-2.1383,-2.0567,-1.9638,0.0,0.0,0.0,0.0,0.0,0.0,0.0,0.0,0.0,0.0,0.0,0.0,0.0,0.0,0.0,0.0,0.0,0.0,0.0,0.0,0.0,0.0,0.0,0.0,0.0,-3.0898,-3.325,-3.5558,-3.5845,-3.6082,-3.6642,-3.628,-3.6678,-3.8294,-3.8782,-3.9546,-4.079,-4.1305,-4.1576,-4.1576,-4.1339,-4.1204,-4.1204,-4.0485,-4.0096,-4.0096,-4.0096,-4.0096,-4.0096,-4.0096,-4.0096,-4.0028,-3.8531,-3.7905,-3.7787,-3.6225,-3.5295,-3.4878,-3.4878,-3.4573,-3.4218,-3.4692,-3.4878,-3.4945,-3.543,-3.56,-3.5481,-3.4742,-3.3508,-3.2273,-3.2019,-3.1258,-3.0531,-3.0768,-3.0835,-3.0903,-3.114,-3.119,-3.119,-3.119,-3.119,-3.0852,-2.9653,-2.9179,-2.862,-2.7317,-2.686,-2.6539,-2.6065,-2.5981,-2.5844,-2.5496,-2.6054,-2.6545,-2.6666,-2.5943,-2.5412,-2.5412,-2.4008,-2.3061,-2.2973,-2.2773,-2.2634,-2.2542,-2.1677,-2.1529,-2.2262,-2.1583,-2.1309,-2.158,-2.1059,-2.0044,-1.8521,0.0,0.0,0.0,0.0,0.0,0.0,0.0,0.0,0.0,0.0,0.0,0.0,0.0,0.0,0.0,0.0,0.0,0.0,0.0,0.0,0.0,0.0,0.0,-3.0647,-3.3068,-3.5728,-3.8461,-3.8572,-3.8796,-3.9825,-3.9391,-3.9566,-4.0772,-4.1115,-4.1593,-4.232,-4.2354,-4.2354,-4.2337,-4.1627,-4.1221,-4.1204,-4.0485,-4.0096,-4.0096,-4.0096,-4.0096,-4.0096,-4.0096,-4.0096,-4.0028,-3.8531,-3.7905,-3.7787,-3.6225,-3.5616,-3.5633,-3.5633,-3.5616,-3.56,-3.5616,-3.5616,-3.56,-3.56,-3.56,-3.5481,-3.4776,-3.4506,-3.437,-3.366,-3.3423,-3.3254,-3.2513,-3.2293,-3.2141,-3.1396,-3.119,-3.119,-3.119,-3.119,-3.0987,-3.0243,-2.9499,-2.8773,-2.7925,-2.7199,-2.6691,-2.6691,-2.6691,-2.6742,-2.6859,-2.7006,0.0,-2.7131,-2.6004,-2.5181,-2.5147,-2.3793,-2.2829,-2.2699,-2.2619,-2.2542,-2.2422,-2.1624,-2.1498,-2.2262,-2.1566,-2.1512,-2.2245,-2.0758,-1.927,-1.7834,0.0,0.0,0.0,0.0,0.0,0.0,0.0,0.0,0.0,0.0,0.0,0.0,0.0,0.0,0.0,0.0,0.0,0.0,0.0,0.0,0.0,-2.9104,-3.1086,-3.1835,-3.482,-3.7439,-3.8777,-3.9818,-4.0508,-4.0807,-4.0699,-4.1066,-4.2183,-4.2593,-4.3149,-4.3938,-4.3972,-4.369,-4.3132,-4.2388,-4.1728,-4.1221,-4.0485,-4.0096,-4.0096,-4.0096,-4.0096,-4.0096,-4.0096,-4.0096,-4.0028,-3.8531,-3.7905,-3.7787,-3.6225,-3.5943,-3.6468,-3.6468,-3.6113,-3.5667,-3.6248,-3.6096,-3.56,-3.56,-3.56,-3.5566,-3.5346,-3.4945,-3.4455,-3.4252,-3.3829,-3.3254,-3.2513,-3.2293,-3.2141,-3.1396,-3.119,-3.119,-3.119,-3.119,-3.0852,-2.9585,-2.9145,-2.8604,-2.7266,-2.6843,-2.6691,-2.6691,-2.6691,-2.6708,-2.6742,-2.6792,0.0,-2.6111,-2.5255,-2.4484,-2.3955,-2.3036,-2.2446,-2.2405,-2.2391,-2.2366,-2.2338,-2.1075,-2.0927,-2.2245,-2.1028,-2.0703,-2.1495,-1.9993,-1.8995,0.0,0.0,0.0,0.0,0.0,0.0,0.0,0.0,0.0,0.0,0.0,0.0,0.0,0.0,0.0,0.0,0.0,0.0,0.0,0.0,0.0,0.0,-3.1347,-3.3341,-3.4462,-3.6777,-3.8787,-3.9979,-4.1132,-4.1984,-4.2373,-4.2332,-4.2601,-4.3366,-4.3726,-4.4096,-4.4581,-4.4615,-4.4395,-4.3927,-4.2861,-4.2083,-4.166,-4.0637,-4.0096,-4.0096,-4.0096,-4.0096,-4.0096,-4.0096,-4.0096,-4.0045,-3.887,-3.8362,-3.8278,-3.7077,-3.684,0.0,0.0,0.0,0.0,0.0,-3.6282,-3.56,-3.56,-3.56,-3.56,-3.56,-3.5295,-3.4962,-3.4962,-3.4675,-3.4184,-3.3423,-3.3004,-3.2598,-3.1853,-3.1427,-3.119,-3.119,-3.0954,-3.0412,-2.9247,-2.8756,-2.8129,-2.6928,-2.6691,0.0,-2.6691,-2.6691,-2.6691,-2.6691,-2.6691,-2.6539,-2.6116,-2.5151,-2.4338,-2.3915,-2.2919,-2.2296,-2.2296,-2.2296,0.0,0.0,0.0,-2.0906,-2.1803,-2.1282,0.0,0.0,0.0,0.0,0.0,0.0,0.0,0.0,-1.8165,-1.8807,0.0,0.0,0.0,0.0,0.0,0.0,0.0,0.0,0.0,0.0,0.0,0.0,0.0,0.0,0.0,0.0,-3.3362,-3.5665,-3.7629,-3.8828,-4.0089,-4.1649,-4.2472,-4.323,-4.4059,-4.3993,-4.4006,-4.431,-4.4497,-4.4615,-4.4615,0.0,0.0,0.0,0.0,-4.2252,-4.2168,-4.0807,-4.0096,-4.0096,-4.0096,-4.0096,-4.0096,-4.0096,-4.0096,-4.0062,-3.9334,-3.8988,-3.8937,-3.821,-3.7956,-3.7956,-3.7195,-3.7364,-3.7922,-3.7117,-3.6349,-3.5718,-3.5633,0.0,0.0,-3.56,-3.56,-3.56,-3.56,-3.56,-3.5447,-3.4709,-3.3964,-3.3237,-3.2496,-3.1752,-3.119,-3.119,-3.07,-3.0006,-2.9179,-2.8433,-2.7689,-2.686,-2.6691,-2.6691,-2.6691,-2.6691,-2.6691,-2.6691,-2.6691,-2.6657,-2.659,-2.5354,-2.4457,-2.4372,0.0,0.0,-2.2296,-2.2296,-2.2296,-2.2296,-2.1684,-2.1292,-2.119,-2.1837,-2.2192,-2.2192,-2.1431,-2.1106,-2.119,-2.0471,-2.0183,-2.0238,-1.9502,-1.9938,0.0,0.0,0.0,0.0,0.0,0.0,0.0,0.0,0.0,0.0,0.0,0.0,0.0,0.0,0.0,-3.2529,-3.5074,-3.7334,-3.8866,-4.0811,-4.2216,-4.2555,-4.3569,-4.4288,-4.4468,-4.4485,-4.4485,-4.4542,-4.457,-4.4615,-4.4615,-4.4615,-4.4282,-4.3656,-4.2777,-4.1999,-4.1424,-4.0553,-4.0096,-4.0096,0.0,0.0,-4.0096,-4.0096,-4.0096,-4.0062,-3.9334,-3.8988,-3.8937,-3.821,-3.8261,-3.87,-3.7973,-3.8142,-3.8616,-3.7303,-3.6711,-3.6468,-3.5842,-3.56,-3.56,-3.56,-3.56,-3.56,-3.56,-3.56,0.0,-3.4709,-3.3964,-3.3237,-3.2496,-3.1752,-3.119,-3.119,-3.1089,-3.0615,-2.9297,-2.8891,-2.8367,-2.6979,-2.6691,-2.6691,-2.6691,-2.6691,-2.6691,-2.6691,-2.6691,-2.6488,-2.5896,-2.5033,-2.4271,-2.3678,-2.2835,-2.2296,-2.2296,-2.2296,-2.2296,-2.2296,-2.2175,-2.182,-2.1224,-2.1343,-2.141,-2.141,-2.0653,-2.0538,-2.119,-2.1038,-2.1262,-2.184,-2.1092,-2.1241,0.0,0.0,0.0,0.0,0.0,0.0,0.0,0.0,0.0,0.0,0.0,-2.741,-2.8368,0.0,-3.2644,-3.4573,-3.6695,-3.8718,-4.0447,-4.2107,-4.3088,-4.3015,-4.3957,-4.4615,-4.4615,-4.4615,-4.4615,-4.4615,-4.4615,-4.4615,-4.4615,-4.4615,-4.4429,-4.4012,-4.2878,-4.2117,-4.1745,-4.0646,-4.0096,-4.0096,-4.0096,-4.0096,-4.0096,-4.0096,-4.0096,-4.0079,-3.9723,-3.9554,-3.9537,-3.914,-3.9208,-3.952,-3.914,-3.8988,-3.8903,-3.8159,-3.7438,-3.6745,-3.6332,-3.5943,-3.56,-3.56,-3.56,-3.56,-3.56,-3.56,-3.5515,-3.5143,-3.4252,-3.3322,-3.2949,-3.2019,-3.119,-3.119,-3.092,-3.0446,-2.9702,-2.8941,-2.818,-2.7402,-2.6945,-2.6691,-2.6691,-2.6691,-2.6691,-2.6691,-2.6691,-2.6573,-2.6201,-2.5185,-2.4355,-2.4,-2.297,-2.2296,-2.2296,-2.2296,-2.2296,-2.2296,-2.2296,-2.2141,-2.1769,-2.1752,-2.1752,-2.1752,-2.135,-2.135,-2.1752,-2.1752,-2.2124,-2.2835,-2.2462,-2.2496,0.0,0.0,0.0,0.0,0.0,0.0,0.0,-2.4036,-2.4747,-2.6108,-2.7859,-2.952,-3.0715,-3.2511,-3.4439,-3.6338,-3.8079,-3.989,-4.1816,-4.2841,-4.3415,-4.3485,-4.4142,-4.4615,-4.4615,-4.4615,-4.4615,-4.4615,-4.4615,-4.4615,-4.4615,-4.4615,-4.4615,-4.4615,-4.3108,-4.2286,-4.2286,-4.084,-4.0096,-4.0096,-4.0096,-4.0096,-4.0096,-4.0096,-4.0096,-4.0096,-4.0096,-4.0096,-4.0096,-4.0096,-4.0028,-3.9893,-3.9893,-3.9453,-3.8785,-3.8785,-3.8024,-3.6981,-3.6677,-3.6146,-3.56,-3.56,-3.56,-3.56,-3.56,-3.56,-3.56,-3.56,-3.4535,-3.3406,-3.3406,-3.2307,-3.119,-3.119,-3.0751,-3.0258,-3.0123,-2.9007,-2.7993,-2.7841,-2.7199,-2.6691,-2.6691,-2.6691,-2.6691,-2.6691,-2.6691,-2.664,-2.6488,-2.532,-2.444,-2.4305,-2.3088,-2.2296,-2.2296,-2.2296,-2.2296,-2.2296,-2.2296,-2.2296,-2.2296,-2.2296,-2.2296,-2.2296,-2.2296,-2.2296,-2.2296,-2.2431,-2.2818,-2.341,-2.368,-2.3833,-2.1953,-2.2866,-2.4321,-2.5016,-2.5659,-2.6327,0.0,-2.7106,-2.7525,-2.8888,-3.0238,-3.1463,-3.2388,-3.3804,-3.534,-3.6948,-3.8958,-4.0828,-4.2237,-4.2998,-4.3646,-4.4367,-4.4536,-4.4615,-4.4615,-4.4615,-4.4615,-4.4615,-4.4615,-4.4615,-4.4615,-4.4615,-4.4615,-4.4615,-4.3108,-4.2286,-4.2286,-4.084,-4.0096,-4.0096,-4.0096,-4.0096,-4.0096,-4.0096,-4.0096,-4.0096,-4.0096,-4.0096,-4.0096,-4.0096,-3.9723,-3.9106,-3.9106,-3.8667,-3.8024,-3.8024,-3.7922,-3.7584,-3.6208,-3.5667,-3.56,-3.56,-3.56,-3.56,-3.56,-3.56,-3.56,-3.56,-3.4535,-3.3406,-3.3406,-3.2307,-3.119,-3.119,-3.114,-3.0903,-3.0243,-2.9448,-2.8653,-2.7942,-2.7199,-2.6691,-2.6691,-2.6691,-2.6691,-2.6691,-2.6691,-2.6454,-2.5812,-2.5015,-2.4254,-2.3579,-2.2801,-2.2296,-2.2296,-2.2296,-2.2296,-2.2296,-2.2296,-2.2296,-2.2296,-2.2296,-2.2296,-2.2296,-2.2296,-2.2296,-2.2296,-2.297,-2.3325,-2.3427,-2.4746,-2.5355,-2.4553,-2.5349,-2.6497,-2.7186,-2.8113,-2.8936,-2.9205,-2.9594,-3.0148,-3.1091,-3.2332,-3.3426,-3.3985,-3.5095,-3.6553,-3.8459,-3.9984,-4.1321,-4.2456,-4.3071,-4.3386,-4.3267,-4.3278,-4.3616,-4.4513,-4.4615,-4.4615,-4.4615,-4.4615,-4.4615,-4.4615,-4.4615,-4.4615,-4.4615,-4.3521,-4.2726,-4.2286,-4.1255,-4.051,-4.0096,-4.0096,-4.0096,-4.0096,-4.0096,-4.0096,-4.0096,-4.0096,-4.0096,-4.0096,-4.0096,-3.9673,-3.8988,-3.8988,-3.8548,-3.7905,-3.7905,-3.7635,-3.7161,-3.6518,-3.5994,-3.56,-3.56,-3.56,-3.56,-3.56,-3.56,-3.56,-3.56,-3.4535,-3.3406,-3.3406,-3.2307,-3.119,-3.119,-3.119,-3.1106,-3.0818,-2.982,-2.8908,-2.8552,-2.752,-2.6691,-2.6691,-2.6691,-2.6691,-2.6691,-2.6691,-2.642,-2.5693,-2.4965,-2.4051,-2.2885,-2.2482,-2.2296,-2.2296,-2.2296,-2.2296,-2.2296,-2.2296,-2.2296,-2.2296,-2.2296,-2.2296,-2.2296,-2.2296,-2.2499,-2.2936,-2.3241,-2.3833,-2.4712,-2.5321,-2.5845,-2.6302,-2.7183,-2.8263,-2.8865,-2.9997,-3.0904,-3.0904,-3.1414,-3.2045,-3.2541,-3.3577,-3.4512,-3.5034,-3.586,-3.7166,-3.9331,-4.0625,-4.1697,-4.2717,-4.2986,-4.298,-4.2642,-4.2236,-4.2591,-4.4113,-4.4107,-4.4056,-4.4231,-4.4265,-4.4378,-4.4598,-4.4615,-4.4615,-4.4615,-4.3826,-4.3064,-4.2303,-4.1576,-4.0832,-4.0096,-4.0096,-4.0096,-4.0096,-4.0096,-4.0096,-4.0096,-4.0096,-4.0096,-4.0096,-4.0096,-3.9554,-3.87,-3.87,-3.8108,-3.728,-3.728,-3.7077,-3.6778,-3.6558,-3.6096,-3.56,-3.56,-3.56,-3.56,-3.56,-3.56,-3.56,-3.56,-3.4535,-3.3406,-3.3406,-3.2307,-3.119,-3.119,-3.119,-3.119,-3.119,-3.0192,-2.9247,-2.9044,-2.7909,-2.6945,-2.6725,-2.6691,-2.6691,-2.6691,-2.6691,-2.642,-2.5693,-2.478,-2.3712,-2.2446,-2.2296,-2.2296,-2.2296,-2.2296,-2.2296,-2.2296,-2.2296,-2.2296,-2.2296,-2.2296,-2.2296,-2.2296,-2.2499,-2.2868,-2.3393,-2.3799,-2.456,-2.5592,-2.5812,-2.6184,-2.6665,-2.8015,-2.9479,-3.0016,-3.1073,-3.1951,-3.1951,-3.248,-3.2951,-3.2983,-3.353,-3.4303,-3.5292,-3.5833,-3.6827,-3.9037,-4.0675,-4.2044,-4.3032,-4.2686,-4.2591,-4.3274,-4.2117,-4.1813,-4.3274,-4.2794,-4.2675,-4.3375,-4.3426,-4.3792,-4.4564,-4.4615,-4.4615,-4.4615,-4.3826,-4.3064,-4.2303,-4.1576,-4.0832,-4.0096,-4.0096,-4.0096,-4.0096,-4.0096,-4.0096,-4.0096,-4.0096,-4.0096,-4.0096,-4.0096,-3.9225,-3.7939,-3.7939,-3.7026,-3.5667,-3.5667,-3.6146,-3.6694,-3.591,-3.5616,-3.56,-3.56,-3.56,-3.56,-3.56,-3.56,-3.56,-3.56,-3.4535,-3.3406,-3.3406,-3.2307,-3.119,-3.119,-3.119,-3.119,-3.119,-3.0598,-2.9854,-2.9145,-2.8332,-2.7536,-2.6826,-2.6691,-2.6691,-2.6691,-2.6691,-2.642,-2.5693,-2.4323,-2.3139,-2.2381,-2.2296,-2.2296,-2.2296,-2.2296,-2.2296,-2.2296,-2.2296,-2.2296,-2.2296,-2.2296,-2.2296,-2.2296,-2.3004,-2.3376,-2.3393,-2.4847,-2.5558,-2.5625,-2.6336,-2.6674,-2.8532,-2.9879,-3.0963,-3.1422,-3.1973,-3.2521,-3.2954,-3.32,-3.3462,-3.3969,-3.3862,-3.3979,-3.5054,-3.5212,-3.6037,-3.8644,-4.0352,-4.1661,-4.2493,-4.2851,-4.2946,-4.2692,-4.1796,-4.1593,-4.2574,-4.2895,-4.3352,-4.413,-4.4198,-4.4299,-4.4598,-4.4615,-4.4615,-4.4615,-4.3826,-4.3064,-4.2303,-4.1576,-4.0832,-4.0096,-4.0096,-4.0096,-4.0096,-4.0096,-4.0096,-4.0096,-4.0096,-4.0096,-4.0096,-4.0096,-3.9537,-3.8582,-3.8091,-3.728,-3.6332,-3.5785,-3.5769,-3.5977,-3.5684,-3.56,-3.56,-3.56,-3.56,-3.56,-3.56,-3.56,-3.56,-3.56,-3.4535,-3.3406,-3.3406,-3.2307,-3.119,-3.119,-3.119,-3.119,-3.119,-3.0615,-3.004,-2.9786,-2.8686,-2.7722,-2.7469,-2.7029,-2.6691,-2.6691,-2.6285,-2.5879,-2.5626,-2.4306,-2.3291,-2.3054,-2.2584,-2.2296,-2.2296,-2.2296,-2.2296,-2.2296,-2.2296,-2.2296,-2.2296,-2.2296,-2.2296,-2.2296,-2.2533,-2.3139,-2.4135,-2.4626,-2.5355,-2.6336,-2.6573,-2.6691,-2.9786,-3.1195,-3.2272,-3.2446,-3.2692,-3.2982,-3.3412,-3.3606,-3.369,-3.355,-3.3163,-3.3087,-3.3763,-3.3868,-3.4738,-3.7514,-3.9718,-4.1326,-4.2122,-4.2919,-4.3206,-4.276,-4.2033,-4.188,-4.2625,-4.3132,-4.3595,-4.413,-4.4164,-4.4282,-4.4581,-4.4615,-4.4479,-4.4181,-4.3673,-4.2929,-4.1914,-4.1441,-4.0832,-4.0096,-4.0096,-4.0096,-4.0096,-4.0096,-4.0096,-4.0096,-4.0096,-4.0096,-4.0096,-4.0096,-3.9673,-3.8937,-3.8481,-3.7669,-3.6745,-3.6214,-3.5859,-3.56,-3.56,-3.56,-3.56,-3.56,-3.56,-3.56,-3.56,-3.56,-3.56,-3.56,-3.4721,-3.3795,-3.3795,-3.2899,-3.1918,-3.1607,-3.15,-3.1412,-3.1142,-3.0721,-3.0316,-3.0085,-2.9276,-2.8449,-2.7891,-2.7199,-2.6691,-2.6691,-2.6302,-2.5896,-2.5626,-2.478,-2.3985,-2.346,-2.2987,-2.2584,-2.2313,-2.2296,-2.2296,-2.2296,-2.2296,-2.2296,-2.2296,-2.2296,-2.2296,-2.2296,-2.2564,-2.3291,-2.4491,-2.4762,-2.5523,-2.6691,-2.6691,-2.6691,-3.0526,-3.2073,-3.3439,-3.3177,-3.3285,-3.3439,-3.3324,-3.3682,-3.3556,-3.1876,-3.1523,-3.156,-3.1596,-3.1897,-3.3048,-3.5758,-3.8728,-4.102,-4.196,-4.2888,-4.3443,-4.3443,-4.2811,-4.2642,-4.3375,-4.3409,-4.3409,-4.3443,0.0,-4.3792,-4.4564,-4.4615,-4.4248,-4.3504,-4.3375,-4.2665,-4.1271,-4.1187,-4.0781,-4.0096,-4.0096,-4.0096,-4.0096,-4.0096,-4.0096,-4.0096,-4.0096,-4.0096,-4.0096,-4.0096,-3.9706,-3.9039,-3.9005,-3.8149,-3.6897,-3.6829,-3.6315,-3.565,-3.5616,-3.56,-3.56,-3.56,-3.56,-3.56,-3.56,-3.56,-3.56,-3.56,-3.5081,-3.4489,-3.4489,-3.3947,-3.3178,-3.2298,-3.2022,-3.1775,-3.1022,-3.0871,-3.0694,-3.0051,-3.0032,-2.9599,-2.8077,-2.7232,-2.6742,-2.6725,-2.6691,-2.6437,-2.5761,-2.5625,-2.5067,-2.3663,-2.3477,-2.3156,-2.2429,-2.2347,-2.233,-2.2296,-2.2296,-2.2296,-2.2296,-2.2296,-2.2296,-2.2296,-2.2987,-2.3729,-2.4491,-2.5203,-2.5947,-2.6691,-2.6691,-2.6691,-3.2988,-3.4236,-3.4979,-3.4765,-3.4493,-3.4097,-3.338,-3.3107,-3.2501,-3.0889,-2.9937,-2.9564,-3.0124,-3.0245,-3.1335,-3.4526,-3.7582,-4.0053,-4.1593,-4.3233,-4.4282,-4.4282,-4.3606,-4.3436,-4.4215,-4.3758,-4.3656,-4.4231,-4.4282,-4.4395,-4.4598,-4.4615,-4.4513,-4.4282,-4.3183,-4.2388,-4.2016,-4.0942,-4.0299,-4.0096,-4.0096,-4.0096,-4.0096,-4.0096,-4.0096,-4.0096,-4.0096,-4.0096,-4.0096,-4.0096,-3.9994,-3.9774,-3.9208,-3.8751,-3.8319,-3.7218,-3.6677,-3.64,-3.5825,-3.56,-3.56,-3.56,-3.56,-3.56,-3.56,-3.56,-3.56,-3.56,-3.5081,-3.4489,-3.4489,-3.3947,-3.3178,-3.2249,-3.1779,-3.1355,-3.0621,-3.0435,-3.0464,-3.0503,-3.0289,-2.9599,-2.8077,-2.7638,-2.7317,-2.6776,-2.6691,-2.6623,-2.6437,-2.5947,-2.5456,-2.5084,-2.4543,-2.3915,-2.3173,-2.3122,-2.2885,-2.233,-2.2296,-2.2296,-2.2296,-2.2296,-2.2296,-2.2296,-2.2482,-2.3207,-2.4491,-2.4694,-2.5439,-2.6691,-2.6691,-2.6691,-3.4066,-3.5047,-3.5571,-3.5429,-3.4851,-3.4044,-3.3112,-3.2342,-3.1285,-2.9282,-2.8093,-2.7514,-2.7828,-2.8186,-2.9501,-3.2862,-3.6097,-3.8917,-4.0998,-4.2896,-4.4198,-4.4564,-4.4198,-4.4096,-4.4564,-4.4181,-4.4113,-4.4581,-4.4615,-4.4615,-4.4615,-4.4615,-4.4445,-4.4079,-4.2912,-4.1982,-4.1348,-4.0519,-4.0096,-4.0096,-4.0096,-4.0096,-4.0096,-4.0096,-4.0096,-4.0096,0.0,-4.0096,-4.0096,-4.0096,-4.0096,-4.0062,-3.9656,-3.9276,-3.8853,-3.7702,-3.7083,-3.6694,-3.5893,-3.56,-3.56,-3.5571,-3.5526,-3.5458,-3.5412,-3.5327,-3.5304,-3.535,-3.5116,-3.4841,-3.4841,-3.4538,-3.3878,-3.2502,-3.1852,-3.1273,-3.0179,-2.9968,-3.014,-3.0692,-3.0367,-2.9764,-2.8956,-2.8211,-2.7619,-2.7163,-2.6774,-2.6504,-2.6487,-2.6236,-2.5964,-2.5626,-2.522,-2.4694,-2.3949,-2.3881,-2.3577,-2.2835,-2.2784,-2.2649,-2.2313,-2.2296,-2.2296,-2.2296,-2.2632,-2.3342,-2.4491,-2.4829,-2.5558,-2.6691,-2.6691,-2.6691,-3.4438,-3.5115,-3.5577,-3.552,-3.4734,-3.3706,-3.2685,-3.151,-2.9966,-2.7508,-2.6276,-2.5601,-2.555,-2.6214,-2.7866,-3.1202,-3.4587,-3.7674,-4.012,-4.2149,-4.3673,-4.435,-4.4547,-4.4615,-4.4615,-4.4615,-4.4615,-4.4615,-4.4615,-4.4615,-4.4615,-4.4615,-4.4181,-4.3274,-4.254,-4.1474,-4.0113,-4.0096,-4.0096,-4.0096,-4.0096,-4.0096,-4.0096,-4.0096,-4.0096,-4.0096,-4.0096,-4.0096,-4.0096,-4.0096,-4.0096,-4.0096,-4.0096,-3.9723,-3.9039,-3.821,-3.7499,-3.6829,-3.5904,-3.56,-3.5577,-3.5498,-3.5337,-3.5182,-3.5041,-3.4859,-3.4763,-3.4906,-3.5088,-3.5205,-3.5222,-3.5138,-3.4612,-3.2761,-3.1897,-3.1109,-2.9674,-2.9477,-2.981,-3.0671,-3.0375,-3.0022,-3.0087,-2.8832,-2.7747,-2.7573,-2.6779,-2.6173,-2.6082,-2.6401,-2.6387,-2.5747,-2.5696,-2.5408,-2.468,-2.4628,-2.4323,-2.3579,-2.3444,-2.3105,-2.2465,-2.2448,-2.2448,-2.2448,-2.3173,-2.3915,-2.4643,-2.5287,-2.5981,-2.6691,-2.6691,-2.6691,-3.5216,-3.5498,-3.56,-3.5577,-3.498,-3.3982,-3.244,-3.0742,-2.8813,-2.6383,-2.5006,-2.4439,-2.5064,-2.5731,-2.7201,-3.0403,-3.3744,-3.6563,-3.8469,-4.1439,-4.3443,-4.3578,-4.4198,-4.4615,-4.4615,-4.4615,-4.4615,0.0,-4.4615,-4.4615,-4.4615,-4.4615,-4.3955,-4.254,-4.1779,-4.0984,-4.0113,-4.0096,-4.0096,-4.0096,-4.0096,-4.0096,-4.0096,-4.0096,-4.0096,-4.0096,-4.0096,0.0,-4.0096,-4.0096,-4.0096,-4.0096,-4.0096,-4.0028,-3.9757,-3.8396,-3.7821,-3.7516,-3.609,-3.56,-3.5577,-3.5383,-3.5055,-3.4681,-3.4431,-3.4111,-3.3894,-3.4111,-3.4456,-3.4728,-3.4787,-3.4355,-3.3551,-3.2227,-3.0927,-2.9725,-2.8872,-2.902,-2.956,-3.0267,-3.0476,-3.045,-3.0152,-2.9215,-2.8223,-2.733,-2.6399,-2.5703,-2.5408,-2.5905,-2.6244,-2.6111,-2.6147,-2.5899,-2.5229,-2.526,-2.5038,-2.4355,-2.3746,-2.3342,-2.3207,-2.3207,-2.3207,-2.3207,-2.3932,-2.4677,-2.5423,-2.5541,-2.5981,-2.6691,-2.6691,-2.6691,-3.5498,-3.56,-3.56,-3.56,-3.4776,-3.3499,-3.1853,-2.9819,-2.7607,-2.5249,-2.3939,-2.3325,-2.3679,-2.425,-2.5686,-2.8846,-3.1697,-3.4504,-3.7378,-4.0223,-4.2297,-4.3115,-4.3872,-4.4372,-4.444,-4.4542,-4.4615,-4.4615,-4.4198,-4.4147,-4.4581,-4.4198,-4.3284,-4.1779,-4.139,-4.0849,-4.0113,-4.0096,-4.0096,-4.0096,-4.0096,-4.0096,-4.0096,-4.0096,-4.0096,-4.0096,-4.0096,-4.0096,-4.0096,-4.0096,-4.0096,-4.0096,-4.0096,-4.0096,-3.9926,-3.8447,-3.7905,-3.7686,-3.6124,-3.56,-3.5554,-3.5205,-3.4778,-3.4342,-3.4027,-3.3578,-3.3251,-3.3501,-3.3885,-3.4226,-3.4184,-3.3974,-3.3332,-3.1652,-2.9998,-2.8686,-2.8427,-2.8669,-2.9166,-2.9799,-3.014,-3.0332,-3.0306,-2.9184,-2.8069,-2.7457,-2.6173,-2.5192,-2.4922,-2.5173,-2.5441,-2.5649,-2.5797,-2.5829,-2.5676,-2.5814,-2.5665,-2.5118,-2.4746,-2.4205,-2.3427,-2.378,-2.3797,-2.341,-2.4492,-2.5253,-2.5592,-2.5998,-2.6353,-2.6691,-2.6691,-2.6691,-3.5549,-3.56,-3.56,-3.56,-3.4484,-3.2996,-3.1415,-2.9072,-2.6649,-2.4546,-2.3271,-2.2552,-2.2637,-2.2981,-2.4217,-2.7216,-2.9576,-3.2287,-3.583,-3.8619,-4.0811,-4.22,-4.3301,-4.3993,-4.4179,-4.444,0.0,-4.435,-4.3623,-4.3436,-4.4073,-4.3369,-4.2405,-4.1238,-4.1052,-4.0679,-4.0113,-4.0096,-4.0096,-4.0096,-4.0096,-4.0096,-4.0096,-4.0096,-4.0096,-4.0096,-4.0096,-4.0096,-4.0096,-4.0096,-4.0096,-4.0096,-4.0096,-4.0096,-3.9926,-3.8447,-3.7905,-3.7686,-3.6118,-3.5554,-3.5441,-3.493,-3.4464,-3.3995,-3.361,-3.306,-3.2586,-3.2873,-3.3272,-3.3601,-3.3497,-3.3453,-3.2883,-3.0818,-2.92,-2.8112,-2.8094,-2.831,-2.8724,-2.9257,-2.9572,-2.9859,-3.022,-2.8967,-2.7789,-2.7421,-2.5991,-2.4795,-2.4426,-2.4405,-2.4497,-2.4831,-2.5163,-2.5503,-2.5834,-2.6066,-2.6045,-2.5748,-2.5596,-2.5005,-2.3855,-2.4377,-2.4458,-2.3883,-2.5169,-2.5845,-2.5845,-2.642,-2.6691,-2.6691,-2.6691,-2.6691,-3.5414,-3.56,-3.56,-3.56,-3.4484,-3.3017,-3.1529,-2.8889,-2.632,-2.4765,-2.3332,-2.25,-2.3038,-2.2923,-2.3555,-2.597,-2.8194,-3.0415,-3.2807,-3.6488,-3.9309,-4.026,-4.2158,-4.3502,-4.3831,-4.4298,-4.4282,-4.3589,-4.2828,-4.2422,-4.2506,-4.1813,-4.1339,-4.1204,-4.0544,-4.018,-4.0096,-4.0096,-4.0096,-4.0096,-4.0096,-4.0096,-4.0096,-4.0096,-4.0096,-4.0096,-4.0096,-4.0096,0.0,-4.0096,-4.0096,-4.0096,-4.0096,-4.0096,-3.9926,-3.8447,-3.7905,-3.7662,-3.6083,-3.5429,-3.5222,-3.457,-3.4052,-3.3572,-3.3055,-3.2299,-3.1697,-3.201,-3.2398,-3.2738,-3.2695,-3.2271,-3.1305,-2.9271,-2.867,-2.8389,-2.7785,-2.7865,-2.8186,-2.8527,-2.8834,-2.9097,-2.9429,-2.865,-2.7655,-2.6726,-2.5728,-2.475,-2.3799,-2.3681,-2.3702,-2.373,-2.4466,-2.5098,-2.5424,-2.5647,-2.5886,-2.6124,-2.5579,-2.5196,-2.5129,-2.5311,-2.5393,-2.5406,-2.6184,-2.659,-2.659,-2.6657,-2.6691,-2.6691,-2.6691,-2.6691,-3.4742,-3.5267,-3.5481,-3.5064,-3.3829,-3.2341,-3.0869,-2.8197,-2.5744,-2.4711,-2.3325,-2.2338,-2.2461,-2.2272,-2.2814,-2.4988,-2.6403,-2.8254,-3.1165,-3.4039,-3.6442,-3.7989,-3.978,-4.1177,-4.193,0.0,-4.2401,-4.1638,-4.1303,-4.0936,-4.0451,-4.092,-4.1001,-4.0544,-4.0265,-4.0096,-4.0096,-4.0096,-4.0096,-4.0096,-4.0096,-4.0096,-4.0096,-4.0096,-4.0096,-4.0096,-4.0096,-4.0096,0.0,-4.0096,-4.0096,-4.0096,-4.0096,-3.9842,-3.9292,-3.8278,-3.7618,-3.7053,-3.5822,-3.5165,-3.4785,-3.4234,-3.3569,-3.2949,-3.2641,-3.2064,-3.1568,-3.1813,-3.2122,-3.2342,-3.2274,-3.1686,-3.0776,-2.9507,-2.8891,-2.8412,-2.775,-2.7765,-2.7965,-2.8268,-2.8462,-2.8677,-2.8943,-2.8193,-2.7434,-2.6988,-2.5787,-2.4745,-2.4253,-2.3849,-2.3595,-2.3595,-2.4042,-2.4477,-2.4772,-2.4985,-2.5237,-2.5594,-2.5462,-2.5264,-2.501,-2.563,-2.5866,-2.5609,-2.6319,-2.6691,-2.6691,-2.6691,-2.6691,-2.6691,-2.6691,-2.6691,-3.4235,-3.5047,-3.5414,-3.4675,-3.3393,-3.1853,-3.0159,-2.7621,-2.5338,-2.4372,-2.3173,-2.2237,-2.2041,-2.1825,-2.2207,-2.3883,-2.4809,-2.6289,-2.9054,-3.143,-3.3523,-3.5168,-3.6889,-3.8354,-3.937,-4.005,-4.0294,-3.997,-3.9757,-3.9368,-3.8827,-3.9669,-4.0084,-3.9841,-3.9893,-3.9935,-3.9969,-4.0037,-4.0062,-4.0096,-4.0096,-4.0096,-4.0096,-4.0096,-4.0096,-4.0096,-4.0096,-4.0096,0.0,-4.0096,-4.0096,-4.0079,-3.9809,-3.9378,-3.8771,-3.7761,-3.7047,-3.6421,-3.5361,-3.4747,-3.4292,-3.3748,-3.3087,-3.2453,-3.2274,-3.1881,-3.1539,-3.167,-3.1855,-3.1981,-3.1883,-3.1436,-3.0751,-2.9801,-2.922,-2.8652,-2.7779,-2.7675,-2.7815,-2.7989,-2.8088,-2.821,-2.8343,-2.7815,-2.732,-2.7066,-2.6067,-2.5145,-2.4649,-2.4186,-2.3819,-2.3625,-2.376,-2.3994,-2.4282,-2.4466,-2.4708,-2.5005,-2.5218,-2.522,-2.4991,-2.5749,-2.6063,-2.5831,-2.6387,-2.6691,-2.6691,-2.6691,-2.6691,-2.6691,-2.6691,-2.681,-3.4104,-3.5047,-3.5414,-3.4675,-3.3393,-3.1718,-2.9517,-2.7232,-2.5186,-2.3714,-2.2818,-2.2237,-2.2041,-2.1777,-2.183,-2.2506,-2.351,-2.4689,-2.6058,-2.8717,-3.0835,-3.1653,-3.3575,-3.5243,-3.625,-3.7291,-3.821,-3.887,-3.8235,0.0,-3.7806,-3.7822,-3.825,-3.9179,-3.9415,-3.9563,-3.9703,-3.9849,-3.9961,-4.0096,-4.0096,-4.0096,-4.0096,-4.0096,-4.0096,-4.0096,-4.0096,-4.0096,0.0,-4.0096,-4.0096,-4.0003,-3.9151,-3.8723,-3.8397,-3.6818,-3.6146,-3.586,-3.4718,-3.4126,-3.3797,-3.3044,-3.2547,-3.2135,-3.1898,-3.167,-3.1511,-3.1511,-3.1511,-3.1511,-3.1511,-3.1496,-3.1167,-2.9894,-2.9606,-2.9232,-2.7884,-2.76,-2.76,-2.7625,-2.7625,-2.7625,-2.7625,-2.761,-2.736,-2.6716,-2.6572,-2.6093,-2.4769,-2.459,-2.4335,-2.367,-2.3595,-2.3745,-2.4063,-2.424,-2.4385,-2.4589,-2.4799,-2.5059,-2.5387,-2.5735,-2.6063,-2.6384,-2.6538,-2.6623,-2.6691,-2.6691,-2.6691,-2.6691,-2.6691,-2.7097,-3.2069,-3.3194,-3.3812,-3.2544,-3.1512,-3.0192,-2.7943,-2.6099,-2.456,-2.3596,-2.2818,-2.2268,-2.2166,-2.1943,-2.1983,-2.2523,-2.3086,-2.3994,-2.5571,-2.7558,-2.9445,-3.1025,-3.3614,-3.5467,-3.5962,-3.6737,-3.73,-3.752,-3.7301,-3.7175,-3.7175,-3.7175,-3.7501,-3.8222,-3.8518,-3.8821,-3.9156,-3.9418,-3.9738,-4.0096,-4.0096,-4.0096,-4.0096,-4.0096,-4.0096,-4.0096,-4.0096,-4.0096,-4.0096,-4.0096,-4.0096,-4.0003,-3.9034,-3.8146,-3.7227,-3.6033,-3.5085,-3.4286,-3.3745,-3.3293,-3.2953,-3.2535,-3.2107,-3.1697,-3.1626,-3.1539,-3.1511,-3.1511,-3.1511,-3.1511,-3.1511,-3.1152,-3.0612,-2.9774,-2.9235,-2.8667,-2.7794,-2.76,-2.76,-2.76,-2.76,-2.76,-2.76,-2.76,-2.7525,-2.7315,-2.6896,-2.6437,-2.6019,-2.557,-2.5187,-2.5001,-2.4567,-2.414,-2.379,-2.3803,-2.3846,-2.3894,-2.4141,-2.4415,-2.4692,-2.5134,-2.5607,-2.612,-2.6313,-2.6504,-2.6691,-2.6691,-2.6962,-2.7452,-2.7452,-2.7875,-3.073,-3.1749,-3.2273,-3.1089,-3.0226,-2.9093,-2.6793,-2.5371,-2.4203,-2.319,-2.2632,-2.2282,-2.2257,-2.2137,-2.2109,-2.2272,-2.2731,-2.3473,-2.4651,-2.6375,-2.8344,-3.0543,-3.2907,-3.4515,-3.4939,-3.5615,-3.6091,-3.6352,-3.6368,-3.6368,-3.6368,-3.6368,-3.6554,-3.692,-3.7663,-3.8278,-3.8734,-3.9119,-3.9592,-4.0096,-4.0062,-4.0011,-3.9961,-3.991,-3.9816,-3.9773,-3.9858,-3.991,0.0,-3.9944,-3.9944,-3.9817,-3.8438,-3.7314,-3.6352,-3.5014,-3.4008,-3.3261,-3.2986,-3.2695,-3.2382,-3.215,-3.1783,-3.1511,-3.1511,-3.1511,-3.1511,-3.1511,-3.1511,-3.1451,-3.1182,-3.0821,-3.0283,-2.9415,-2.8891,-2.8412,-2.775,-2.76,-2.76,-2.76,-2.76,-2.76,-2.76,-2.76,-2.76,-2.76,-2.724,-2.6896,-2.6617,-2.6243,-2.5884,-2.563,-2.5217,-2.4709,-2.4022,-2.3744,-2.3595,-2.3595,-2.3797,-2.4036,-2.4282,-2.4679,-2.53,-2.6167,-2.6424,-2.681,-2.7431,-2.7519,-2.7791,-2.8264,-2.8264,-2.867,0.0,-3.0571,-3.0869,-3.0125,-2.9381,-2.8248,-2.6031,-2.4949,0.0,-2.2584,-2.2296,-2.2296,-2.2296,-2.233,-2.2279,-2.1923,-2.2588,-2.3262,-2.3608,-2.5507,-2.7814,-3.0342,-3.1839,-3.2901,-3.3499,-3.4158,-3.4816,-3.5459,-3.5504,-3.5504,-3.5504,-3.5504,-3.5504,-3.5504,-3.6815,-3.7825,-3.8446,-3.8947,-3.947,-4.0096,-3.9935,-3.9807,-3.9635,-3.9494,-3.9292,0.0,-3.9335,-3.9494,-3.9635,-3.9651,-3.9651,-3.9449,-3.7501,-3.6397,-3.5685,-3.3879,-3.2985,-3.2668,-3.241,-3.2231,-3.2122,-3.187,-3.167,-3.1511,-3.1511,-3.1511,-3.1511,-3.1511,-3.1511,-3.1346,-3.0687,-3.0477,-3.0133,-2.8891,-2.8562,-2.8353,-2.7735,-2.76,-2.76,-2.76,-2.76,-2.76,-2.76,-2.76,-2.76,-2.76,-2.76,-2.7375,-2.6761,-2.6662,-2.6422,-2.5809,-2.5704,-2.5412,-2.4799,-2.4066,-2.3655,-2.3595,-2.3762,-2.3943,-2.4133,-2.4493,-2.5251,-2.6463,-2.6818,-2.7514,-2.8588,-2.8848,-2.9027,-2.9077,-2.9077,-2.9465,-2.7085,0.0,-2.9331,-2.8534,-2.7791,-2.6809,0.0,-2.4186,-2.3393,-2.2496,-2.2296,-2.2296,-2.2296,-2.2767,-2.3036,-2.2704,-2.3738,-2.4705,-2.4989,-2.7671,-3.0193,-3.1809,-3.32,-3.4099,-3.4264,-3.4861,-3.5325,-3.5489,-3.5504,-3.5504,-3.5504,-3.5504,-3.5504,-3.5504,-3.6179,-3.6981,-3.7966,-3.8562,-3.9302,-4.0113,-3.9858,-3.9513,-3.9076,-3.8849,-3.8518,-3.8137,-3.8463,-3.8767,-3.9102,-3.9125,-3.9125,-3.8923,-3.7487,-3.6139,-3.4867,-3.3645,-3.259,-3.1796,-3.171,-3.1697,-3.164,-3.1597,-3.1539,-3.1511,-3.1511,-3.1511,-3.1511,-3.1511,-3.1511,-3.1346,-3.0687,-3.0163,-2.9594,-2.8786,-2.8203,-2.7794,-2.763,-2.76,-2.76,-2.76,-2.76,-2.76,-2.76,-2.76,-2.76,-2.76,-2.76,-2.754,-2.739,-2.736,-2.73,-2.7151,-2.6662,-2.6303,-2.6138,-2.5061,-2.4141,-2.3625,-2.411,-2.4432,-2.4477,-2.5205,-2.5874,-2.6408,-2.7336,-2.8028,-2.846,-2.8829,-2.9297,-2.9837,-2.9837,-3.0243,-2.6147,-2.7104,-2.7842,-2.7402,-2.6996,-2.6319,-2.4829,-2.3932,-2.319,-2.2448,-2.2296,-2.2398,-2.275,-2.3122,-2.3508,-2.3801,-2.4547,-2.5537,-2.6742,-2.9524,-3.1809,-3.2841,-3.4143,-3.4951,-3.4951,-3.5295,-3.5504,-3.5504,-3.5504,-3.5504,-3.5504,-3.5504,-3.5504,-3.5504,-3.5893,-3.6569,-3.7618,-3.8197,-3.8882,-3.9696,-3.9355,-3.8963,-3.853,-3.8153,-3.778,-3.7413,-3.7751,-3.8124,-3.853,-3.8495,-3.8507,-3.8377,-3.6702,-3.5404,-3.432,-3.305,-3.2099,-3.1511,-3.1511,-3.1511,-3.1511,-3.1511,-3.1511,-3.1511,-3.1511,-3.1511,-3.1511,-3.1511,-3.1511,-3.1271,-3.0328,-2.9834,-2.9352,-2.8353,-2.7869,-2.76,-2.76,-2.76,-2.76,-2.76,-2.76,-2.76,-2.76,-2.76,-2.76,-2.76,-2.76,-2.76,-2.76,-2.76,-2.76,-2.76,-2.7285,-2.6941,-2.6641,-2.5929,-2.5241,-2.4567,-2.4859,-2.5053,-2.5053,-2.5559,-2.6222,-2.6969,-2.8169,-2.8936,-2.9237,-2.9666,-3.0078,-3.0521,-3.0596,-3.0818,-2.5938,-2.64,-2.6691,-2.6691,-2.6691,-2.6336,-2.4982,-2.4101,-2.3376,-2.2767,-2.2649,-2.2835,-2.3444,-2.3748,-2.4198,-2.5062,-2.5468,-2.6475,-2.8665,-3.1014,-3.2781,-3.341,-3.4681,-3.5504,-3.5504,-3.5504,-3.5504,-3.5504,-3.5504,-3.5504,-3.5504,-3.5504,-3.5504,-3.5504,-3.5797,-3.6352,-3.7221,-3.7709,-3.8311,-3.8974,-3.8606,-3.8214,-3.7854,-3.7431,-3.7012,-3.6692,0.0,0.0,-3.7854,-3.777,-3.7719,-3.7524,-3.5674,-3.4531,-3.3784,-3.2414,-3.1716,-3.1511,-3.1511,-3.1511,-3.1511,-3.1511,-3.1511,-3.1511,-3.1511,-3.1511,-3.1511,-3.1511,-3.1511,-3.1212,-2.9924,-2.9606,-2.9262,-2.7914,-2.76,-2.76,-2.76,-2.76,-2.76,-2.76,-2.76,-2.76,-2.76,-2.76,-2.76,-2.76,-2.76,-2.76,-2.76,-2.76,-2.76,-2.76,-2.76,-2.7375,-2.6806,-2.6761,-2.6497,-2.5944,-2.5809,-2.5809,-2.5899,-2.6008,-2.6609,-2.7721,-2.8858,-2.9633,-3.006,-3.0568,-3.0855,-3.0955,-3.1131,-3.1258,-2.4962,-2.5973,-2.6691,-2.6691,-2.6691,-2.6471,-2.5625,-2.4847,-2.4305,-2.4186,-2.4169,-2.4203,-2.4305,-2.5354,-2.6168,-2.6112,-2.7393,-2.8904,-3.0426,-3.1798,-3.2886,-3.344,-3.4681,-3.5504,-3.5504,-3.5504,-3.5504,-3.5504,-3.5504,-3.5504,-3.5504,-3.5504,-3.5504,-3.5504,-3.5653,-3.5943,-3.6368,-3.6951,-3.7501,-3.8023,-3.7706,-3.7324,-3.6828,-3.6508,-3.6148,-3.5733,0.0,-3.6461,-3.6828,-3.686,-3.6548,-3.591,-3.5367,-3.4166,-3.2721,-3.2467,-3.2003,-3.1511,-3.1511,-3.1511,-3.1511,-3.1511,-3.1511,-3.1511,-3.1511,-3.1511,-3.1511,-3.1511,-3.1511,-3.1212,-2.9924,-2.9606,-2.9262,-2.7914,-2.76,-2.76,-2.76,-2.76,-2.76,-2.76,-2.76,-2.76,-2.76,-2.76,-2.76,-2.76,-2.76,-2.76,-2.76,-2.76,-2.76,-2.76,-2.76,-2.7555,-2.745,-2.745,-2.7405,-2.73,-2.6752,-2.6692,-2.727,-2.731,-2.7534,-2.7951,-2.8432,-2.8912,-2.9441,-3.0075,-3.0514,-3.0753,-3.1052,-3.1532,-2.4371,-2.5407,-2.6197,-2.6165,-2.7063,-2.774,-2.6979,-2.6218,-2.5692,-2.5692,-2.5355,-2.5338,-2.6133,-2.6505,-2.7077,-2.826,-2.9929,-3.1105,-3.1312,-3.2549,-3.3471,-3.3485,-3.4681,-3.5504,-3.5504,-3.5504,-3.5504,-3.5504,-3.5504,-3.5504,-3.5504,-3.5504,-3.5504,-3.5504,-3.5554,-3.5668,-3.5829,-3.6116,-3.66,-3.7294,-3.7042,-3.6738,-3.6368,-3.6054,-3.5782,-3.5504,0.0,-3.607,-3.6384,-3.6336,-3.6168,-3.5815,-3.4821,-3.3849,-3.2961,-3.2213,-3.1765,-3.1511,-3.1511,-3.1511,-3.1511,-3.1511,-3.1511,-3.1511,-3.1511,-3.1511,-3.1511,-3.1511,-3.1511,-3.1212,-2.9924,-2.9606,-2.9262,-2.7914,-2.76,-2.76,-2.76,-2.76,-2.76,-2.76,-2.76,-2.76,-2.76,-2.76,-2.76,-2.76,-2.76,-2.76,-2.76,-2.76,-2.76,-2.76,-2.76,-2.76,-2.76,-2.76,-2.76,-2.76,-2.7315,-2.7285,-2.7585,-2.76,-2.7675,-2.7905,-2.8195,-2.8566,-2.8974,-2.9617,-3.0092,-3.0459,-3.1253,-3.1827,-2.4116,-2.4788,-2.5436,-2.5886,-2.7369,-2.8552,-2.7942,-2.735,-2.7012,-2.7199,-2.6793,-2.6742,-2.7858,-2.7704,-2.8147,-3.0422,-3.1748,-3.2338,-3.1898,-3.299,-3.3757,-3.3531,-3.4547,-3.5325,-3.5489,-3.5504,-3.5504,-3.5504,-3.5504,-3.5504,-3.5504,-3.5504,-3.5504,-3.5504,-3.5504,-3.5504,-3.5504,-3.5504,-3.5846,-3.6585,-3.6367,-3.6178,-3.6022,-3.5767,-3.5604,-3.5504,-3.5621,-3.5708,-3.5793,-3.5849,-3.5759,-3.5459,-3.4378,-3.3682,-3.3125,-3.1929,-3.1511,-3.1511,-3.1511,-3.1511,-3.1511,-3.1511,-3.1511,-3.1511,-3.1511,-3.1511,-3.1511,-3.1511,-3.1511,-3.1241,-3.0103,-2.9711,-2.9307,-2.8124,-2.7705,-2.76,-2.76,-2.76,-2.76,-2.76,-2.76,-2.76,-2.76,-2.76,-2.7645,-2.7809,-2.7839,-2.7899,-2.8049,-2.8064,-2.8064,-2.8064,-2.7929,-2.7764,-2.76,-2.76,-2.76,-2.76,-2.76,-2.76,-2.76,-2.76,-2.765,-2.7765,-2.7949,-2.8204,-2.855,-2.9074,-2.9647,-3.0239,-3.1338,-3.2085,-2.4343,-2.4226,-2.4417,-2.642,-2.7402,-2.7874,-2.7824,-2.7756,-2.7925,-2.8688,-2.879,-2.879,-2.8891,-2.9213,-3.0099,-3.1957,-3.1875,-3.1822,-3.2446,-3.2857,-3.3169,-3.3486,-3.4113,-3.4833,-3.5444,-3.5504,-3.5504,-3.5504,-3.5504,-3.5504,-3.5504,-3.5504,-3.5504,-3.5504,-3.5504,-3.5504,-3.5504,-3.5504,-3.5537,-3.5587,-3.5602,-3.5554,-3.5569,-3.5537,-3.5504,-3.5504,-3.5504,-3.5177,-3.4655,-3.5267,-3.4803,-3.3741,-3.4234,-3.3695,-3.2467,-3.1765,-3.1511,-3.1511,-3.1511,-3.1511,-3.1511,-3.1511,-3.1511,-3.1511,-3.1511,-3.1511,-3.1511,-3.1511,-3.1511,-3.1331,-3.0627,-3.0013,-2.9427,-2.8697,-2.8064,-2.76,-2.76,-2.76,-2.76,-2.76,-2.76,-2.76,-2.76,-2.76,-2.7809,-2.8427,-2.8532,-2.8742,-2.9382,-2.9472,-2.9472,-2.9472,-2.8891,-2.8263,-2.7645,-2.76,-2.76,-2.76,-2.76,-2.76,-2.76,-2.76,-2.76,-2.7625,-2.7625,-2.779,-2.8054,-2.8422,-2.9171,-3.0321,-3.1089,-3.2287,-2.3928,-2.4014,-2.4386,-2.5524,-2.654,-2.7589,-2.8942,-2.96,-3.0125,-3.0888,-3.1058,-3.0922,-3.0448,-3.0777,-3.1416,-3.227,-3.2358,-3.2392,-3.2555,-3.2898,-3.3059,-3.2886,-3.3469,-3.3963,-3.4233,-3.4262,-3.4262,-3.4262,-3.4262,-3.4262,-3.4262,-3.4637,-3.4861,-3.4861,-3.528,-3.5504,-3.5504,-3.5504,-3.5504,-3.5504,-3.5504,-3.5504,-3.5504,-3.5504,-3.5504,-3.5504,-3.5504,-3.5115,-3.4533,-3.4756,-3.4322,-3.3484,-3.332,-3.2706,-3.1854,-3.1585,-3.1511,-3.1511,-3.1511,-3.1511,-3.1511,-3.1511,-3.1511,-3.1511,-3.1511,-3.1511,-3.1511,-3.1511,-3.1511,-3.1346,-3.0687,-3.0328,-2.9998,-2.937,-2.9037,-2.8738,-2.8293,-2.8203,-2.8109,-2.7675,-2.76,-2.76,-2.76,-2.7959,-2.8308,-2.8562,-2.8951,-2.9295,-2.9577,-2.9606,-2.9606,-2.9606,-2.8996,-2.8502,-2.8233,-2.7839,-2.76,-2.76,-2.76,-2.76,-2.76,-2.76,-2.76,-2.76,-2.76,-2.7675,-2.788,-2.8171,-2.8883,-2.9957,-3.1098,-3.2285,-2.4454,-2.4299,-2.4357,-2.5423,-2.6162,-2.7212,-2.9357,-3.0554,-3.1413,-3.2158,-3.2293,-3.2158,-3.165,-3.1604,-3.1838,-3.2319,-3.2391,-3.2424,-3.2571,-3.2714,-3.274,-3.2527,-3.2901,-3.326,-3.3469,-3.3499,-3.3499,-3.3499,-3.3499,-3.3499,-3.3499,-3.4159,-3.4503,-3.4503,-3.5145,-3.5504,-3.5504,-3.5504,-3.5504,-3.5504,-3.5504,-3.5504,-3.5504,-3.5504,-3.5385,-3.5175,-3.5175,-3.4681,-3.3873,-3.4114,-3.3903,-3.3425,-3.2766,-3.2213,-3.1795,-3.1585,-3.1511,-3.1511,-3.1511,-3.1511,-3.1511,-3.1511,-3.1511,-3.1511,-3.1511,-3.1511,-3.1511,-3.1511,-3.1511,-3.1391,-3.0913,-3.0672,-3.0402,-2.9968,-2.9756,-2.9487,-2.9011,-2.8906,-2.8771,-2.8319,-2.8229,-2.8229,-2.8229,-2.8618,-2.8981,-2.9175,-2.9579,-2.9953,-3.0163,-3.0193,-3.0118,-2.9894,-2.946,-2.9116,-2.8921,-2.8498,-2.8229,-2.8229,-2.8229,-2.8049,-2.7615,-2.76,-2.76,-2.76,-2.76,-2.765,-2.774,-2.7925,-2.8639,-2.9809,-3.0907,-3.2054,-2.6209,-2.5092,-2.4251,-2.6373,-2.6535,-2.6678,-2.8836,-3.0279,-3.141,-3.2158,-3.231,-3.231,-3.231,-3.1557,-3.1254,-3.2253,-3.1923,-3.1765,-3.2509,-3.2247,-3.2125,-3.2452,-3.2497,-3.2766,-3.341,-3.3469,-3.3469,-3.3469,-3.3469,-3.3469,-3.3469,-3.4098,-3.4503,-3.4503,-3.5145,-3.5504,-3.5489,-3.5489,-3.5489,-3.5489,-3.5489,-3.5489,-3.5504,-3.5504,-3.513,-3.4503,-3.4503,-3.3724,-3.2557,-3.3215,-3.3469,-3.341,-3.2766,-3.2497,-3.2392,-3.175,-3.1511,-3.1511,-3.1511,-3.1511,-3.1511,-3.1511,-3.1511,-3.1511,-3.1511,-3.1511,-3.1511,-3.1511,-3.1511,-3.1511,-3.1511,-3.1002,-3.0507,-3.0507,-3.0043,-2.9621,-2.9621,-2.9621,-2.9621,-2.9606,-2.9606,-2.9606,-2.9606,-2.9606,-2.9804,-3.0417,-3.0507,-3.0761,-3.1406,-3.1511,-3.1241,-3.0582,-3.0507,-3.0268,-2.9681,-2.9621,-2.9621,-2.9621,-2.9606,-2.9007,-2.766,-2.7615,-2.7615,-2.7615,-2.7615,-2.7615,-2.7615,-2.7615,-2.8443,-3.0015,-3.0413,-3.1462,-2.5586,-2.5579,-2.5903,-2.7494,-2.7871,-2.8271,-2.9851,-3.0745,-3.1562,-3.2814,-3.3068,-3.3068,-3.3068,-3.2732,-3.2627,-3.3083,-3.2755,-3.2465,-3.2571,-3.2342,-3.2057,-3.1823,-3.1795,-3.1869,-3.2064,-3.2079,-3.2079,-3.2079,-3.2079,-3.2079,-3.2079,-3.3185,-3.3784,-3.3784,-3.4906,-3.5265,-3.4786,-3.4786,-3.4547,-3.4098,-3.4562,-3.504,-3.5504,-3.5504,-3.513,-3.4503,-3.4503,-3.3724,-3.2497,-3.2198,-3.2079,-3.2064,-3.1869,-3.1795,-3.1765,-3.157,-3.1511,-3.1511,-3.1511,-3.1511,-3.1511,-3.1511,-3.1511,-3.1511,-3.1511,-3.1511,-3.1511,-3.1511,-3.1511,-3.1511,-3.1511,-3.1346,-3.1197,-3.1197,-3.1062,-3.0821,-3.0328,-3.0223,-3.0103,-2.9696,-2.9606,-2.9606,-2.9606,-2.9939,-3.0298,-3.0477,-3.0883,-3.1271,-3.1481,-3.1511,-3.1421,-3.1212,-3.1197,-3.1122,-3.0943,-3.036,-3.0001,-3.0001,-2.9759,-2.9427,-2.9022,-2.9022,-2.9022,-2.9022,-2.9022,-2.9022,-2.9022,-2.9022,-2.9549,-3.0567,-3.0876,-3.1578,-2.6031,-2.6582,-2.7207,-2.8557,-2.9263,-2.9912,-3.1034,-3.1451,-3.1968,-3.3169,-3.3406,-3.3406,-3.3406,-3.3296,0.0,-3.3607,-3.3272,-3.2905,-3.2775,-3.2465,-3.2079,-3.1553,-3.1511,-3.1511,-3.1511,-3.1511,-3.1511,-3.1511,-3.1511,-3.1511,-3.1511,-3.2512,-3.3215,-3.3484,-3.4277,-3.4637,-3.4503,-3.4249,-3.3888,-3.3499,-3.3903,-3.4307,-3.4711,-3.4981,-3.4726,-3.4053,-3.3529,-3.2856,-3.2064,-3.1675,-3.1511,-3.1511,-3.1511,-3.1511,-3.1511,-3.1511,-3.1511,-3.1511,-3.1511,-3.1511,-3.1511,-3.1511,-3.1511,-3.1511,-3.1511,-3.1511,-3.1511,-3.1511,-3.1511,-3.1511,-3.1511,-3.1511,-3.1511,-3.1511,-3.1511,-3.1391,-3.0972,-3.0883,-3.0806,-3.0432,-3.0357,-3.0357,-3.0357,-3.0672,-3.0883,-3.0883,-3.1241,-3.1511,-3.1511,-3.1511,-3.1511,-3.1511,-3.1511,-3.1511,-3.1511,-3.1017,-3.0718,-3.0718,-3.0507,-3.0357,-3.0357,-2.9864,-2.9606,-2.9606,-2.9606,-2.9606,-2.9606,-2.9606,-2.9963,-3.0689,-3.0855,-3.1313,-2.7053,-2.7798,-2.8226,-2.9569,-3.0612,-3.1479,-3.2156,-3.2263,-3.2395,-3.3068,-3.3322,-3.3406,-3.3406,-3.3457,-3.3648,-3.399,-3.367,-3.3274,-3.3093,-3.2695,-3.2203,-3.1582,-3.1511,-3.1511,-3.1511,-3.1511,-3.1511,-3.1511,-3.1511,-3.1511,-3.1511,-3.2123,-3.2781,-3.338,-3.3469,-3.3754,-3.4324,-3.3709,-3.338,-3.332,-3.338,-3.341,-3.3425,-3.4114,-3.4054,-3.3335,-3.2049,-3.1511,-3.1511,-3.1511,-3.1511,-3.1511,-3.1511,-3.1511,-3.1511,-3.1511,-3.1511,-3.1511,-3.1511,-3.1511,-3.1511,-3.1511,-3.1511,-3.1511,-3.1511,-3.1511,-3.1511,-3.1511,-3.1511,-3.1511,-3.1511,-3.1511,-3.1511,-3.1511,-3.1511,-3.1511,-3.1511,-3.1511,-3.1511,-3.1511,-3.1511,-3.1511,-3.1511,-3.1511,-3.1511,-3.1511,-3.1511,-3.1511,-3.1511,-3.1511,-3.1511,-3.1511,-3.1511,-3.1511,-3.1511,-3.1511,-3.1511,-3.1511,-3.1511,-3.1511,-3.1511,-3.0387,-2.9786,-2.9786,-2.9786,-2.9786,-2.9786,-2.9786,-3.0043,-3.0597,-3.0597,-3.0913,-2.6374,-2.7776,-2.9087,-3.047,-3.1454,-3.2162,-3.2451,-3.2015,-3.1543,-3.165,-3.2594,-3.3406,-3.3406,-3.4332,-3.5132,-3.5223,-3.4845,-3.43,-3.3582,-3.3039,-3.2394,-3.1582,-3.1511,-3.1511,-3.1511,-3.1511,-3.1511,-3.1511,-3.1511,-3.1511,-3.1511,-3.2123,-3.2587,-3.2721,-3.323,-3.332,-3.2946,-3.2796,-3.2437,-3.1929,-3.2452,-3.2721,-3.2751,-3.341,-3.335,-3.2677,-3.1854,-3.1511,-3.1511,-3.1511,-3.1511,-3.1511,-3.1511,-3.1511,-3.1511,-3.1511,-3.1511,-3.1511,-3.1511,-3.1511,-3.1511,-3.1511,-3.1511,-3.1511,-3.1511,-3.1511,-3.1511,-3.1511,-3.1511,-3.1511,-3.1511,-3.1511,-3.1511,-3.1511,-3.1511,-3.1511,-3.1511,-3.1511,-3.1511,-3.1511,-3.1511,-3.1511,-3.1511,-3.1511,-3.1511,-3.1511,-3.1511,-3.1511,-3.1511,-3.1511,-3.1511,-3.1511,-3.1511,-3.1511,-3.1511,-3.1511,-3.1511,-3.1511,-3.1511,-3.1511,-3.1511,-3.1241,-3.1077,-3.1077,-3.1077,-3.1077,-3.1077,-3.1077,-3.1152,-3.1286,-3.1286,-3.1361,-2.5952,-2.7776,-2.9594,-3.2027,-3.2825,-3.2985,-3.2822,-3.2368,-3.1815,-3.1297,-3.2087,-3.2983,-3.3339,-3.432,-3.5199,-3.5532,-3.5258,-3.4723,-3.3903,-3.3329,-3.2683,-3.184,-3.1683,-3.1597,-3.1511,-3.1511,-3.1511,-3.1511,-3.1511,-3.1511,-3.1511,-3.1824,-3.2153,-3.2497,-3.2542,-3.2542,-3.2512,-3.2168,-3.1854,-3.1511,-3.1854,-3.2019,-3.2034,-3.2721,-3.2662,-3.1989,-3.1645,-3.1511,-3.1511,-3.1511,-3.1511,-3.1511,-3.1511,-3.1511,-3.1511,-3.1511,-3.1511,-3.1511,-3.1511,-3.1511,-3.1511,-3.1511,-3.1511,-3.1511,-3.1511,-3.1511,-3.1511,-3.1511,-3.1511,-3.1511,-3.1511,-3.1511,-3.1511,-3.1511,-3.1511,-3.1511,-3.1511,-3.1511,-3.1511,-3.1511,-3.1511,-3.1511,-3.1511,-3.1511,-3.1511,-3.1511,-3.1511,-3.1511,-3.1511,-3.1511,-3.1511,-3.1511,-3.1511,-3.1511,-3.1511,-3.1511,-3.1511,-3.1511,-3.1511,-3.1511,-3.1511,-3.1511,-3.1511,-3.1511,-3.1511,-3.1511,-3.1511,-3.1511,-3.1511,-3.1511,-3.1511,-3.1511,-2.5566,-2.7868,-3.0179,-3.353,-3.3996,-3.3561,-3.3154,-3.2785,-3.2295,-3.1387,-3.1802,-3.2496,-3.3102,-3.3914,-3.4692,-3.5295,-3.526,-3.489,-3.4186,-3.364,-3.3007,-3.2206,-3.1968,-3.1769,-3.1524,-3.1511,-3.1511,-3.1511,-3.1511,-3.1511,-3.1511,-3.1511,-3.175,-3.2303,-3.1795,-3.1765,-3.2303,-3.178,-3.1511,-3.1511,-3.1511,-3.1511,-3.1525,-3.2064,-3.2019,-3.1511,-3.1511,-3.1511,-3.1511,-3.1511,-3.1511,-3.1511,-3.1511,-3.1511,-3.1511,-3.1511,-3.1511,-3.1511,-3.1511,-3.1511,-3.1511,-3.1511,-3.1511,-3.1511,-3.1511,-3.1511,-3.1511,-3.1511,-3.1511,-3.1511,-3.1511,-3.1511,-3.1511,-3.1511,-3.1511,-3.1511,-3.1511,-3.1511,-3.1511,-3.1511,-3.1511,-3.1511,-3.1511,-3.1511,-3.1511,-3.1511,-3.1511,-3.1511,-3.1511,-3.1511,-3.1511,-3.1511,-3.1511,-3.1511,-3.1511,-3.1511,-3.1511,-3.1511,-3.1511,-3.1511,-3.1511,-3.1511,-3.1511,-3.1511,-3.1511,-3.1511,-3.1511,-3.1511,-3.1511,-3.1511,-3.1511,-3.1511,-2.4879,-2.823,-3.1574,-3.3967,-3.3823,-3.3137,-3.323,-3.2572,-3.1773,0.0,-3.1802,-3.2327,-3.2429,-3.358,-3.4523,-3.4624,-3.5015,-3.5095,-3.4592,-3.4127,-3.3497,-3.2629,-3.2287,-3.1981,-3.1539,-3.1511,-3.1511,-3.1511,-3.1511,-3.1511,-3.1511,-3.1511,-3.154,-3.163,-3.1555,-3.154,-3.163,-3.154,-3.1511,-3.1511,-3.1511,-3.1511,-3.1511,-3.1585,-3.1585,-3.1511,-3.1511,-3.1511,-3.1511,-3.1511,-3.1511,-3.1511,-3.1511,-3.1511,-3.1511,-3.1511,-3.1511,-3.1511,-3.1511,-3.1511,-3.1511,-3.1511,-3.1511,-3.1511,-3.1511,-3.1511,-3.1511,-3.1511,-3.1511,-3.1511,-3.1511,-3.1511,-3.1511,-3.1511,-3.1511,-3.1511,-3.1511,-3.1511,-3.1511,-3.1511,-3.1511,-3.1511,-3.1511,-3.1511,-3.1511,-3.1511,-3.1511,-3.1511,-3.1511,-3.1511,-3.1511,-3.1511,-3.1511,-3.1511,-3.1511,-3.1511,-3.1511,-3.1511,-3.1511,-3.1511,-3.1511,-3.1511,-3.1511,-3.1511,-3.1511,-3.1511,-3.1511,-3.1511,-3.1511,-3.1511,-3.1511,-3.1511,-2.5162,-2.8333,-3.1138,-3.3017,-3.3357,-3.316,-3.291,-3.2371,-3.1766,-3.1308,-3.1464,-3.1819,-3.2226,-3.2835,-3.3546,-3.4353,-3.4644,-3.4772,-3.4871,-3.4456,-3.3806,-3.2922,-3.252,-3.2107,-3.1553,-3.1511,-3.1511,-3.1511,-3.1511,-3.1511,-3.1511,-3.1511,-3.1511,-3.1511,-3.1511,-3.1511,-3.1511,-3.1511,-3.1511,-3.1511,-3.1511,-3.1511,-3.1511,-3.1511,-3.1511,-3.1511,-3.1511,-3.1511,-3.1511,-3.1511,-3.1511,-3.1511,-3.1511,-3.1511,-3.1511,-3.1511,-3.1511,-3.1511,-3.1511,-3.1511,-3.1511,-3.1511,-3.1511,-3.1511,-3.1511,-3.1511,-3.1511,-3.1511,-3.1511,-3.1511,-3.1511,-3.1511,-3.1511,-3.1511,-3.1511,-3.1511,-3.1511,-3.1511,-3.1511,-3.1511,-3.1511,-3.1511,-3.1511,-3.1511,-3.1511,-3.1511,-3.1511,-3.1511,-3.1511,-3.1511,-3.1511,-3.1511,-3.1511,-3.1511,-3.1511,-3.1511,-3.1511,-3.1511,-3.1511,-3.1511,-3.1511,-3.1511,-3.1511,-3.1511,-3.1511,-3.1511,-3.1511,-3.1511,-3.1511,-3.1511,-3.1511,-3.1705,-2.5364,-2.7915,-2.9989,-3.1592,-3.2256,-3.2459,-3.2325,0.0,-3.167,0.0,-3.1249,-3.1382,-3.1921,-3.2175,-3.2666,-3.3766,-3.417,-3.4477,-3.4883,-3.4671,-3.4118,-3.3251,-3.2776,-3.2259,-3.1553,-3.1511,-3.1511,-3.1511,-3.1511,-3.1511,-3.1511,-3.1511,-3.1511,-3.1511,-3.1511,-3.1511,-3.1511,-3.1511,-3.1511,-3.1511,-3.1511,-3.1511,-3.1511,-3.1511,-3.1511,-3.1511,-3.1511,-3.1511,-3.1511,-3.1511,-3.1511,-3.1511,-3.1511,-3.1511,-3.1511,-3.1511,-3.1511,-3.1511,-3.1511,-3.1511,-3.1511,-3.1511,-3.1511,-3.1511,-3.1511,-3.1511,-3.1511,-3.1511,-3.1511,-3.1511,-3.1511,-3.1511,-3.1511,-3.1511,-3.1511,-3.1511,-3.1511,-3.1511,-3.1511,-3.1511,-3.1511,-3.1511,-3.1511,-3.1511,-3.1511,-3.1511,-3.1511,-3.1511,-3.1511,-3.1511,-3.1765,-3.2437,-3.2512,-3.2512,-3.2512,-3.1884,-3.1511,-3.1511,-3.1511,-3.1511,-3.1511,-3.1511,-3.1511,-3.1511,-3.1511,-3.1511,-3.1511,-3.1675,-3.175,-3.1765,-3.1929,-3.2273,-2.4989,-2.6678,-2.8301,-2.9916,-3.0197,-3.0355,0.0,0.0,-3.1202,-3.1439,-3.1387,-3.1291,-3.1261,-3.1836,-3.2327,-3.2395,-3.3575,-3.4506,-3.4535,-3.4731,-3.4554,-3.3675,-3.3093,-3.2449,-3.1582,-3.1511,-3.1511,-3.1511,-3.1511,-3.1511,-3.1511,-3.1511,-3.1511,-3.1511,-3.1511,-3.1511,-3.1511,-3.1511,-3.1511,-3.1511,-3.1511,-3.1511,-3.1511,-3.1511,-3.1511,-3.1511,-3.1511,-3.1511,-3.1511,-3.1511,-3.1511,-3.1511,-3.1511,-3.1511,-3.1511,-3.1511,-3.1511,-3.1511,-3.1511,-3.1511,-3.1511,-3.1511,-3.1511,-3.1511,-3.1511,-3.1511,-3.1511,-3.1511,-3.1511,-3.1511,-3.1511,-3.1511,-3.1511,-3.1511,-3.1511,-3.1511,-3.1511,-3.1511,-3.1511,-3.1511,-3.1511,-3.1511,-3.1511,-3.1511,-3.1511,-3.1511,-3.1511,-3.1511,-3.1511,-3.1511,-3.2467,-3.5026,-3.5295,-3.5295,-3.5295,-3.296,-3.1511,-3.1511,-3.1511,-3.1511,-3.1511,-3.1511,-3.1511,-3.1511,-3.1511,-3.1511,-3.1511,-3.2123,-3.2437,-3.2452,-3.3095,-3.341,-2.2786,-2.4254,-2.5878,-2.7493,-2.8552,-2.9395,-3.0132,-3.0864,-3.1279,-3.0991,-3.1238,-3.1428,-3.1249,-3.141,-3.1752,-3.2226,-3.275,-3.3427,-3.4353,-3.4404,-3.4211,-3.3896,-3.3397,-3.2738,-3.1896,-3.1741,-3.1641,-3.1511,-3.1511,-3.1511,-3.1511,-3.1511,-3.1511,-3.1511,-3.1511,-3.1511,-3.1511,-3.1511,-3.1511,-3.1511,-3.1511,-3.1511,-3.1511,-3.1511,-3.1511,-3.1511,-3.1511,-3.1511,-3.1511,-3.1511,-3.1511,-3.1511,-3.1511,-3.1511,-3.1511,-3.1511,-3.1511,-3.1511,-3.1511,-3.1511,-3.1511,-3.1511,-3.1511,-3.1511,-3.1511,-3.1511,-3.1511,-3.1511,-3.1511,-3.1511,-3.1511,-3.1511,-3.1511,-3.1511,-3.1511,-3.1511,-3.1511,-3.1511,-3.1511,-3.1511,-3.1511,-3.1511,-3.1511,-3.1511,-3.1511,-3.1511,-3.296,-3.4052,-3.4052,-3.4052,-3.4457,-3.5415,-3.5504,-3.5504,-3.5504,-3.4637,-3.4052,-3.4052,-3.4052,-3.3289,-3.157,-3.1511,-3.1511,-3.1511,-3.2049,-3.2273,-3.2123,-3.2363,-3.2736,-3.3155,-3.338,-3.3724,-2.114,-2.2292,-2.3656,-2.4984,-2.6257,-2.7475,-2.8616,-2.9661,-3.0448,-3.0663,-3.0989,-3.125,-3.1198,-3.119,-3.136,-3.1853,-3.2141,-3.2649,-3.363,-3.3918,-3.3978,-3.3836,-3.3604,-3.3113,-3.2274,-3.2038,-3.1798,-3.1524,-3.1511,0.0,-3.1511,-3.1511,-3.1511,-3.1511,-3.1511,-3.1511,-3.1511,-3.1511,-3.1511,-3.1511,-3.1511,-3.1511,-3.1511,-3.1511,-3.1511,-3.1511,-3.1511,-3.1511,-3.1511,-3.1511,-3.1511,-3.1511,-3.1511,-3.1511,-3.1511,-3.1511,-3.1511,-3.1511,-3.1511,-3.1511,-3.1511,-3.1511,-3.1511,-3.1511,-3.1511,-3.1511,-3.1511,-3.1511,-3.1511,-3.1511,-3.1511,-3.1824,-3.2049,-3.1615,-3.1511,-3.1511,-3.1511,-3.1511,-3.1511,-3.1511,-3.1511,-3.1795,-3.2691,-3.2841,-3.2841,-3.2841,-3.4367,-3.5504,-3.5504,-3.5504,-3.5504,-3.5504,-3.5504,-3.5504,-3.5504,-3.5504,-3.5504,-3.5504,-3.5504,-3.4711,-3.2916,-3.2841,-3.2841,-3.2841,-3.3125,-3.3185,-3.308,-3.314,-3.3395,-3.3829,-3.4068,-3.4397,0.0,0.0,0.0,-2.2519,0.0,0.0,-2.6787,0.0,-2.8682,-3.0482,-3.0716,-3.0723,-3.1133,-3.119,-3.119,-3.119,-3.1802,-3.2276,-3.2327,-3.3333,-3.3951,-3.3578,-3.3746,-3.3549,-3.2668,-3.2342,-3.201,-3.1539,-3.1511,-3.1511,-3.1511,-3.1511,-3.1511,-3.1511,-3.1511,-3.1511,-3.1511,-3.1511,-3.1511,-3.1511,-3.1511,-3.1511,-3.1511,-3.1511,-3.1511,-3.1511,-3.1511,-3.1511,-3.1511,-3.1511,-3.1511,-3.1511,-3.1511,-3.1511,-3.1511,-3.1511,-3.1511,-3.1511,-3.1511,-3.1511,-3.1511,-3.1511,-3.1511,-3.1511,-3.1511,-3.1511,-3.1511,-3.1511,-3.1525,-3.154,-3.1555,-3.2512,-3.3185,-3.1869,-3.1555,-3.154,-3.1511,-3.1511,-3.1511,-3.1511,-3.157,-3.2437,-3.5055,-3.5504,-3.5504,-3.5504,-3.5504,-3.5504,-3.5504,-3.5504,-3.5504,-3.5504,-3.5504,-3.5504,-3.5504,-3.5504,-3.5504,-3.5504,-3.5504,-3.5504,-3.5504,-3.5504,-3.5504,-3.5504,-3.4681,-3.4233,-3.4233,-3.4397,-3.4518,-3.4563,-3.519,-3.5504,-1.9073,0.0,0.0,0.0,0.0,0.0,0.0,0.0,-2.7968,-2.9193,-3.0189,-3.0904,-3.1152,-3.119,-3.119,-3.119,-3.136,-3.1867,-3.2949,-3.3211,-3.3562,-3.427,-3.3996,-3.3445,-3.2683,-3.2274,-3.1896,0.0,-3.1511,-3.1511,-3.1511,-3.1511,-3.1511,-3.1511,-3.1511,-3.1511,-3.1511,-3.1511,-3.1511,-3.1511,-3.1511,-3.1511,-3.1511,-3.1511,-3.1511,-3.1511,-3.1511,-3.1511,-3.1511,-3.1511,-3.1511,-3.1511,-3.1511,-3.1511,-3.1511,-3.1511,-3.1511,-3.1511,-3.1511,-3.1511,-3.1511,-3.1511,-3.1511,-3.1511,-3.1511,-3.1511,-3.1511,-3.1511,-3.1959,-3.2527,-3.2871,-3.3469,-3.3829,-3.3125,-3.2676,-3.2273,-3.1645,-3.1511,-3.1511,-3.1511,-3.3065,-3.4637,-3.537,-3.5504,-3.5504,-3.5504,-3.5504,-3.5504,-3.5504,-3.5504,-3.5504,-3.5504,-3.5504,-3.5504,-3.5504,-3.5504,-3.5504,-3.5504,-3.5504,-3.5504,-3.5504,-3.5504,-3.5504,-3.5504,-3.5265,-3.5145,-3.5145,-3.4728,-3.4758,-3.5235,-3.5415,-3.5504,-1.9387,-1.9469,-1.9607,-1.9943,0.0,0.0,-2.324,-2.4722,-2.6258,0.0,-2.8898,-2.9541,-3.0168,-3.0296,-3.0296,-3.0296,-3.0531,-3.1258,-3.273,-3.3244,-3.3645,-3.4138,-3.3956,-3.3471,-3.2683,-3.2302,-3.1925,-3.1524,-3.1511,-3.1511,-3.1511,-3.1511,-3.1511,-3.1511,-3.1511,-3.1511,-3.1511,-3.1511,-3.1511,-3.1511,-3.1511,-3.1511,-3.1511,-3.1511,-3.1511,-3.1511,-3.1511,-3.1511,-3.1511,-3.1511,-3.1511,-3.1511,-3.1511,-3.1511,-3.1511,-3.1511,-3.1511,-3.1511,-3.1511,-3.1511,-3.1511,-3.1511,-3.1511,-3.1511,-3.1511,-3.1511,-3.1511,-3.1511,-3.2662,-3.3977,-3.4262,-3.4532,-3.4681,-3.4397,-3.4143,-3.3783,-3.3274,-3.317,-3.317,-3.317,-3.4442,-3.5504,-3.5504,-3.5504,-3.5504,-3.5504,-3.5504,-3.5504,-3.5504,-3.5504,-3.5504,-3.5504,-3.5504,-3.5504,-3.5504,-3.5504,-3.5504,-3.5504,-3.5504,-3.5504,-3.5504,-3.5504,-3.5504,-3.5504,-3.5504,-3.5504,-3.5504,-3.51,-3.5115,-3.5504,-3.5504,-3.5504,-2.0702,-2.0732,-2.0632,-2.0121,-2.051,0.0,-2.2259,-2.2855,-2.3963,0.0,-2.7055,-2.7308,-2.8522,-2.8739,-2.8739,-2.8739,-2.9431,-3.0514,-3.209,-3.3282,-3.3901,-3.366,-3.3778,-3.3549,-3.2668,-3.2342,-3.1994,-3.1524,-3.1511,-3.1511,-3.1511,-3.1511,-3.1511,-3.1511,-3.1511,-3.1511,-3.1511,-3.1511,-3.1511,-3.1511,-3.1511,-3.1511,-3.1511,-3.1511,-3.1511,-3.1511,-3.1511,-3.1511,-3.1511,-3.1511,-3.1511,-3.1511,-3.1511,-3.1511,-3.1511,-3.1511,-3.1511,-3.1511,-3.1511,-3.1511,-3.1511,-3.1511,-3.1511,-3.1511,-3.1511,-3.1511,-3.1525,-3.1585,-3.3319,-3.5205,-3.5325,-3.537,-3.5385,-3.5489,-3.5504,-3.5504,-3.5504,-3.5504,-3.5504,-3.5504,-3.5504,-3.5504,-3.5504,-3.5504,-3.5504,-3.5504,-3.5504,-3.5504,-3.5504,-3.5504,-3.5504,-3.5504,-3.5504,-3.5504,-3.5504,-3.5504,-3.5504,-3.5504,-3.5504,-3.5504,-3.5504,-3.5504,-3.5504,-3.5504,-3.5504,-3.5504,-3.5504,-3.5504,-3.5504,-3.5504,-3.5504,-3.5504,-2.1949,-2.1583,-2.1181,-2.1164,-2.0493,0.0,-2.1032,-2.1292,-2.1954,0.0,-2.5014,-2.5716,-2.6928,-2.7148,-2.7148,-2.7148,-2.8316,-2.9941,-3.2005,-3.2824,-3.3528,-3.4376,-3.4045,-3.3445,-3.2668,-3.2274,-3.1896,-3.1539,-3.1511,-3.1511,-3.1511,-3.1511,-3.1511,-3.1511,-3.1511,-3.1511,-3.1511,-3.1511,-3.1511,-3.1511,-3.1511,-3.1511,-3.1511,-3.1511,-3.1511,-3.1511,-3.1511,-3.1511,-3.1511,-3.1511,-3.1511,-3.1511,-3.1511,-3.1511,-3.1511,-3.1511,-3.1511,-3.1511,-3.1511,-3.1511,-3.1511,-3.1511,-3.1511,-3.1511,-3.1511,-3.1511,-3.1615,-3.2138,-3.2691,-3.3305,-3.4218,-3.4457,-3.4637,-3.534,-3.5504,-3.5504,-3.5504,-3.5504,-3.5504,-3.5504,-3.5504,-3.5504,-3.5504,-3.5504,-3.5504,-3.5504,-3.5504,-3.5504,-3.5504,-3.5504,-3.5504,-3.5504,-3.5504,-3.5504,-3.5504,-3.5504,-3.5504,-3.5504,-3.5504,-3.5504,-3.5504,-3.5504,-3.5504,-3.5504,-3.5504,-3.5504,-3.5504,-3.5504,-3.5504,-3.5504,-3.5504,-3.5504,-2.3393,-2.2906,-2.2324,-2.2077,0.0,0.0,0.0,-2.122,-2.1647,-2.3432,-2.4013,-2.4484,-2.5437,-2.5608,-2.5608,-2.5608,-2.6877,-2.8366,-2.9854,-3.1442,-3.2723,-3.3456,-3.3332,-3.2889,-3.2071,-3.206,-3.1925,-3.1524,-3.1511,-3.1511,-3.1511,-3.1511,-3.1511,-3.1511,-3.1511,-3.1511,-3.1511,-3.1511,-3.1511,-3.1511,-3.1511,-3.1511,-3.1511,-3.1511,-3.1511,-3.1511,-3.1511,-3.1511,-3.1511,-3.1511,-3.1511,-3.1511,-3.1511,-3.1511,-3.1511,-3.1511,-3.1511,-3.1511,-3.1511,-3.1511,-3.1511,-3.1511,-3.1511,-3.1511,-3.1511,-3.1511,-3.157,-3.1914,-3.2228,-3.2632,-3.3319,-3.4188,-3.4966,-3.54,-3.5504,-3.5504,-3.5504,-3.5504,-3.5504,-3.5504,-3.5504,-3.5504,-3.5504,-3.5504,-3.5504,-3.5504,-3.5504,-3.5504,-3.5504,-3.5504,-3.5504,-3.5504,-3.5504,-3.5504,-3.5504,-3.5504,-3.5504,-3.5504,-3.5504,-3.5504,-3.5504,-3.5504,-3.5504,-3.5504,-3.5504,-3.5504,-3.5504,-3.5504,-3.5504,-3.5504,-3.5504,-3.5504,-2.4914,-2.442,-2.3733,-2.3053,0.0,-2.1653,0.0,0.0,0.0,-2.2946,-2.3124,0.0,0.0,0.0,0.0,0.0,0.0,0.0,0.0,-2.9311,0.0,-3.2166,-3.2324,-3.213,-3.1539,-3.1707,-3.1667,-3.1165,-3.1241,-3.1316,-3.1316,-3.1436,-3.1511,-3.1511,-3.1511,-3.1511,-3.1511,-3.1511,-3.1511,-3.1511,-3.1511,-3.1511,-3.1511,-3.1511,-3.1511,-3.1511,-3.1511,-3.1511,-3.1511,-3.1511,-3.1511,-3.1511,-3.1511,-3.1511,-3.1511,-3.1511,-3.1511,-3.1511,-3.1511,-3.1511,-3.1511,-3.1511,-3.1511,-3.1511,-3.1511,-3.1511,-3.1511,-3.1511,-3.1884,-3.2333,-3.2512,-3.3618,-3.4876,-3.5385,-3.5504,-3.5504,-3.5504,-3.5504,-3.5504,-3.5504,-3.5504,-3.5504,-3.5504,-3.5504,-3.5504,-3.5504,-3.5504,-3.5504,-3.5504,-3.5504,-3.5504,-3.5504,-3.5504,-3.5504,-3.5504,-3.5504,-3.5504,-3.5504,-3.5504,-3.5504,-3.5504,-3.5504,-3.5504,-3.5504,-3.5504,-3.5504,-3.5504,-3.5504,-3.5504,-3.5504,-3.5504,-3.5504,0.0,0.0,0.0,0.0,-2.3233,0.0,0.0,0.0,-2.0408,-2.1298,0.0,0.0,0.0,0.0,0.0,0.0,0.0,0.0,-2.4778,-2.6269,-2.8404,-3.1406,-3.1434,-3.1349,-3.1794,-3.1158,-3.0443,-2.9876,-3.0313,-3.0612,-3.0612,-3.1182,-3.1511,-3.1511,-3.1511,-3.1511,-3.1511,-3.1511,-3.1511,-3.1511,-3.1511,-3.1511,-3.1511,-3.1511,-3.1511,-3.1511,-3.1511,-3.1511,-3.1511,-3.1511,-3.1511,-3.1511,-3.1511,-3.1511,-3.1511,-3.1511,-3.1511,-3.1511,-3.1511,-3.1511,-3.1511,-3.1511,-3.1511,-3.1511,-3.1511,-3.1511,-3.1511,-3.1511,-3.1555,-3.163,-3.1645,-3.1809,-3.2542,-3.4936,-3.5504,-3.5504,-3.5504,-3.5504,-3.5504,-3.5504,-3.5504,-3.5504,-3.5504,-3.5504,-3.5504,-3.5504,-3.5504,-3.5504,-3.5504,-3.5504,-3.5504,-3.5504,-3.5504,-3.5504,-3.5504,-3.5504,-3.5504,-3.5504,-3.5504,-3.5504,-3.5504,-3.5504,-3.5504,-3.5504,-3.5504,-3.5504,-3.5504,-3.5504,-3.5504,-3.5504,-3.5504,-3.5504,0.0,0.0,0.0,0.0,0.0,0.0,-2.2006,0.0,-2.1552,0.0,0.0,0.0,0.0,0.0,0.0,0.0,-2.319,0.0,0.0,0.0,-2.6421,0.0,0.0,0.0,-3.066,-2.9535,-2.8861,-2.9011,-2.925,-2.9714,-3.0462,-3.1137,-3.1511,-3.1511,-3.1511,-3.1511,-3.1511,-3.1511,-3.1511,-3.1511,-3.1511,-3.1511,-3.1511,-3.1511,-3.1511,-3.1511,-3.1511,-3.1511,-3.1511,-3.1511,-3.1511,-3.1511,-3.1511,-3.1511,-3.1511,-3.1511,-3.1511,-3.1511,-3.1511,-3.1511,-3.1511,-3.1511,-3.1511,-3.1511,-3.1511,-3.1511,-3.1511,-3.1511,-3.1511,-3.1511,-3.1511,-3.1511,-3.178,-3.2901,-3.317,-3.317,-3.317,-3.4412,-3.5504,-3.5504,-3.5504,-3.5504,-3.5504,-3.5504,-3.5504,-3.5504,-3.5504,-3.5504,-3.5504,-3.5504,-3.5504,-3.5504,-3.5504,-3.5504,-3.5504,-3.5504,-3.5504,-3.5504,-3.5504,-3.5504,-3.5504,-3.5504,-3.5504,-3.5504,-3.5504,-3.5504,-3.5504,-3.5504,-3.5504,-3.5504,-3.5504,-3.5504,-2.8993,0.0,0.0,0.0,0.0,0.0,0.0,0.0,0.0,0.0,0.0,0.0,0.0,0.0,0.0,0.0,0.0,-2.3325,0.0,-2.3729,0.0,0.0,0.0,0.0,0.0,-2.8232,-2.781,-2.8075,-2.8244,-2.8891,-3.0178,-3.0853,-3.1316,-3.1496,-3.1511,-3.1511,-3.1511,-3.1511,-3.1511,-3.1511,-3.1511,-3.1511,-3.1511,-3.1511,-3.1511,-3.1511,-3.1511,-3.1511,-3.1511,-3.1511,-3.1511,-3.1511,-3.1511,-3.1511,-3.1511,-3.1511,-3.1511,-3.1511,-3.1511,-3.1511,-3.1511,-3.1511,-3.1511,-3.1511,-3.1511,-3.1511,-3.1511,-3.1511,-3.1511,-3.1511,-3.1511,-3.1511,-3.1511,-3.1511,-3.1511,-3.1511,-3.1511,-3.3603,-3.5504,-3.5504,-3.5504,-3.5504,-3.5504,-3.5504,-3.5504,-3.5504,-3.5504,-3.5504,-3.5504,-3.5504,-3.5504,-3.5504,-3.5504,-3.5504,-3.5504,-3.5504,-3.5504,-3.5504,-3.5504,-3.5504,-3.5504,-3.5504,-3.5504,-3.5504,-3.5504,-3.5504,-3.5504,-3.5504,-3.5504,-3.5504,-3.5504,-3.5504,0.0,0.0,0.0,-2.5947,0.0,0.0,0.0,0.0,-2.3359,0.0,0.0,0.0,0.0,0.0,0.0,0.0,0.0,0.0,0.0,0.0,0.0,0.0,0.0,0.0,0.0,-2.7635,-2.7673,0.0,-2.7345,-2.8229,-2.9562,-3.0193,-3.0823,-3.1481,-3.1511,-3.1511,-3.1511,-3.1511,-3.1511,-3.1511,-3.1511,-3.1511,-3.1511,-3.1511,-3.1511,-3.1511,-3.1511,-3.1511,-3.1511,-3.1511,-3.1511,-3.1511,-3.1511,-3.1511,-3.1511,-3.1511,-3.1511,-3.1511,-3.1511,-3.1511,-3.1511,-3.1511,-3.1511,-3.1511,-3.1511,-3.1511,-3.1511,-3.1511,-3.1511,-3.1511,-3.1511,-3.1511,-3.1511,-3.1511,-3.1511,-3.1511,-3.1511,-3.3603,-3.5504,-3.5504,-3.5504,-3.5504,-3.5504,-3.5504,-3.5504,-3.5504,-3.5504,-3.5504,-3.5504,-3.5504,-3.5504,-3.5504,-3.5504,-3.5504,-3.5504,-3.5504,-3.5504,-3.5504,-3.5504,-3.5504,-3.5504,-3.5504,-3.5504,-3.5504,-3.5504,-3.5504,-3.5504,-3.5504,-3.5504,-3.5504,-3.5504,-3.5504,0.0,0.0,-2.8956,-2.7435,0.0,0.0,0.0,0.0,0.0,0.0,0.0,0.0,0.0,0.0,0.0,0.0,0.0,0.0,0.0,0.0,0.0,0.0,0.0,0.0,0.0,0.0,0.0,-2.629,-2.6305,0.0,-2.8831,-2.9939,-3.0612,-3.0823,-3.1271,-3.1511,-3.1511,-3.1511,-3.1511,-3.1511,-3.1511,-3.1511,-3.1511,-3.1511,-3.1511,-3.1511,-3.1511,-3.1511,-3.1511,-3.1511,-3.1511,-3.1511,-3.1511,-3.1511,-3.1511,-3.1511,-3.1511,-3.1511,-3.1511,-3.1511,-3.1511,-3.1511,-3.1511,-3.1511,-3.1511,-3.1511,-3.1511,-3.1511,-3.1511,-3.1511,-3.1511,-3.1511,-3.1511,-3.1511,-3.1511,-3.1511,-3.1511,-3.3603,-3.5504,-3.5504,-3.5504,-3.5504,-3.5504,-3.5504,-3.5504,-3.5504,-3.5504,-3.5504,-3.5504,-3.5504,-3.5504,-3.5504,-3.5504,-3.5504,-3.5504,-3.5504,-3.5504,-3.5504,-3.5504,-3.5504,-3.5504,-3.5504,-3.5504,-3.5504,-3.5504,-3.5504,-3.5504,-3.5504,-3.5504,-3.5504,-3.5504,-3.5504,-3.119,-3.0666,0.0,-2.8534,-2.7655,0.0,-2.522,0.0,-2.593,0.0,0.0,0.0,0.0,0.0,0.0,0.0,0.0,0.0,0.0,-2.253,0.0,0.0,0.0,0.0,0.0,0.0,-2.4864,-2.5746,-2.5447,0.0,0.0,-2.925,-3.0043,-3.0492,-3.1152,-3.1511,-3.1511,-3.1511,-3.1511,-3.1511,-3.1511,-3.1511,-3.1511,-3.1511,-3.1511,-3.1511,-3.1511,-3.1511,-3.1511,-3.1511,-3.1511,-3.1511,-3.1511,-3.1511,-3.1511,-3.1511,-3.1511,-3.1511,-3.1511,-3.1511,-3.1511,-3.1511,-3.1511,-3.1511,-3.1511,-3.1511,-3.1511,-3.1511,-3.1511,-3.1511,-3.1511,-3.1511,-3.163,-3.2093,-3.2198,-3.2333,-3.2811,-3.4292,-3.5504,-3.5504,-3.5504,-3.5504,-3.5504,-3.5504,-3.5504,-3.5504,-3.5504,-3.5504,-3.5504,-3.5504,-3.5504,-3.5504,-3.5504,-3.5504,-3.5504,-3.5504,-3.5504,-3.5504,-3.5504,-3.5504,-3.5504,-3.5504,-3.5504,-3.5504,-3.5504,-3.5504,-3.5504,-3.5504,-3.5504,-3.5504,-3.5504,-3.5504]},{"header":{"parameterUnit":"m.s-1","parameterCategory":1,"la1":30.6,"la2":29.2853,"lo1":-89.7004,"lo2":-87.6739,"dy":0.0162,"dx":0.0183,"nx":112,"ny":82,"refTime":"2026-05-19T12:00:00:Z","depth":0,"parameterNumber":3,"parameterNumberName":"V-component_of_WINDS"},"data":[0.0,0.0,0.0,0.0,0.0,0.0,0.0,0.0,0.0,0.0,0.0,0.0,0.0,0.0,0.0,0.0,0.0,0.0,0.0,0.0,0.0,0.0,0.0,0.0,0.0,0.0,0.0,0.0,0.0,0.0,0.0,0.0,0.0,0.0,0.0,0.0,0.0,0.0,0.0,0.0,0.0,0.0,0.0,0.0,0.0,0.0,0.0,0.0,0.0,0.0,0.0,0.0,0.0,0.0,0.0,0.0,0.0,0.0,0.0,0.0,0.0,0.0,0.0,0.0,0.0,0.0,0.0,0.0,0.0,0.0,0.0,0.0,0.0,0.0,0.0,0.0,0.0,0.0,0.0,0.0,0.0,0.0,0.0,0.0,0.0,0.0,0.0,0.0,0.0,0.0,0.601,0.6893,0.6995,0.6807,0.6389,0.566,0.5054,0.4617,0.0,0.0,0.0,0.0,0.0,0.0,0.0,0.0,0.0,0.0,0.0,0.0,0.0,0.0,0.0,0.0,0.0,0.0,0.0,0.0,0.0,0.0,0.0,0.0,0.0,0.0,0.0,0.0,0.0,0.0,0.0,0.0,0.0,0.0,0.0,0.0,0.0,0.0,0.0,0.0,0.0,0.0,0.0,0.0,0.0,0.0,0.0,0.0,0.0,0.0,0.0,0.0,0.0,0.0,0.0,0.0,0.0,0.0,0.0,0.0,0.0,0.0,0.0,0.0,0.0,0.0,0.0,0.0,0.0,0.0,0.0,0.0,0.0,0.0,0.0,0.0,0.0,0.0,0.0,0.0,0.0,0.0,0.0,0.0,0.0,0.0,0.0,0.0,0.0,0.0,0.0,0.0,0.0,0.0,0.0,0.0,0.0,0.0,0.0,0.0,0.0,0.0,0.0,0.0,0.6359,0.7387,0.7563,0.7584,0.7375,0.6875,0.6434,0.6022,0.0,0.0,0.0,0.0,0.0,0.0,0.0,0.0,0.0,0.0,0.0,0.0,0.0,0.0,0.0,0.0,0.0,0.0,0.0,0.0,0.0,0.0,0.0,0.0,0.0,0.0,0.0,0.0,0.0,0.0,0.0,0.0,0.0,0.0,0.0,0.0,0.0,0.0,0.0,0.0,0.0,0.0,0.0,0.0,0.0,0.0,0.0,0.0,0.0,0.0,0.0,0.0,0.0,0.0,0.0,0.0,0.0,0.0,0.0,0.0,0.0,0.0,0.0,0.0,0.0,0.0,0.0,0.0,0.0,0.0,0.0,0.0,0.0,0.0,0.0,0.0,0.0,0.0,0.0,0.0,0.0,0.0,0.0,0.0,0.0,0.0,0.0,0.0,0.0,0.0,0.0,0.0,0.0,0.0,0.0,0.0,0.0,0.0,0.0,0.0,0.0,0.0,0.0,0.6023,0.6763,0.7407,0.7607,0.7604,0.737,0.7017,0.658,0.6044,0.4826,0.0,0.0,0.0,0.0,0.0,0.0,0.0,0.0,0.0,0.0,0.0,0.0,0.0,0.0,0.0,0.0,0.0,0.0,0.0,0.0,0.0,0.0,0.0,0.0,0.0,0.0,0.0,0.0,0.0,0.0,0.0,0.0,0.0,0.0,0.0,0.0,0.0,0.0,0.0,0.0,0.0,0.0,0.0,0.0,0.0,0.0,0.0,0.0,0.0,0.0,0.0,0.0,0.0,0.0,0.0,0.0,0.0,0.0,0.0,0.0,0.0,0.0,0.0,0.0,0.0,0.0,0.0,0.0,0.0,0.0,0.0,0.0,0.0,0.0,0.0,0.0,0.0,0.0,0.0,0.0,0.0,0.0,0.0,0.0,0.0,0.0,0.0,0.0,0.0,0.0,0.0,0.0,0.0,0.0,0.0,0.0,0.0,0.0,0.0,0.0,0.0,0.0,0.6515,0.7041,0.7385,0.7478,0.7421,0.7071,0.6787,0.6339,0.5735,0.503,0.0,0.0,0.0,0.0,0.0,0.0,0.0,0.0,0.0,0.0,0.0,0.0,0.0,0.0,0.0,0.0,0.0,0.0,0.0,0.0,0.0,0.0,0.0,0.0,0.0,0.0,0.0,0.0,0.0,0.0,0.0,0.0,0.0,0.0,0.0,0.0,0.0,0.0,0.0,0.0,0.0,0.0,0.0,0.0,0.0,0.0,0.0,0.0,0.0,0.0,0.0,0.0,0.0,0.0,0.0,0.0,0.0,0.0,0.0,0.0,0.0,0.0,0.0,0.0,0.0,0.0,0.0,0.0,0.0,0.0,0.0,0.0,0.0,0.0,0.0,0.0,0.0,0.0,0.0,0.0,0.0,0.0,0.0,0.0,0.0,0.0,0.0,0.0,0.0,0.0,0.0,0.0,0.0,0.0,0.0,0.0,0.0,0.0,0.0,0.0,0.0,0.0,0.6515,0.7041,0.7385,0.7426,0.7268,0.6927,0.6542,0.6071,0.5463,0.4846,0.0,0.0,0.0,0.0,0.0,0.0,0.0,0.0,0.0,0.0,0.0,0.0,0.0,0.0,0.0,0.0,0.0,0.0,0.0,0.0,0.0,0.0,0.0,0.0,0.0,0.0,0.0,0.0,0.0,0.0,0.0,0.0,0.0,0.0,0.0,0.0,0.0,0.0,0.0,0.0,0.0,0.0,0.0,0.0,0.0,0.0,0.0,0.0,0.0,0.0,0.0,0.0,0.0,0.0,0.0,0.0,0.0,0.0,0.0,0.0,0.0,0.0,0.0,0.0,0.0,0.0,0.0,0.0,0.0,0.0,0.0,0.0,0.0,0.0,0.0,0.0,0.0,0.0,0.0,0.0,0.0,0.0,0.0,0.0,0.0,0.0,0.0,0.0,0.0,0.0,0.0,0.0,0.0,0.0,0.0,0.0,0.0,0.0,0.0,0.0,0.0,0.0,0.7162,0.7662,0.0,0.8055,0.7941,0.742,0.7064,0.6467,0.5596,0.0,0.0,0.0,0.0,0.0,0.0,0.0,0.0,0.0,0.0,0.0,0.0,0.0,0.0,0.0,0.0,0.0,0.0,0.0,0.0,0.0,0.0,0.0,0.0,0.0,0.0,0.0,0.0,0.0,0.0,0.0,0.0,0.0,0.0,0.0,0.0,0.0,0.0,0.0,0.0,0.0,0.0,0.0,0.0,0.0,0.0,0.0,0.0,0.0,0.0,0.0,0.0,0.0,0.0,0.0,0.0,0.0,0.0,0.0,0.0,0.0,0.0,0.0,0.0,0.0,0.0,0.0,0.0,0.0,0.0,0.0,0.0,0.0,0.0,0.0,0.0,0.0,0.0,0.0,0.0,0.0,0.0,0.0,0.0,0.0,0.0,0.0,0.0,0.0,0.0,0.0,0.0,0.0,0.0,0.0,0.0,0.0,0.0,0.0,0.0,0.0,0.0,0.7225,0.8064,0.863,0.0,0.8948,0.8872,0.826,0.786,0.7186,0.6137,0.0,0.0,0.0,0.0,0.0,0.0,0.0,0.0,0.0,0.0,0.0,0.0,0.0,0.0,0.0,0.0,0.0,0.0,0.0,0.0,0.0,0.0,0.0,0.0,0.0,0.0,0.0,0.0,0.0,0.0,0.0,0.0,0.0,0.0,0.0,0.0,0.0,0.0,0.0,0.0,0.0,0.0,0.0,0.0,0.0,0.0,0.0,0.0,0.0,0.0,0.0,0.0,0.0,0.0,0.0,0.0,0.0,0.0,0.0,0.0,0.0,0.0,0.0,0.0,0.0,0.0,0.0,0.0,0.0,0.0,0.0,0.0,0.0,0.0,0.0,0.0,0.0,0.0,0.0,0.0,0.0,0.0,0.0,0.0,0.0,0.0,0.0,0.0,0.0,0.0,0.0,0.0,0.0,0.0,0.0,0.0,0.0,0.0,0.0,0.0,0.0,0.0,0.8143,0.9218,0.9852,0.9741,1.0022,0.9973,0.9352,0.8887,0.8178,0.0,0.0,0.0,0.0,0.0,0.0,0.0,0.0,0.0,0.0,0.0,0.0,0.0,0.0,0.0,0.0,0.0,0.0,0.0,0.0,0.0,0.0,0.0,0.0,0.0,0.0,0.0,0.0,0.0,0.0,0.0,0.0,0.0,0.0,0.0,0.0,0.0,0.0,0.0,0.0,0.0,0.0,0.0,0.0,0.0,0.0,0.0,0.0,0.0,0.0,0.0,0.0,0.0,0.0,0.0,0.0,0.0,0.0,0.0,0.0,0.0,0.0,0.0,0.0,0.0,0.0,0.0,0.0,0.0,0.0,0.0,0.0,0.0,0.0,0.0,0.0,0.0,0.0,0.0,0.0,0.0,0.0,0.0,0.0,0.0,0.0,0.0,0.0,0.0,0.0,0.0,0.0,0.0,0.0,0.0,0.0,0.0,0.0,0.0,0.0,0.0,0.0,0.0,0.8646,0.9625,1.0324,1.0454,1.0694,1.0552,0.9907,0.9592,0.8783,0.7258,0.0,0.0,0.0,0.0,0.0,0.0,0.0,0.0,0.0,0.0,0.0,0.0,0.0,0.0,0.0,0.0,0.0,0.0,0.0,0.0,0.0,0.0,0.0,0.0,0.0,0.0,0.0,0.0,0.0,0.0,0.0,0.0,0.0,0.0,0.0,0.0,0.0,0.0,0.0,0.0,0.0,0.0,0.0,0.0,0.0,0.0,0.0,0.0,0.0,0.0,0.0,0.0,0.0,0.0,0.0,0.0,0.0,0.0,0.0,0.0,0.0,0.0,0.0,0.0,0.0,0.0,0.0,0.0,0.0,0.0,0.0,0.0,0.0,0.0,0.0,0.0,0.0,0.0,0.0,0.0,0.0,0.0,0.0,0.0,0.0,0.0,0.0,0.0,0.0,0.0,0.0,0.0,0.0,0.0,0.0,0.0,0.0,0.0,0.0,0.0,0.0,0.0,0.9486,1.0524,1.1203,1.1361,1.1524,1.1353,1.0876,1.0479,0.9647,0.8145,0.0,0.0,0.0,0.0,0.0,0.0,0.0,0.0,0.0,0.0,0.0,0.0,0.0,0.0,0.0,0.0,0.0,0.0,0.0,0.0,0.0,0.0,0.0,0.0,0.0,0.0,0.0,0.0,0.0,0.0,0.0,0.0,0.0,0.0,0.0,0.0,0.0,0.0,0.0,0.0,0.0,0.0,0.0,0.0,0.0,0.0,0.0,0.0,0.0,0.0,0.0,0.0,0.0,0.0,0.0,0.0,0.0,0.0,0.0,0.0,0.0,0.0,0.0,0.0,0.0,0.0,0.0,0.0,0.0,0.0,0.0,0.0,0.0,0.0,0.0,0.0,0.0,0.0,0.0,0.0,0.0,0.0,0.0,0.0,0.0,0.0,0.0,0.0,0.0,0.0,0.0,0.0,0.0,0.0,0.0,0.0,0.0,0.0,0.0,0.0,0.0,0.0,1.0392,1.149,1.2191,1.2218,1.2225,1.2104,1.1852,1.1296,1.0506,0.9366,0.0,0.0,0.0,0.0,0.0,0.0,0.0,0.0,0.0,0.0,0.0,0.0,0.0,0.0,0.0,0.0,0.0,0.0,0.0,0.0,0.0,0.0,0.0,0.0,0.0,0.0,0.0,0.0,0.0,0.0,0.0,0.0,0.0,0.0,0.0,0.0,0.0,0.0,0.0,0.0,0.0,0.0,0.0,0.0,0.0,0.0,0.0,0.0,0.0,0.0,0.0,0.0,0.0,0.0,0.0,0.0,0.0,0.0,0.0,0.0,1.332,0.0,0.0,0.0,0.0,0.0,0.0,0.0,0.0,0.0,0.0,0.0,0.0,0.0,0.0,0.0,0.0,0.0,0.0,0.0,0.0,0.0,0.0,0.0,0.0,0.0,0.0,0.0,0.0,0.0,0.0,0.0,0.0,0.0,0.0,0.0,0.0,0.0,0.0,0.0,0.0,0.0,1.0027,1.0828,1.1363,1.159,1.1575,1.1496,1.1202,1.1062,1.0483,0.9223,0.8339,0.0,0.0,0.0,0.0,0.0,0.0,0.0,0.0,0.0,0.0,0.0,0.0,0.0,0.0,0.0,0.0,0.0,0.0,0.0,0.0,0.0,0.0,0.0,0.0,0.0,0.0,0.0,0.0,0.0,0.0,0.0,0.0,0.0,0.0,0.0,0.0,0.0,0.0,0.0,0.0,0.0,0.0,0.0,0.0,0.0,0.0,0.0,0.0,0.0,0.0,0.0,0.0,0.0,0.0,0.0,0.0,0.0,0.0,0.0,0.0,1.4179,0.0,0.0,0.0,0.0,0.0,0.0,0.0,0.0,0.0,0.0,0.0,0.0,0.0,0.0,0.0,0.0,0.0,0.0,0.0,0.0,0.0,0.0,0.0,0.0,0.0,0.0,0.0,0.0,0.0,0.0,0.0,0.0,0.0,0.0,0.0,0.0,0.0,0.0,0.0,0.0,0.9947,1.0628,1.1102,1.1362,1.1262,1.1156,1.1009,1.0868,1.0341,0.9215,0.8659,0.0,0.0,0.0,0.0,0.0,0.0,0.0,0.0,0.0,0.0,0.0,0.0,0.0,0.0,0.0,0.0,0.0,0.0,0.0,0.0,0.0,0.0,0.0,0.0,0.0,0.0,0.0,0.0,0.0,0.0,0.0,0.0,0.0,0.0,0.0,0.0,0.0,0.0,0.0,0.0,0.0,0.0,0.0,0.0,0.0,0.0,0.0,0.0,0.0,0.0,0.0,0.0,0.0,1.7905,1.8125,1.8447,1.8379,1.834,1.8262,1.6748,1.5897,1.5515,1.4697,0.0,0.0,0.0,0.0,0.0,0.0,0.0,0.0,0.0,0.0,0.0,0.0,0.0,0.0,0.0,0.0,0.0,0.0,0.0,0.0,0.0,0.0,0.0,0.0,1.4147,1.3759,1.2361,0.0,0.0,0.0,0.0,0.0,0.0,0.0,0.0,0.0,0.0,0.0,0.993,1.0586,1.1009,1.1249,1.1062,1.0928,1.0874,1.071,1.0218,0.9375,0.9072,0.8595,0.0,0.0,0.0,0.0,0.0,0.0,0.0,0.0,0.0,0.0,0.0,0.0,0.0,0.0,0.0,0.0,0.0,0.0,0.0,0.0,0.0,0.0,0.0,0.0,0.0,0.0,0.0,0.0,0.0,0.0,0.0,0.0,1.4669,1.478,0.0,0.0,0.0,0.0,0.0,0.0,0.0,0.0,0.0,0.0,0.0,0.0,0.0,1.7324,1.7744,1.8486,1.8952,1.9043,1.9822,2.0214,2.0253,1.9834,1.9658,1.9629,1.9033,0.0,1.7109,1.697,0.0,0.0,0.0,0.0,0.0,0.0,0.0,0.0,0.0,0.0,0.0,0.0,0.0,0.0,0.0,0.0,0.0,0.0,0.0,0.0,0.0,0.0,1.6355,1.6297,1.6287,1.6133,0.0,1.396,1.2334,1.1392,1.0618,0.0,0.0,0.0,0.0,0.0,0.0,0.0,0.9814,1.0346,1.0667,1.0707,1.0673,1.0571,1.0401,1.0461,1.0307,0.9846,0.9611,0.9329,0.898,0.8383,0.0,0.0,0.0,0.0,0.0,0.0,0.0,0.0,0.0,0.0,0.0,0.0,0.0,0.0,0.0,0.0,0.0,0.0,0.0,0.0,0.0,0.0,0.0,0.0,0.0,0.0,0.0,0.0,0.0,1.5512,1.6269,1.6775,1.6892,1.6641,0.0,0.0,0.0,0.0,0.0,0.0,0.0,0.0,0.0,1.8144,1.8584,1.9131,1.9777,2.0195,2.0508,2.0752,2.1163,2.1349,2.1339,2.1113,2.1025,2.0996,2.0566,1.9922,1.9147,1.8389,1.7715,1.707,0.0,0.0,0.0,0.0,1.6152,1.6553,1.6787,1.6875,1.6807,1.6387,0.0,0.0,0.0,0.0,0.0,0.0,0.0,0.0,0.0,0.0,1.736,1.7158,1.71,1.6904,1.6242,1.5369,1.4383,0.0,1.2509,1.1657,1.0469,0.0,0.0,0.0,0.0,0.9739,1.008,1.025,1.0314,1.0314,1.0198,1.0133,1.0168,1.0441,1.053,1.0364,1.0485,1.0342,0.9906,0.9589,0.9118,0.0,0.0,0.0,0.0,0.0,0.0,0.0,0.0,0.0,0.0,0.0,0.0,0.0,0.0,0.0,0.0,0.0,0.0,0.0,0.0,0.0,0.0,0.0,0.0,0.0,0.0,0.0,0.0,1.701,1.7918,1.8731,1.8947,1.869,0.0,0.0,0.0,0.0,0.0,0.0,1.7988,1.8437,1.9004,1.9766,2.0088,2.0586,2.1356,2.1463,2.1728,2.2041,2.2158,2.2207,2.2207,2.21,2.2041,2.2012,2.1434,2.1045,2.0644,1.9453,1.8721,1.8262,1.7477,1.7252,1.734,1.7223,1.749,1.791,1.8232,1.834,1.8281,1.7969,1.7432,1.667,1.5478,0.0,0.0,0.0,0.0,1.6437,1.721,1.7617,1.7803,1.7598,1.7539,1.7334,1.6594,1.6339,1.5917,0.0,1.396,1.3212,1.2148,0.0,0.0,0.0,0.0,1.0665,1.0689,1.0473,1.0325,1.0325,1.006,0.9992,1.0215,1.0596,1.0808,1.0844,1.1216,1.12,1.0751,1.0624,1.0237,0.9486,0.0,0.0,0.0,0.0,0.0,0.0,0.0,0.0,0.0,0.0,0.0,0.0,0.0,0.0,0.0,0.0,0.0,0.0,0.0,0.0,0.0,0.0,0.0,0.0,0.0,0.0,0.0,0.0,0.0,2.0632,2.1043,0.0,0.0,0.0,0.0,1.8834,1.9039,1.9316,1.9766,2.0205,2.0654,2.1083,2.1112,2.1387,2.1846,2.2246,2.2461,2.248,2.2838,2.3033,2.3023,2.2656,2.248,2.2432,2.1551,2.1181,2.1093,2.0186,1.96,1.918,1.8685,1.8789,1.9111,1.8656,1.8818,1.9199,1.9219,1.9219,1.9219,1.9199,1.8359,1.721,1.631,1.5997,0.0,0.0,1.6357,1.6775,1.7266,1.7435,1.751,1.7891,1.7978,1.7852,1.7445,1.6992,1.6257,0.0,1.4364,1.3848,1.2911,0.0,1.2226,1.1939,1.1753,1.1647,1.1713,1.1264,1.0943,1.0943,1.0675,1.0513,1.0662,1.0922,1.1117,1.1268,1.1529,1.1662,1.1642,1.127,1.1039,1.1001,0.9932,0.0,0.0,0.0,0.0,0.0,0.0,0.0,0.0,0.0,0.0,0.0,0.0,0.0,0.0,0.0,0.0,0.0,0.0,0.0,0.0,0.0,0.0,0.0,0.0,0.0,0.0,0.0,0.0,2.1905,2.2765,0.0,2.2548,2.1538,2.1067,2.1458,2.1174,2.126,2.1912,2.2402,2.2715,2.2871,2.2881,2.2949,2.3105,2.2978,2.2877,2.2877,2.3023,2.3091,2.3091,2.2945,2.2877,2.2828,2.2021,2.165,2.1582,2.0693,2.0078,1.9678,1.9485,1.9394,1.9307,1.9414,1.9551,1.9736,2.001,2.0155,2.0106,1.9775,1.8828,1.7734,1.7412,1.6934,1.6553,1.6836,1.7031,1.7246,1.7676,1.7793,1.7822,1.7978,1.8008,1.7822,1.7109,1.6814,1.6395,1.5332,1.5042,1.4773,1.4196,1.4018,1.376,1.3237,1.3029,1.2869,1.2726,1.2048,1.1589,1.1589,1.1056,1.0783,1.1009,1.1336,1.1667,1.1936,1.1974,1.2172,1.2461,1.204,1.1822,1.1822,1.1401,1.0942,0.0,0.0,0.0,0.0,0.0,0.0,0.0,0.0,0.0,0.0,0.0,0.0,0.0,0.0,0.0,0.0,0.0,0.0,0.0,0.0,0.0,0.0,0.0,0.0,0.0,2.0162,2.149,2.3313,2.4292,2.4741,2.4541,2.3673,2.3198,2.3409,2.2901,2.2832,2.3491,2.3848,2.4004,2.4004,2.3867,2.3789,2.3789,2.3315,2.3091,2.3091,2.3091,2.3091,2.3091,2.3091,2.3091,2.3052,2.2246,2.1885,2.1816,2.0967,2.0429,2.0137,2.0137,1.9961,1.9756,2.0029,2.0137,2.0176,2.0507,2.0605,2.0537,2.0059,1.9346,1.8633,1.8486,1.8047,1.7627,1.7764,1.7803,1.7842,1.7978,1.8008,1.8008,1.8008,1.8008,1.7812,1.7077,1.6804,1.6482,1.5771,1.5508,1.5322,1.5049,1.5,1.4846,1.4352,1.4109,1.3892,1.366,1.2794,1.2189,1.2189,1.1548,1.1217,1.1485,1.1792,1.2098,1.2431,1.2296,1.2398,1.2886,1.2461,1.2272,1.2428,1.2158,1.1572,1.0693,0.0,0.0,0.0,0.0,0.0,0.0,0.0,0.0,0.0,0.0,0.0,0.0,0.0,0.0,0.0,0.0,0.0,0.0,0.0,0.0,0.0,0.0,0.0,2.1063,2.1732,2.2981,2.4977,2.5591,2.5923,2.5924,2.5337,2.4843,2.4559,2.4098,2.4014,2.4434,2.4453,2.4453,2.4443,2.4033,2.3799,2.3789,2.3315,2.3091,2.3091,2.3091,2.3091,2.3091,2.3091,2.3091,2.3052,2.2246,2.1885,2.1816,2.0967,2.0615,2.0625,2.0625,2.0615,2.0605,2.0615,2.0615,2.0605,2.0605,2.0605,2.0537,2.0078,1.9922,1.9844,1.9434,1.9297,1.9199,1.8724,1.8598,1.851,1.8081,1.8008,1.8008,1.8008,1.8008,1.7891,1.7461,1.7031,1.657,1.6163,1.5703,1.541,1.541,1.541,1.5362,1.5235,1.4931,0.0,1.454,1.3537,1.2831,1.2813,1.2156,1.1852,1.2101,1.2249,1.2431,1.2686,1.239,1.2412,1.2886,1.2451,1.2389,1.2876,1.2015,1.1154,1.0322,0.0,0.0,0.0,0.0,0.0,0.0,0.0,0.0,0.0,0.0,0.0,0.0,0.0,0.0,0.0,0.0,0.0,0.0,0.0,0.0,0.0,2.2739,2.3266,2.2603,2.3156,2.3966,2.4883,2.5612,2.6055,2.6059,2.5866,2.5723,2.566,2.5089,2.4912,2.5304,2.5323,2.5225,2.4902,2.4473,2.4092,2.3799,2.3315,2.3091,2.3091,2.3091,2.3091,2.3091,2.3091,2.3091,2.3052,2.2246,2.1885,2.1816,2.0967,2.0752,2.1055,2.1055,2.085,2.0644,2.0928,2.084,2.0605,2.0605,2.0605,2.0586,2.0458,2.0176,1.9893,1.9775,1.9531,1.9199,1.8724,1.8598,1.851,1.8081,1.8008,1.8008,1.8008,1.8008,1.7812,1.7038,1.6785,1.6473,1.5742,1.5498,1.541,1.541,1.541,1.5381,1.5362,1.5274,0.0,1.4773,1.4143,1.3641,1.3347,1.2868,1.2603,1.2676,1.27,1.2783,1.2832,1.2168,1.2113,1.2876,1.2171,1.1953,1.2379,1.1543,1.0967,0.0,0.0,0.0,0.0,0.0,0.0,0.0,0.0,0.0,0.0,0.0,0.0,0.0,0.0,0.0,0.0,0.0,0.0,0.0,0.0,0.0,0.0,2.4436,2.5011,2.4638,2.4516,2.465,2.5103,2.5765,2.6171,2.6285,2.6388,2.6362,2.6121,2.5628,2.5459,2.5674,2.5693,2.5567,2.5361,2.4746,2.4297,2.4053,2.3403,2.3091,2.3091,2.3091,2.3091,2.3091,2.3091,2.3091,2.3062,2.2441,2.2148,2.21,2.1406,2.1269,0.0,0.0,0.0,0.0,0.0,2.0947,2.0605,2.0605,2.0605,2.0605,2.0605,2.0429,2.0185,2.0185,2.0019,1.9736,1.9297,1.9007,1.8773,1.8344,1.8144,1.8008,1.8008,1.7871,1.7559,1.6843,1.656,1.624,1.5547,1.541,0.0,1.541,1.541,1.541,1.541,1.541,1.5322,1.5078,1.4484,1.4016,1.3773,1.3232,1.2905,1.2905,1.2905,0.0,0.0,0.0,1.207,1.2588,1.2318,0.0,0.0,0.0,0.0,0.0,0.0,0.0,0.0,1.0095,1.0345,0.0,0.0,0.0,0.0,0.0,0.0,0.0,0.0,0.0,0.0,0.0,0.0,0.0,0.0,0.0,0.0,2.5949,2.6632,2.6655,2.57,2.5111,2.5523,2.59,2.6232,2.6408,2.663,2.6572,2.61,2.582,2.5693,2.5693,0.0,0.0,0.0,0.0,2.4394,2.4346,2.35,2.3091,2.3091,2.3091,2.3091,2.3091,2.3091,2.3091,2.3071,2.2652,2.251,2.248,2.206,2.1914,2.1914,2.1475,2.1572,2.1894,2.1375,2.0986,2.0674,2.0625,0.0,0.0,2.0605,2.0605,2.0605,2.0605,2.0605,2.0517,2.0039,1.9609,1.9189,1.8715,1.8286,1.8008,1.8008,1.7725,1.7324,1.6804,1.6416,1.6026,1.5508,1.541,1.541,1.541,1.541,1.541,1.541,1.541,1.5391,1.5352,1.4601,1.4085,1.4036,0.0,0.0,1.2905,1.2905,1.2905,1.2905,1.252,1.2262,1.2203,1.2607,1.2812,1.2812,1.2373,1.2155,1.2203,1.1848,1.1682,1.1743,1.126,1.1482,0.0,0.0,0.0,0.0,0.0,0.0,0.0,0.0,0.0,0.0,0.0,0.0,0.0,0.0,0.0,2.5933,2.6671,2.7,2.6587,2.6125,2.587,2.595,2.5857,2.5828,2.5868,2.5878,2.5878,2.5781,2.5732,2.5693,2.5693,2.5693,2.5566,2.5205,2.4697,2.4248,2.3916,2.3354,2.3091,2.3091,0.0,0.0,2.3091,2.3091,2.3091,2.3071,2.2652,2.251,2.248,2.206,2.209,2.2344,2.1924,2.2021,2.2295,2.1483,2.1142,2.1055,2.0693,2.0605,2.0605,2.0605,2.0605,2.0605,2.0605,2.0605,0.0,2.0039,1.9609,1.9189,1.8715,1.8286,1.8008,1.8008,1.7949,1.7676,1.6872,1.6638,1.6336,1.5537,1.541,1.541,1.541,1.541,1.541,1.541,1.541,1.5293,1.4951,1.4453,1.3977,1.3636,1.3184,1.2905,1.2905,1.2905,1.2905,1.2905,1.2803,1.2598,1.2223,1.2291,1.233,1.233,1.1924,1.1888,1.2203,1.2116,1.2275,1.2641,1.2178,1.2233,0.0,0.0,0.0,0.0,0.0,0.0,0.0,0.0,0.0,0.0,0.0,2.3,2.3803,0.0,2.697,2.7316,2.7277,2.711,2.6898,2.612,2.5635,2.5718,2.5699,2.5693,2.5693,2.5693,2.5693,2.5693,2.5693,2.5693,2.5693,2.5693,2.5586,2.541,2.4756,2.4316,2.4102,2.3467,2.3091,2.3091,2.3091,2.3091,2.3091,2.3091,2.3091,2.3081,2.2877,2.2779,2.2769,2.2598,2.2637,2.276,2.2598,2.251,2.2461,2.2031,2.1561,2.1161,2.0977,2.0752,2.0605,2.0605,2.0605,2.0605,2.0605,2.0605,2.0556,2.0341,1.9775,1.9238,1.9023,1.8486,1.8008,1.8008,1.7852,1.7578,1.7148,1.6709,1.6269,1.582,1.5557,1.541,1.541,1.541,1.541,1.541,1.541,1.5342,1.5127,1.4504,1.4026,1.3821,1.3262,1.2905,1.2905,1.2905,1.2905,1.2905,1.2905,1.2783,1.2568,1.2559,1.2559,1.2559,1.2357,1.2357,1.2559,1.2559,1.2773,1.3184,1.2969,1.2988,0.0,0.0,0.0,0.0,0.0,0.0,0.0,2.0124,2.0765,2.1907,2.3376,2.477,2.5716,2.7099,2.8138,2.8199,2.7603,2.7096,2.7091,2.5932,2.5192,2.5423,2.5614,2.5693,2.5693,2.5693,2.5693,2.5693,2.5693,2.5693,2.5693,2.5693,2.5693,2.5693,2.4826,2.4414,2.4414,2.352,2.3091,2.3091,2.3091,2.3091,2.3091,2.3091,2.3091,2.3091,2.3091,2.3091,2.3091,2.3091,2.3052,2.2974,2.2974,2.2721,2.2393,2.2393,2.1953,2.1298,2.1122,2.0869,2.0605,2.0605,2.0605,2.0605,2.0605,2.0605,2.0605,2.0605,1.9989,1.9287,1.9287,1.8652,1.8008,1.8008,1.7754,1.7513,1.7435,1.6789,1.6202,1.6114,1.5703,1.541,1.541,1.541,1.541,1.541,1.541,1.5381,1.5293,1.4582,1.4075,1.3997,1.333,1.2905,1.2905,1.2905,1.2905,1.2905,1.2905,1.2905,1.2905,1.2905,1.2905,1.2905,1.2905,1.2905,1.2905,1.2983,1.3174,1.3516,1.3672,1.376,1.758,1.8933,2.0453,2.0991,2.1531,2.2042,0.0,2.2694,2.3045,2.4186,2.5372,2.6343,2.6758,2.7619,2.811,2.7591,2.7278,2.6959,2.6649,2.5708,2.5262,2.5615,2.5713,2.5693,2.5693,2.5693,2.5693,2.5693,2.5693,2.5693,2.5693,2.5693,2.5693,2.5693,2.4826,2.4414,2.4414,2.352,2.3091,2.3091,2.3091,2.3091,2.3091,2.3091,2.3091,2.3091,2.3091,2.3091,2.3091,2.3091,2.2877,2.2578,2.2578,2.2324,2.1953,2.1953,2.1894,2.1699,2.0957,2.0644,2.0605,2.0605,2.0605,2.0605,2.0605,2.0605,2.0605,2.0605,1.9989,1.9287,1.9287,1.8652,1.8008,1.8008,1.7978,1.7842,1.7461,1.7002,1.6543,1.6173,1.5703,1.541,1.541,1.541,1.541,1.541,1.541,1.5273,1.4902,1.4406,1.3968,1.3613,1.3164,1.2905,1.2905,1.2905,1.2905,1.2905,1.2905,1.2905,1.2905,1.2905,1.2905,1.2905,1.2905,1.2905,1.2905,1.3262,1.3467,1.3525,1.4287,1.4639,1.9269,2.0804,2.2234,2.2811,2.359,2.428,2.4506,2.4833,2.5297,2.6088,2.713,2.7862,2.7767,2.7978,2.8112,2.7878,2.7097,2.6451,2.6336,2.5625,2.5049,2.498,2.4923,2.5118,2.5635,2.5693,2.5693,2.5693,2.5693,2.5693,2.5693,2.5693,2.5693,2.5693,2.5127,2.4668,2.4414,2.3818,2.3389,2.3091,2.3091,2.3091,2.3091,2.3091,2.3091,2.3091,2.3091,2.3091,2.3091,2.3091,2.2847,2.251,2.251,2.2256,2.1885,2.1885,2.1728,2.1455,2.1084,2.0781,2.0605,2.0605,2.0605,2.0605,2.0605,2.0605,2.0605,2.0605,1.9989,1.9287,1.9287,1.8652,1.8008,1.8008,1.8008,1.7959,1.7793,1.7217,1.6648,1.6484,1.5889,1.541,1.541,1.541,1.541,1.541,1.541,1.5254,1.4834,1.4377,1.3851,1.3213,1.3013,1.2905,1.2905,1.2905,1.2905,1.2905,1.2905,1.2905,1.2905,1.2905,1.2905,1.2905,1.2905,1.3023,1.3242,1.3418,1.376,1.4268,1.4619,1.4922,2.0136,2.1768,2.3195,2.3847,2.4838,2.5702,2.5702,2.6127,2.6652,2.7064,2.7864,2.845,2.818,2.7891,2.769,2.7732,2.6699,2.5929,2.5985,2.5384,2.4814,2.4619,2.4385,2.459,2.5469,2.5401,2.5372,2.5537,2.5557,2.5557,2.5684,2.5693,2.5693,2.5693,2.5303,2.4863,2.4424,2.4004,2.3574,2.3091,2.3091,2.3091,2.3091,2.3091,2.3091,2.3091,2.3091,2.3091,2.3091,2.3091,2.2779,2.2344,2.2344,2.2002,2.1523,2.1523,2.1406,2.1181,2.1054,2.084,2.0605,2.0605,2.0605,2.0605,2.0605,2.0605,2.0605,2.0605,1.9989,1.9287,1.9287,1.8652,1.8008,1.8008,1.8008,1.8008,1.8008,1.7432,1.6843,1.6726,1.6113,1.5557,1.543,1.541,1.541,1.541,1.541,1.5254,1.4834,1.4307,1.3656,1.2959,1.2905,1.2905,1.2905,1.2905,1.2905,1.2905,1.2905,1.2905,1.2905,1.2905,1.2905,1.2905,1.3023,1.3203,1.3506,1.374,1.418,1.4813,1.4902,1.5117,1.9686,2.14,2.3083,2.3822,2.4939,2.5873,2.5873,2.6244,2.6624,2.6709,2.7152,2.7593,2.7698,2.7125,2.6634,2.6579,2.5975,2.5513,2.5538,2.4893,2.459,2.5047,2.4316,2.4141,2.5047,2.4707,2.4639,2.5106,2.5135,2.5283,2.5664,2.5693,2.5693,2.5693,2.5303,2.4863,2.4424,2.4004,2.3574,2.3091,2.3091,2.3091,2.3091,2.3091,2.3091,2.3091,2.3091,2.3091,2.3091,2.3091,2.2646,2.1904,2.1904,2.1377,2.0644,2.0644,2.0869,2.1132,2.0732,2.0615,2.0605,2.0605,2.0605,2.0605,2.0605,2.0605,2.0605,2.0605,1.9989,1.9287,1.9287,1.8652,1.8008,1.8008,1.8008,1.8008,1.8008,1.7666,1.7236,1.6785,1.6357,1.5938,1.5488,1.541,1.541,1.541,1.541,1.5254,1.4834,1.4043,1.3359,1.2954,1.2905,1.2905,1.2905,1.2905,1.2905,1.2905,1.2905,1.2905,1.2905,1.2905,1.2905,1.2905,1.3281,1.3496,1.3506,1.4346,1.4756,1.4795,1.5205,1.54,1.9381,2.097,2.2444,2.3304,2.4423,2.5408,2.5805,2.5997,2.6202,2.6599,2.6515,2.6428,2.6535,2.5701,2.5116,2.5517,2.491,2.4479,2.4719,2.4803,2.4795,2.4648,2.4131,2.4014,2.458,2.4766,2.5029,2.5478,2.5518,2.5576,2.5684,2.5693,2.5693,2.5693,2.5303,2.4863,2.4424,2.4004,2.3574,2.3091,2.3091,2.3091,2.3091,2.3091,2.3091,2.3091,2.3091,2.3091,2.3091,2.3091,2.2769,2.2275,2.1992,2.1523,2.0977,2.0713,2.0703,2.0771,2.0654,2.0605,2.0605,2.0605,2.0605,2.0605,2.0605,2.0605,2.0605,2.0605,1.9989,1.9287,1.9287,1.8652,1.8008,1.8008,1.8008,1.8008,1.8008,1.7676,1.7344,1.7197,1.6604,1.6046,1.5899,1.5605,1.541,1.541,1.5176,1.4941,1.4833,1.4033,1.3447,1.3311,1.3071,1.2905,1.2905,1.2905,1.2905,1.2905,1.2905,1.2905,1.2905,1.2905,1.2905,1.2905,1.3042,1.3359,1.3899,1.4182,1.4639,1.5205,1.5342,1.541,1.9113,2.0599,2.1974,2.2719,2.3752,2.4741,2.5177,2.5439,2.5619,2.5802,2.5504,2.5217,2.5327,2.4494,2.4042,2.4712,2.4339,2.4161,2.4503,2.4842,2.5008,2.4687,2.4268,2.418,2.4609,2.4902,2.5233,2.5478,2.5498,2.5566,2.5674,2.5693,2.5615,2.5508,2.5215,2.4785,2.4199,2.3926,2.3574,2.3091,2.3091,2.3091,2.3091,2.3091,2.3091,2.3091,2.3091,2.3091,2.3091,2.3091,2.2847,2.248,2.2217,2.1748,2.1161,2.0908,2.0703,2.0605,2.0605,2.0605,2.0605,2.0605,2.0605,2.0605,2.0605,2.0605,2.0605,2.0605,2.0096,1.9512,1.9512,1.8994,1.8428,1.834,1.837,1.8365,1.8207,1.7961,1.7724,1.7501,1.6988,1.6467,1.6144,1.5703,1.541,1.541,1.5186,1.4951,1.4833,1.4307,1.3848,1.3545,1.3271,1.3071,1.2915,1.2905,1.2905,1.2905,1.2905,1.2905,1.2905,1.2905,1.2905,1.2905,1.3027,1.3447,1.4104,1.426,1.4699,1.541,1.541,1.541,1.889,2.0285,2.1664,2.2064,2.2983,2.3852,2.4045,2.4584,2.4887,2.4294,2.408,2.3999,2.4081,2.3549,2.3356,2.4176,2.4377,2.4526,2.4778,2.5012,2.5145,2.5145,2.4717,2.4619,2.5106,2.5125,2.5125,2.5145,0.0,2.5283,2.5664,2.5693,2.5547,2.5117,2.5106,2.4695,2.3828,2.3779,2.3545,2.3091,2.3091,2.3091,2.3091,2.3091,2.3091,2.3091,2.3091,2.3091,2.3091,2.3091,2.2867,2.2539,2.2519,2.197,2.1249,2.121,2.0967,2.0635,2.0615,2.0605,2.0605,2.0605,2.0605,2.0605,2.0605,2.0605,2.0605,2.0605,2.0254,1.9912,1.9912,1.96,1.9252,1.8978,1.9099,1.9093,1.864,1.8549,1.8352,1.779,1.7514,1.7132,1.6251,1.5723,1.5439,1.5391,1.541,1.5264,1.4873,1.4795,1.4473,1.3662,1.3555,1.3369,1.2949,1.2935,1.2925,1.2905,1.2905,1.2905,1.2905,1.2905,1.2905,1.2905,1.3271,1.3665,1.4104,1.4551,1.498,1.541,1.541,1.541,1.9383,2.0267,2.0966,2.1356,2.1975,2.2515,2.2568,2.2967,2.3183,2.2546,2.2355,2.243,2.2855,2.2791,2.3028,2.4175,2.4465,2.4725,2.5239,2.5466,2.5566,2.5566,2.5176,2.5078,2.5527,2.5264,2.5205,2.5537,2.5566,2.5567,2.5684,2.5693,2.5635,2.5566,2.4932,2.4473,2.4258,2.3578,2.3208,2.3091,2.3091,2.3091,2.3091,2.3091,2.3091,2.3091,2.3091,2.3091,2.3091,2.3091,2.3033,2.2906,2.2637,2.2373,2.2068,2.1434,2.1122,2.1016,2.0684,2.0605,2.0605,2.0605,2.0605,2.0605,2.0605,2.0605,2.0605,2.0605,2.0254,1.9912,1.9912,1.96,1.9252,1.9138,1.9426,1.9592,1.9181,1.911,1.899,1.8555,1.7886,1.7132,1.6251,1.5997,1.5811,1.5459,1.541,1.5371,1.5264,1.498,1.4697,1.4482,1.417,1.3773,1.3379,1.335,1.3213,1.2925,1.2905,1.2905,1.2905,1.2905,1.2905,1.2905,1.3013,1.3398,1.4104,1.4221,1.465,1.541,1.541,1.541,1.9668,2.0234,2.0693,2.0974,2.1253,2.148,2.1452,2.1661,2.1652,2.0935,2.0646,2.0639,2.1065,2.124,2.173,2.301,2.3667,2.4259,2.494,2.5268,2.5518,2.5664,2.5518,2.5459,2.5664,2.5508,2.5469,2.5674,2.5693,2.5693,2.5693,2.5693,2.5596,2.5449,2.4775,2.4238,2.3812,2.3335,2.3091,2.3091,2.3091,2.3091,2.3091,2.3091,2.3091,2.3091,0.0,2.3091,2.3091,2.3091,2.3091,2.3071,2.2838,2.2676,2.2432,2.1768,2.1356,2.1132,2.0723,2.0605,2.0605,2.0693,2.077,2.0886,2.0964,2.1069,2.1108,2.1031,2.0736,2.0472,2.0472,2.0294,2.0105,1.9966,2.0341,2.0552,1.9975,1.9835,1.9573,1.8808,1.8022,1.7314,1.676,1.6411,1.6107,1.592,1.5771,1.5729,1.5797,1.5377,1.499,1.4833,1.4561,1.4221,1.3792,1.3753,1.3578,1.3184,1.3154,1.3076,1.2915,1.2905,1.2905,1.2905,1.3066,1.3477,1.4104,1.4299,1.4756,1.541,1.541,1.541,1.9883,2.0273,2.0644,2.0819,2.0767,2.0655,2.0523,2.0511,2.026,1.9351,1.896,1.8858,1.9123,1.9442,2.0061,2.1394,2.2515,2.3484,2.4166,2.4766,2.5215,2.5605,2.5654,2.5693,2.5693,2.5693,2.5693,2.5693,2.5693,2.5693,2.5693,2.5693,2.5508,2.5047,2.456,2.3945,2.3101,2.3091,2.3091,2.3091,2.3091,2.3091,2.3091,2.3091,2.3091,2.3091,2.3091,2.3091,2.3091,2.3091,2.3091,2.3091,2.3091,2.2877,2.2539,2.206,2.165,2.121,2.0781,2.0605,2.0644,2.0858,2.1128,2.1349,2.1578,2.1835,2.1987,2.1759,2.1502,2.131,2.132,2.127,2.1158,2.1022,2.1413,2.1631,2.0923,2.0592,2.0107,1.8841,1.8161,1.7684,1.7458,1.6857,1.6467,1.6568,1.637,1.6275,1.6457,1.5902,1.5389,1.5053,1.4985,1.478,1.4285,1.4219,1.4043,1.3613,1.3535,1.334,1.3003,1.2993,1.2993,1.2993,1.3379,1.3773,1.4192,1.46,1.5,1.541,1.541,1.541,2.0332,2.0546,2.0605,2.0644,2.0349,1.9967,1.954,1.921,1.8711,1.7712,1.751,1.7634,1.8002,1.8481,1.9313,2.0798,2.2019,2.3014,2.3574,2.447,2.5145,2.5223,2.5518,2.5693,2.5693,2.5693,2.5693,0.0,2.5693,2.5693,2.5693,2.5693,2.5313,2.456,2.4121,2.3662,2.3101,2.3091,2.3091,2.3091,2.3091,2.3091,2.3091,2.3091,2.3091,2.3091,2.3091,0.0,2.3091,2.3091,2.3091,2.3091,2.3091,2.3052,2.2896,2.2168,2.1836,2.166,2.0889,2.0605,2.0644,2.1051,2.1482,2.1935,2.236,2.2846,2.3132,2.2846,2.2322,2.1859,2.1949,2.1572,2.1272,2.1482,2.1958,2.2248,2.1757,2.123,2.0506,1.9375,1.8859,1.8341,1.754,1.7209,1.7042,1.7077,1.694,1.6972,1.7341,1.6662,1.6122,1.604,1.5944,1.5638,1.5047,1.4917,1.4602,1.4026,1.3675,1.3477,1.3398,1.3398,1.3398,1.3398,1.3782,1.4211,1.4678,1.4746,1.5,1.541,1.541,1.541,2.0546,2.0605,2.0605,2.0605,2.0078,1.9438,1.881,1.8139,1.7334,1.6202,1.592,1.5993,1.6236,1.6784,1.7695,1.9229,2.0437,2.1665,2.2961,2.4109,2.4977,2.5397,2.5843,2.6072,2.5917,2.5781,2.5693,2.5693,2.5518,2.5488,2.5674,2.5518,2.499,2.4121,2.3896,2.3584,2.3101,2.3091,2.3091,2.3091,2.3091,2.3091,2.3091,2.3091,2.3091,2.3091,2.3091,2.3091,2.3091,2.3091,2.3091,2.3091,2.3091,2.3091,2.2994,2.2197,2.1885,2.1758,2.0909,2.0605,2.0683,2.131,2.189,2.2462,2.3005,2.3621,2.4047,2.3731,2.318,2.2708,2.2841,2.2594,2.2324,2.2421,2.2503,2.2513,2.2209,2.1702,2.0996,2.0053,1.9573,1.9092,1.839,1.8016,1.7882,1.8002,1.7779,1.7722,1.8066,1.7749,1.7363,1.7017,1.6793,1.6455,1.5927,1.5703,1.5269,1.4502,1.4287,1.3975,1.3525,1.3695,1.3704,1.3516,1.4141,1.458,1.4813,1.501,1.5215,1.541,1.541,1.541,2.0576,2.0605,2.0605,2.0605,1.9959,1.9098,1.8321,1.7296,1.6171,1.4968,1.4506,1.4402,1.463,1.5175,1.6067,1.7548,1.8751,2.0127,2.2011,2.3665,2.4948,2.5671,2.634,2.663,2.6284,2.5917,0.0,2.5605,2.5185,2.5078,2.5382,2.5039,2.4482,2.3809,2.3701,2.3486,2.3101,2.3091,2.3091,2.3091,2.3091,2.3091,2.3091,2.3091,2.3091,2.3091,2.3091,2.3091,2.3091,2.3091,2.3091,2.3091,2.3091,2.3091,2.2994,2.2197,2.1885,2.1758,2.0958,2.0683,2.0876,2.1721,2.2381,2.2984,2.3644,2.4407,2.5004,2.4659,2.4118,2.3692,2.3838,2.3697,2.3455,2.3329,2.3123,2.2917,2.2598,2.2168,2.1596,2.0869,2.042,1.9998,1.9485,1.9082,1.8876,1.9067,1.8754,1.86,1.8827,1.8854,1.867,1.8124,1.766,1.7202,1.6736,1.6446,1.5961,1.5167,1.5002,1.4619,1.3877,1.4145,1.4121,1.3789,1.4531,1.4922,1.4922,1.5254,1.541,1.541,1.541,1.541,2.0498,2.0605,2.0605,2.0605,1.9959,1.9062,1.8203,1.6721,1.5272,1.437,1.3572,1.3253,1.3877,1.4289,1.497,1.6267,1.7575,1.8959,2.0401,2.3133,2.5103,2.5464,2.6664,2.7315,2.686,2.6159,2.5566,2.5166,2.4727,2.4492,2.4541,2.4141,2.3867,2.3789,2.3408,2.314,2.3091,2.3091,2.3091,2.3091,2.3091,2.3091,2.3091,2.3091,2.3091,2.3091,2.3091,2.3091,0.0,2.3091,2.3091,2.3091,2.3091,2.3091,2.2994,2.2197,2.1885,2.1799,2.1096,2.0974,2.132,2.2289,2.2968,2.3562,2.4348,2.5406,2.6245,2.5863,2.5312,2.4838,2.4862,2.4484,2.4075,2.3968,2.3898,2.3716,2.316,2.2818,2.242,2.1889,2.1482,2.1092,2.0558,2.0341,2.0185,2.0094,1.9921,1.9775,1.9706,1.9695,1.9669,1.9605,1.8647,1.782,1.7352,1.7056,1.6691,1.6205,1.5713,1.5327,1.5062,1.4946,1.4846,1.4668,1.5117,1.5352,1.5352,1.5391,1.541,1.541,1.541,1.541,2.0059,2.0361,2.0537,2.0244,1.9531,1.8672,1.7822,1.6279,1.4863,1.4231,1.3467,1.3027,1.3396,1.3782,1.4499,1.5957,1.6861,1.8173,2.0432,2.2637,2.435,2.5444,2.6455,2.6997,2.6841,0.0,2.5603,2.5204,2.5002,2.4779,2.4486,2.4044,2.3672,2.3408,2.3188,2.3091,2.3091,2.3091,2.3091,2.3091,2.3091,2.3091,2.3091,2.3091,2.3091,2.3091,2.3091,2.3091,0.0,2.3091,2.3091,2.3091,2.3091,2.2945,2.2685,2.21,2.1719,2.1447,2.1153,2.1339,2.1842,2.2767,2.3669,2.4492,2.4933,2.5734,2.643,2.6166,2.5723,2.5382,2.55,2.5204,2.4811,2.4541,2.4243,2.3841,2.3233,2.2939,2.2696,2.2285,2.2037,2.1757,2.127,2.1101,2.1003,2.1038,2.0604,2.0308,2.0351,2.0012,1.9798,1.9798,1.9253,1.8697,1.8205,1.7945,1.7589,1.7101,1.6734,1.625,1.5666,1.5667,1.5389,1.4823,1.5195,1.541,1.541,1.541,1.541,1.541,1.541,1.541,1.9766,2.0234,2.0498,2.0019,1.9231,1.8344,1.7412,1.5947,1.4629,1.4036,1.3379,1.2968,1.3146,1.3539,1.4216,1.5473,1.6304,1.7607,1.9968,2.2059,2.3801,2.5027,2.601,2.6607,2.668,2.6258,2.5918,2.5772,2.5634,2.5444,2.5094,2.4788,2.4264,2.3527,2.344,2.3406,2.3309,2.3232,2.3188,2.3091,2.3091,2.3091,2.3091,2.3091,2.3091,2.3091,2.3091,2.3091,0.0,2.3091,2.3091,2.3081,2.3041,2.285,2.2611,2.2132,2.1768,2.1561,2.1617,2.1977,2.2537,2.3412,2.4371,2.5241,2.55,2.599,2.6465,2.6339,2.6084,2.5898,2.605,2.5856,2.5519,2.4951,2.4519,2.4042,2.3258,2.3017,2.2878,2.2665,2.2543,2.2389,2.2094,2.1977,2.1877,2.182,2.1345,2.0959,2.0729,2.0339,1.9987,1.9823,1.963,1.9344,1.8886,1.8647,1.8325,1.7918,1.7617,1.7131,1.6385,1.6325,1.5932,1.514,1.535,1.5449,1.541,1.541,1.541,1.541,1.541,1.5478,1.964,2.0234,2.0498,2.0019,1.9231,1.8266,1.6999,1.5723,1.4541,1.3691,1.3174,1.2968,1.3146,1.3542,1.4008,1.4616,1.5895,1.7248,1.8459,2.1444,2.3661,2.407,2.5415,2.6317,2.6398,2.6355,2.6507,2.7028,2.671,0.0,2.6472,2.6483,2.5861,2.4541,2.4272,2.4067,2.3797,2.359,2.3363,2.3091,2.3091,2.3091,2.3091,2.3091,2.3091,2.3091,2.3091,2.3091,0.0,2.3091,2.3091,2.3096,2.289,2.2924,2.3014,2.2342,2.2205,2.2408,2.26,2.2964,2.3446,2.4396,2.5087,2.5676,2.6062,2.6339,2.6499,2.6499,2.6499,2.6499,2.6499,2.6487,2.621,2.5084,2.4788,2.4474,2.3346,2.3108,2.3108,2.3078,2.3078,2.3078,2.3078,2.3065,2.2907,2.2368,2.2297,2.1895,2.083,2.0679,2.0465,1.9861,1.9798,1.9618,1.9226,1.9066,1.8881,1.8614,1.8267,1.7875,1.7407,1.6994,1.6524,1.5892,1.5749,1.5604,1.541,1.541,1.541,1.541,1.541,1.5644,1.8282,1.9068,1.9521,1.8789,1.8193,1.7432,1.6093,1.503,1.418,1.3623,1.3174,1.2954,1.3089,1.3348,1.3803,1.4627,1.5719,1.7115,1.8965,2.129,2.3317,2.4624,2.6262,2.7153,2.6854,2.7122,2.7412,2.7574,2.7476,2.7383,2.7383,2.7383,2.6935,2.5902,2.5495,2.5031,2.4467,2.4155,2.3701,2.3091,2.3091,2.3091,2.3091,2.3091,2.3091,2.3091,2.3091,2.3091,2.3091,2.3091,2.3091,2.3096,2.305,2.309,2.3205,2.3011,2.3003,2.3181,2.3519,2.4022,2.4551,2.5135,2.5711,2.6245,2.6361,2.6465,2.6499,2.6499,2.6499,2.6499,2.6499,2.6197,2.5686,2.4983,2.4531,2.4054,2.3271,2.3108,2.3108,2.3108,2.3108,2.3108,2.3108,2.3108,2.3045,2.2869,2.2518,2.2184,2.1832,2.1455,2.1182,2.0978,2.0614,2.0211,1.9655,1.9578,1.9526,1.9436,1.916,1.8777,1.8313,1.7804,1.7151,1.6322,1.6085,1.5768,1.541,1.541,1.5566,1.5889,1.5889,1.6094,1.7078,1.8054,1.8633,1.7949,1.7451,1.6797,1.5469,1.4611,1.3938,1.3389,1.3066,1.2929,1.3012,1.3138,1.3449,1.4223,1.5477,1.6937,1.8661,2.0932,2.3158,2.5066,2.6648,2.7516,2.742,2.7888,2.8325,2.853,2.8542,2.8542,2.8542,2.8542,2.8303,2.7758,2.6741,2.5819,2.5094,2.4563,2.3907,2.3091,2.3188,2.3276,2.3363,2.345,2.357,2.3604,2.3537,2.345,0.0,2.3353,2.3353,2.3337,2.3324,2.3544,2.3777,2.3673,2.3757,2.4,2.4409,2.4862,2.53,2.5688,2.6141,2.6499,2.6499,2.6499,2.6499,2.6499,2.6499,2.6449,2.6223,2.5862,2.541,2.4682,2.4243,2.3841,2.3233,2.3108,2.3108,2.3108,2.3108,2.3108,2.3108,2.3108,2.3108,2.3108,2.2807,2.2518,2.2334,2.202,2.1719,2.1506,2.1207,2.0779,2.0201,1.9924,1.9798,1.9798,1.9617,1.9291,1.8886,1.8429,1.7839,1.7156,1.6793,1.647,1.6118,1.5968,1.6045,1.6318,1.6318,1.6553,0.0,1.7121,1.7822,1.7393,1.6963,1.6268,1.5029,1.4404,0.0,1.3071,1.2905,1.2905,1.2905,1.2925,1.309,1.3566,1.5236,1.6862,1.7871,2.0609,2.3339,2.546,2.6716,2.7607,2.8109,2.8662,2.9214,2.9754,2.9792,2.9792,2.9792,2.9792,2.9792,2.9792,2.7995,2.6547,2.5568,2.4872,2.4069,2.3091,2.3406,2.3624,2.3874,2.4143,2.4433,0.0,2.4401,2.4143,2.3874,2.3884,2.3884,2.3879,2.3833,2.4205,2.4698,2.4445,2.4575,2.4898,2.5264,2.5523,2.5723,2.6097,2.6339,2.6499,2.6499,2.6499,2.6499,2.6499,2.6499,2.6361,2.5749,2.5573,2.5285,2.4243,2.3966,2.3791,2.3221,2.3108,2.3108,2.3108,2.3108,2.3108,2.3108,2.3108,2.3108,2.3108,2.3108,2.292,2.2406,2.2372,2.2171,2.1656,2.1568,2.137,2.0855,2.0239,1.9849,1.9798,1.9719,1.9562,1.9326,1.8964,1.8642,1.8358,1.7835,1.7444,1.7305,1.6908,1.6716,1.6746,1.6746,1.7012,1.3912,0.0,1.6892,1.6515,1.6045,1.5439,0.0,1.3929,1.3506,1.2988,1.2905,1.2905,1.2905,1.3145,1.3536,1.4049,1.6011,1.7867,1.8959,2.2407,2.5335,2.6751,2.7858,2.8549,2.8687,2.9252,2.9641,2.9779,2.9792,2.9792,2.9792,2.9792,2.9792,2.9792,2.8843,2.7678,2.6276,2.5463,2.438,2.3101,2.3537,2.4036,2.4595,2.4988,2.5495,2.6027,2.5579,2.5115,2.4553,2.4627,2.4627,2.4618,2.493,2.5481,2.6036,2.5934,2.5982,2.6094,2.6198,2.6245,2.6314,2.6396,2.6465,2.6499,2.6499,2.6499,2.6499,2.6499,2.6499,2.6361,2.5749,2.531,2.4833,2.4155,2.3665,2.3271,2.3133,2.3108,2.3108,2.3108,2.3108,2.3108,2.3108,2.3108,2.3108,2.3108,2.3108,2.3058,2.2932,2.2907,2.2857,2.2732,2.2372,2.2071,2.1933,2.1029,2.0302,1.9823,2.0186,2.041,2.0357,2.0456,2.0306,1.99,1.8569,1.7727,1.744,1.6939,1.6872,1.7227,1.7227,1.7461,1.3215,1.4754,1.6034,1.582,1.5586,1.5157,1.4299,1.3782,1.3389,1.2993,1.2905,1.2964,1.3135,1.335,1.3813,1.48,1.6557,1.8682,2.1224,2.4337,2.6691,2.7557,2.8649,2.9327,2.9327,2.9616,2.9792,2.9792,2.9792,2.9792,2.9792,2.9792,2.9792,2.9792,2.926,2.8251,2.6771,2.6008,2.5009,2.3734,2.4294,2.4882,2.5442,2.6038,2.6577,2.7058,2.6618,2.608,2.5442,2.56,2.5547,2.5461,2.5699,2.6198,2.6753,2.6407,2.6402,2.6499,2.6499,2.6499,2.6499,2.6499,2.6499,2.6499,2.6499,2.6499,2.6499,2.6499,2.6499,2.6298,2.5448,2.5034,2.4575,2.3791,2.3333,2.3108,2.3108,2.3108,2.3108,2.3108,2.3108,2.3108,2.3108,2.3108,2.3108,2.3108,2.3108,2.3108,2.3108,2.3108,2.3108,2.3108,2.2844,2.2556,2.2305,2.1757,2.1179,2.0614,2.0905,2.1069,2.1069,2.1163,2.0998,2.0647,1.9633,1.8881,1.8447,1.7825,1.7629,1.7799,1.7709,1.7793,1.3109,1.4371,1.541,1.541,1.541,1.5205,1.4387,1.388,1.3496,1.3145,1.3076,1.3184,1.3535,1.3711,1.4218,1.5547,1.7219,1.968,2.3629,2.5966,2.7446,2.8034,2.9101,2.9792,2.9792,2.9792,2.9792,2.9792,2.9792,2.9792,2.9792,2.9792,2.9792,2.9792,2.9378,2.8593,2.7354,2.6712,2.5841,2.4829,2.5432,2.6019,2.6505,2.7133,2.7701,2.8091,0.0,0.0,2.6505,2.6693,2.6595,2.6397,2.6457,2.6737,2.7054,2.6542,2.6436,2.6499,2.6499,2.6499,2.6499,2.6499,2.6499,2.6499,2.6499,2.6499,2.6499,2.6499,2.6499,2.6248,2.5109,2.4788,2.4499,2.3371,2.3108,2.3108,2.3108,2.3108,2.3108,2.3108,2.3108,2.3108,2.3108,2.3108,2.3108,2.3108,2.3108,2.3108,2.3108,2.3108,2.3108,2.3108,2.3108,2.292,2.2443,2.2406,2.2234,2.1769,2.1656,2.1656,2.1732,2.1631,2.1452,2.1175,2.0823,2.0366,1.9802,1.9008,1.8539,1.8371,1.811,1.8047,1.2616,1.4176,1.541,1.541,1.541,1.5283,1.4795,1.4346,1.3997,1.3929,1.3919,1.3938,1.3997,1.4601,1.5338,1.6001,1.8695,2.1682,2.4529,2.6154,2.729,2.7998,2.9101,2.9792,2.9792,2.9792,2.9792,2.9792,2.9792,2.9792,2.9792,2.9792,2.9792,2.9792,2.9521,2.9106,2.8542,2.7718,2.6935,2.6193,2.6648,2.718,2.7815,2.8331,2.8882,2.9456,0.0,2.8422,2.7815,2.7903,2.7603,2.7184,2.757,2.7544,2.7274,2.7183,2.6854,2.6499,2.6499,2.6499,2.6499,2.6499,2.6499,2.6499,2.6499,2.6499,2.6499,2.6499,2.6499,2.6248,2.5109,2.4788,2.4499,2.3371,2.3108,2.3108,2.3108,2.3108,2.3108,2.3108,2.3108,2.3108,2.3108,2.3108,2.3108,2.3108,2.3108,2.3108,2.3108,2.3108,2.3108,2.3108,2.3108,2.307,2.2982,2.2982,2.2945,2.2857,2.2447,2.2397,2.2832,2.2815,2.2698,2.2433,2.1916,2.1345,2.0711,1.9671,1.9021,1.8707,1.8245,1.8159,1.2051,1.358,1.4897,1.4954,1.5546,1.6016,1.5576,1.5137,1.4796,1.4796,1.4639,1.4629,1.5088,1.5303,1.595,1.7616,2.014,2.2548,2.4354,2.6065,2.7347,2.8035,2.9101,2.9792,2.9792,2.9792,2.9792,2.9792,2.9792,2.9792,2.9792,2.9792,2.9792,2.9792,2.9702,2.9534,2.9339,2.8922,2.8211,2.7221,2.7661,2.8063,2.8478,2.8937,2.9365,2.9792,0.0,2.8949,2.849,2.8645,2.8448,2.8108,2.7946,2.7841,2.7657,2.709,2.6713,2.6499,2.6499,2.6499,2.6499,2.6499,2.6499,2.6499,2.6499,2.6499,2.6499,2.6499,2.6499,2.6248,2.5109,2.4788,2.4499,2.3371,2.3108,2.3108,2.3108,2.3108,2.3108,2.3108,2.3108,2.3108,2.3108,2.3108,2.3108,2.3108,2.3108,2.3108,2.3108,2.3108,2.3108,2.3108,2.3108,2.3108,2.3108,2.3108,2.3108,2.3108,2.2869,2.2844,2.3095,2.3108,2.3017,2.28,2.2377,2.187,2.1293,2.0355,1.9682,1.9218,1.8825,1.8701,1.1503,1.2869,1.4099,1.4534,1.5603,1.6484,1.6173,1.5831,1.5596,1.5703,1.5469,1.5439,1.6124,1.6116,1.6788,1.9241,2.1214,2.2907,2.4201,2.5949,2.7336,2.8011,2.8988,2.9641,2.9779,2.9792,2.9792,2.9792,2.9792,2.9792,2.9792,2.9792,2.9792,2.9792,2.9792,2.9792,2.9792,2.9792,2.9287,2.8263,2.8605,2.8907,2.904,2.9353,2.9611,2.9792,2.956,2.924,2.8856,2.916,2.9022,2.8586,2.8213,2.8013,2.7795,2.6851,2.6499,2.6499,2.6499,2.6499,2.6499,2.6499,2.6499,2.6499,2.6499,2.6499,2.6499,2.6499,2.6499,2.6273,2.5259,2.4876,2.4537,2.3547,2.3195,2.3108,2.3108,2.3108,2.3108,2.3108,2.3108,2.3108,2.3108,2.3108,2.3145,2.3283,2.3308,2.3358,2.3484,2.3496,2.3496,2.3496,2.3384,2.3246,2.3108,2.3108,2.3108,2.3108,2.3108,2.3108,2.3108,2.3108,2.3047,2.2939,2.2684,2.2334,2.1858,2.1123,2.0519,2.0062,1.9582,1.9374,1.1062,1.2079,1.3154,1.4457,1.5464,1.6134,1.6105,1.6065,1.6163,1.6521,1.658,1.658,1.6638,1.725,1.8354,2.0359,2.1551,2.2856,2.4673,2.596,2.71,2.7974,2.8624,2.9164,2.9741,2.9792,2.9792,2.9792,2.9792,2.9792,2.9792,2.9792,2.9792,2.9792,2.9792,2.9792,2.9792,2.9792,2.9753,2.9663,2.9675,2.9702,2.9714,2.9753,2.9792,2.9792,2.9792,2.9452,2.895,2.9527,2.9139,2.8186,2.8662,2.8211,2.7304,2.6713,2.6499,2.6499,2.6499,2.6499,2.6499,2.6499,2.6499,2.6499,2.6499,2.6499,2.6499,2.6499,2.6499,2.6348,2.5699,2.5184,2.4637,2.4079,2.3496,2.3108,2.3108,2.3108,2.3108,2.3108,2.3108,2.3108,2.3108,2.3108,2.3283,2.3853,2.3941,2.4117,2.46,2.4675,2.4675,2.4675,2.4243,2.3715,2.3145,2.3108,2.3108,2.3108,2.3108,2.3108,2.3108,2.3108,2.3108,2.3078,2.3078,2.2909,2.2616,2.2056,2.1684,2.1429,2.0334,2.0127,1.0311,1.1262,1.2325,1.3358,1.4523,1.5689,1.6668,1.709,1.7393,1.7789,1.7886,1.7808,1.7535,1.8174,1.9158,2.0558,2.1672,2.2999,2.4756,2.5877,2.6771,2.7534,2.8084,2.8499,2.8725,2.875,2.875,2.875,2.875,2.875,2.875,2.9063,2.9252,2.9252,2.9603,2.9792,2.9792,2.9792,2.9792,2.9792,2.9792,2.9792,2.9792,2.9792,2.9792,2.9792,2.9792,2.9465,2.8913,2.9164,2.88,2.8097,2.7959,2.7444,2.6788,2.6562,2.6499,2.6499,2.6499,2.6499,2.6499,2.6499,2.6499,2.6499,2.6499,2.6499,2.6499,2.6499,2.6499,2.6361,2.5749,2.5448,2.5172,2.4644,2.4311,2.4061,2.374,2.3665,2.3534,2.317,2.3108,2.3108,2.3108,2.3409,2.3753,2.3966,2.4293,2.4582,2.4763,2.4788,2.4788,2.4788,2.433,2.3916,2.369,2.3308,2.3108,2.3108,2.3108,2.3108,2.3108,2.3108,2.3108,2.3108,2.3108,2.3017,2.283,2.2408,2.2163,2.2066,2.1373,2.1217,0.9911,1.0534,1.1358,1.2434,1.3656,1.5045,1.661,1.7507,1.8091,1.852,1.8598,1.852,1.8227,1.8616,1.9367,2.0589,2.1694,2.3021,2.4767,2.5732,2.6513,2.7233,2.7607,2.7908,2.8084,2.8109,2.8109,2.8109,2.8109,2.8109,2.8109,2.8599,2.8888,2.8888,2.949,2.9792,2.9792,2.9792,2.9792,2.9792,2.9792,2.9792,2.9792,2.9792,2.9691,2.9515,2.9515,2.9101,2.8423,2.8562,2.8448,2.8047,2.7494,2.709,2.6738,2.6562,2.6499,2.6499,2.6499,2.6499,2.6499,2.6499,2.6499,2.6499,2.6499,2.6499,2.6499,2.6499,2.6499,2.6399,2.5996,2.5737,2.5511,2.5146,2.4913,2.4687,2.4343,2.4255,2.4142,2.371,2.3634,2.3634,2.3634,2.396,2.4318,2.4481,2.482,2.5134,2.531,2.5335,2.5272,2.5084,2.472,2.4431,2.4268,2.386,2.3634,2.3634,2.3634,2.3484,2.312,2.3108,2.3108,2.3108,2.3108,2.3047,2.2969,2.2714,2.2729,2.2977,2.2455,2.2393,0.993,0.9947,1.02,1.188,1.305,1.4185,1.5657,1.7044,1.8135,1.852,1.8607,1.8607,1.8607,1.8542,1.9012,2.0547,2.1583,2.2868,2.472,2.5535,2.6247,2.717,2.7268,2.7494,2.8034,2.8084,2.8084,2.8084,2.8084,2.8084,2.8084,2.8612,2.8888,2.8888,2.949,2.9792,2.9779,2.9779,2.9779,2.9779,2.9779,2.9779,2.9792,2.9792,2.9478,2.8888,2.8888,2.8298,2.7318,2.7871,2.8084,2.8034,2.7494,2.7268,2.7241,2.67,2.6499,2.6499,2.6499,2.6499,2.6499,2.6499,2.6499,2.6499,2.6499,2.6499,2.6499,2.6499,2.6499,2.6499,2.6499,2.6072,2.5598,2.5598,2.5209,2.48,2.48,2.48,2.48,2.4788,2.4788,2.4788,2.4788,2.4788,2.5008,2.5523,2.5598,2.5812,2.6411,2.6499,2.6273,2.5661,2.5598,2.5398,2.485,2.48,2.48,2.48,2.4788,2.4286,2.3158,2.312,2.312,2.312,2.312,2.312,2.312,2.312,2.3499,2.4198,2.3601,2.3708,0.9534,0.9883,1.0498,1.1955,1.3294,1.4639,1.5914,1.713,1.8223,1.8945,1.9092,1.9092,1.9092,1.928,1.9798,2.1026,2.1886,2.2997,2.4767,2.5382,2.5959,2.6643,2.6738,2.6801,2.6964,2.6977,2.6977,2.6977,2.6977,2.6977,2.6977,2.7846,2.8348,2.8348,2.9289,2.9591,2.9189,2.9189,2.8988,2.8612,2.9001,2.9402,2.9792,2.9792,2.9478,2.8888,2.8888,2.8298,2.7268,2.7077,2.6977,2.6964,2.6801,2.6738,2.6713,2.6549,2.6499,2.6499,2.6499,2.6499,2.6499,2.6499,2.6499,2.6499,2.6499,2.6499,2.6499,2.6499,2.6499,2.6499,2.6499,2.6361,2.6235,2.6235,2.6122,2.5862,2.5448,2.536,2.5259,2.4863,2.4788,2.4788,2.4788,2.5121,2.5423,2.5573,2.5971,2.6298,2.6474,2.6499,2.6424,2.6248,2.6235,2.6172,2.6021,2.5531,2.5229,2.5229,2.4971,2.4637,2.4299,2.4299,2.4299,2.4299,2.4299,2.4299,2.4299,2.4299,2.4521,2.4975,2.456,2.4616,0.9571,0.9938,1.0546,1.1902,1.3452,1.5118,1.6806,1.7749,1.8457,1.915,1.9287,1.9287,1.9287,1.9515,0.0,2.1,2.1814,2.288,2.453,2.5194,2.5746,2.6418,2.6499,2.6499,2.6499,2.6499,2.6499,2.6499,2.6499,2.6499,2.6499,2.7341,2.7871,2.8097,2.8762,2.9063,2.8888,2.8675,2.8436,2.8109,2.8448,2.8787,2.9126,2.9352,2.9139,2.8574,2.8134,2.757,2.6964,2.6637,2.6499,2.6499,2.6499,2.6499,2.6499,2.6499,2.6499,2.6499,2.6499,2.6499,2.6499,2.6499,2.6499,2.6499,2.6499,2.6499,2.6499,2.6499,2.6499,2.6499,2.6499,2.6499,2.6499,2.6499,2.6499,2.6399,2.6047,2.5971,2.585,2.5536,2.5473,2.5473,2.5473,2.5737,2.5971,2.5971,2.6273,2.6499,2.6499,2.6499,2.6499,2.6499,2.6499,2.6499,2.6499,2.6084,2.5833,2.5833,2.5598,2.5473,2.5473,2.5059,2.4788,2.4788,2.4788,2.4788,2.4788,2.4788,2.5031,2.5411,2.5209,2.5357,0.9846,1.0083,1.0448,1.1797,1.3549,1.5609,1.8008,1.8533,1.8656,1.9092,1.9238,1.9287,1.9287,1.9511,1.9919,2.0677,2.145,2.255,2.4099,2.4862,2.5558,2.6383,2.6499,2.6499,2.6499,2.6499,2.6499,2.6499,2.6499,2.6499,2.6499,2.7014,2.7507,2.8009,2.8084,2.8323,2.8737,2.8285,2.8009,2.7959,2.8009,2.8034,2.8047,2.8562,2.8512,2.7971,2.6952,2.6499,2.6499,2.6499,2.6499,2.6499,2.6499,2.6499,2.6499,2.6499,2.6499,2.6499,2.6499,2.6499,2.6499,2.6499,2.6499,2.6499,2.6499,2.6499,2.6499,2.6499,2.6499,2.6499,2.6499,2.6499,2.6499,2.6499,2.6499,2.6499,2.6499,2.6499,2.6499,2.6499,2.6499,2.6499,2.6499,2.6499,2.6499,2.6499,2.6499,2.6499,2.6499,2.6499,2.6499,2.6499,2.6499,2.6499,2.6499,2.6499,2.6499,2.6499,2.6499,2.6499,2.6499,2.5498,2.4938,2.4938,2.4938,2.4938,2.4938,2.4938,2.5209,2.5674,2.5674,2.5996,0.9599,1.0144,1.0767,1.1964,1.3963,1.6035,1.7757,1.8021,1.7982,1.8227,1.8818,1.9287,1.9287,1.9871,2.0437,2.0593,2.1301,2.2275,2.3514,2.4337,2.5252,2.6383,2.6499,2.6499,2.6499,2.6499,2.6499,2.6499,2.6499,2.6499,2.6499,2.7014,2.7344,2.7457,2.7883,2.7959,2.7645,2.7519,2.7278,2.6851,2.7291,2.7457,2.7482,2.8034,2.7984,2.7419,2.6788,2.6499,2.6499,2.6499,2.6499,2.6499,2.6499,2.6499,2.6499,2.6499,2.6499,2.6499,2.6499,2.6499,2.6499,2.6499,2.6499,2.6499,2.6499,2.6499,2.6499,2.6499,2.6499,2.6499,2.6499,2.6499,2.6499,2.6499,2.6499,2.6499,2.6499,2.6499,2.6499,2.6499,2.6499,2.6499,2.6499,2.6499,2.6499,2.6499,2.6499,2.6499,2.6499,2.6499,2.6499,2.6499,2.6499,2.6499,2.6499,2.6499,2.6499,2.6499,2.6499,2.6499,2.6499,2.6273,2.6135,2.6135,2.6135,2.6135,2.6135,2.6135,2.6197,2.6311,2.6311,2.6373,0.9446,1.0144,1.1028,1.2858,1.4486,1.5999,1.7314,1.7666,1.7817,1.7979,1.8525,1.9043,1.9248,1.9814,2.0322,2.0566,2.1185,2.2014,2.3084,2.3938,2.4909,2.6072,2.6292,2.6396,2.6499,2.6499,2.6499,2.6499,2.6499,2.6499,2.6499,2.6763,2.704,2.7268,2.7306,2.7306,2.7281,2.7052,2.6788,2.6499,2.6788,2.6927,2.6939,2.7457,2.7406,2.6901,2.6612,2.6499,2.6499,2.6499,2.6499,2.6499,2.6499,2.6499,2.6499,2.6499,2.6499,2.6499,2.6499,2.6499,2.6499,2.6499,2.6499,2.6499,2.6499,2.6499,2.6499,2.6499,2.6499,2.6499,2.6499,2.6499,2.6499,2.6499,2.6499,2.6499,2.6499,2.6499,2.6499,2.6499,2.6499,2.6499,2.6499,2.6499,2.6499,2.6499,2.6499,2.6499,2.6499,2.6499,2.6499,2.6499,2.6499,2.6499,2.6499,2.6499,2.6499,2.6499,2.6499,2.6499,2.6499,2.6499,2.6499,2.6499,2.6499,2.6499,2.6499,2.6499,2.6499,2.6499,2.6499,2.6499,0.9305,1.0177,1.1359,1.3675,1.4782,1.5605,1.6802,1.7386,1.7718,1.7939,1.8315,1.8715,1.9111,1.958,2.0029,2.0429,2.1029,2.1749,2.2627,2.35,2.4479,2.5618,2.5945,2.6188,2.6452,2.6499,2.6499,2.6499,2.6499,2.6499,2.6499,2.6499,2.67,2.7165,2.6738,2.6713,2.7165,2.6725,2.6499,2.6499,2.6499,2.6499,2.6512,2.6964,2.6927,2.6499,2.6499,2.6499,2.6499,2.6499,2.6499,2.6499,2.6499,2.6499,2.6499,2.6499,2.6499,2.6499,2.6499,2.6499,2.6499,2.6499,2.6499,2.6499,2.6499,2.6499,2.6499,2.6499,2.6499,2.6499,2.6499,2.6499,2.6499,2.6499,2.6499,2.6499,2.6499,2.6499,2.6499,2.6499,2.6499,2.6499,2.6499,2.6499,2.6499,2.6499,2.6499,2.6499,2.6499,2.6499,2.6499,2.6499,2.6499,2.6499,2.6499,2.6499,2.6499,2.6499,2.6499,2.6499,2.6499,2.6499,2.6499,2.6499,2.6499,2.6499,2.6499,2.6499,2.6499,2.6499,2.6499,2.6499,0.9024,1.038,1.1923,1.3423,1.414,1.484,1.6342,1.6866,1.7206,0.0,1.8315,1.8617,1.8676,1.9338,1.9932,1.999,2.0677,2.1454,2.2038,2.2857,2.3838,2.4981,2.5453,2.5898,2.6465,2.6499,2.6499,2.6499,2.6499,2.6499,2.6499,2.6499,2.6524,2.66,2.6537,2.6524,2.66,2.6524,2.6499,2.6499,2.6499,2.6499,2.6499,2.6562,2.6562,2.6499,2.6499,2.6499,2.6499,2.6499,2.6499,2.6499,2.6499,2.6499,2.6499,2.6499,2.6499,2.6499,2.6499,2.6499,2.6499,2.6499,2.6499,2.6499,2.6499,2.6499,2.6499,2.6499,2.6499,2.6499,2.6499,2.6499,2.6499,2.6499,2.6499,2.6499,2.6499,2.6499,2.6499,2.6499,2.6499,2.6499,2.6499,2.6499,2.6499,2.6499,2.6499,2.6499,2.6499,2.6499,2.6499,2.6499,2.6499,2.6499,2.6499,2.6499,2.6499,2.6499,2.6499,2.6499,2.6499,2.6499,2.6499,2.6499,2.6499,2.6499,2.6499,2.6499,2.6499,2.6499,2.6499,2.6499,0.9158,1.0383,1.1526,1.2468,1.3266,1.4204,1.5521,1.6184,1.6846,1.7803,1.812,1.8325,1.8559,1.8909,1.9319,1.9834,2.0305,2.0893,2.1631,2.2429,2.3398,2.4528,2.5123,2.5711,2.6418,2.6499,2.6499,2.6499,2.6499,2.6499,2.6499,2.6499,2.6499,2.6499,2.6499,2.6499,2.6499,2.6499,2.6499,2.6499,2.6499,2.6499,2.6499,2.6499,2.6499,2.6499,2.6499,2.6499,2.6499,2.6499,2.6499,2.6499,2.6499,2.6499,2.6499,2.6499,2.6499,2.6499,2.6499,2.6499,2.6499,2.6499,2.6499,2.6499,2.6499,2.6499,2.6499,2.6499,2.6499,2.6499,2.6499,2.6499,2.6499,2.6499,2.6499,2.6499,2.6499,2.6499,2.6499,2.6499,2.6499,2.6499,2.6499,2.6499,2.6499,2.6499,2.6499,2.6499,2.6499,2.6499,2.6499,2.6499,2.6499,2.6499,2.6499,2.6499,2.6499,2.6499,2.6499,2.6499,2.6499,2.6499,2.6499,2.6499,2.6499,2.6499,2.6499,2.6499,2.6499,2.6499,2.6499,2.6663,0.9232,1.016,1.0915,1.1538,1.2382,1.3403,1.4646,0.0,1.6399,0.0,1.7906,1.8027,1.8383,1.8529,1.8812,1.9446,1.9878,2.0359,2.1012,2.1876,2.2905,2.4047,2.4755,2.5488,2.6418,2.6499,2.6499,2.6499,2.6499,2.6499,2.6499,2.6499,2.6499,2.6499,2.6499,2.6499,2.6499,2.6499,2.6499,2.6499,2.6499,2.6499,2.6499,2.6499,2.6499,2.6499,2.6499,2.6499,2.6499,2.6499,2.6499,2.6499,2.6499,2.6499,2.6499,2.6499,2.6499,2.6499,2.6499,2.6499,2.6499,2.6499,2.6499,2.6499,2.6499,2.6499,2.6499,2.6499,2.6499,2.6499,2.6499,2.6499,2.6499,2.6499,2.6499,2.6499,2.6499,2.6499,2.6499,2.6499,2.6499,2.6499,2.6499,2.6499,2.6499,2.6499,2.6499,2.6499,2.6499,2.6499,2.6713,2.7278,2.7341,2.7341,2.7341,2.6813,2.6499,2.6499,2.6499,2.6499,2.6499,2.6499,2.6499,2.6499,2.6499,2.6499,2.6499,2.6637,2.67,2.6713,2.6851,2.714,0.9064,0.9677,1.0301,1.0889,1.1478,1.2303,0.0,0.0,1.577,1.7248,1.7623,1.7794,1.8003,1.8334,1.8617,1.8656,1.9385,1.9922,1.9989,2.1075,2.2279,2.3415,2.4264,2.5182,2.6383,2.6499,2.6499,2.6499,2.6499,2.6499,2.6499,2.6499,2.6499,2.6499,2.6499,2.6499,2.6499,2.6499,2.6499,2.6499,2.6499,2.6499,2.6499,2.6499,2.6499,2.6499,2.6499,2.6499,2.6499,2.6499,2.6499,2.6499,2.6499,2.6499,2.6499,2.6499,2.6499,2.6499,2.6499,2.6499,2.6499,2.6499,2.6499,2.6499,2.6499,2.6499,2.6499,2.6499,2.6499,2.6499,2.6499,2.6499,2.6499,2.6499,2.6499,2.6499,2.6499,2.6499,2.6499,2.6499,2.6499,2.6499,2.6499,2.6499,2.6499,2.6499,2.6499,2.6499,2.6499,2.6499,2.7304,2.939,2.9616,2.9616,2.9616,2.7718,2.6499,2.6499,2.6499,2.6499,2.6499,2.6499,2.6499,2.6499,2.6499,2.6499,2.6499,2.7014,2.7278,2.7291,2.777,2.8034,0.8265,0.8798,0.9419,1.0007,1.0746,1.1653,1.279,1.3944,1.5129,1.6348,1.7005,1.751,1.7906,1.8135,1.8286,1.8559,1.8861,1.9251,1.9834,2.0672,2.169,2.3025,2.3877,2.4838,2.6002,2.6223,2.6374,2.6499,2.6499,2.6499,2.6499,2.6499,2.6499,2.6499,2.6499,2.6499,2.6499,2.6499,2.6499,2.6499,2.6499,2.6499,2.6499,2.6499,2.6499,2.6499,2.6499,2.6499,2.6499,2.6499,2.6499,2.6499,2.6499,2.6499,2.6499,2.6499,2.6499,2.6499,2.6499,2.6499,2.6499,2.6499,2.6499,2.6499,2.6499,2.6499,2.6499,2.6499,2.6499,2.6499,2.6499,2.6499,2.6499,2.6499,2.6499,2.6499,2.6499,2.6499,2.6499,2.6499,2.6499,2.6499,2.6499,2.6499,2.6499,2.6499,2.7718,2.8636,2.8636,2.8636,2.8913,2.9716,2.9792,2.9792,2.9792,2.9063,2.8636,2.8636,2.8636,2.7995,2.6549,2.6499,2.6499,2.6499,2.6952,2.714,2.7014,2.7216,2.7469,2.7821,2.8009,2.8298,0.793,0.8307,0.8786,0.9248,0.9915,1.0719,1.1707,1.2897,1.4239,1.5624,1.6477,1.7145,1.7876,1.8008,1.8105,1.8344,1.851,1.8802,1.9368,2.0229,2.118,2.2342,2.3312,2.4335,2.55,2.5828,2.6154,2.6452,2.6499,0.0,2.6499,2.6499,2.6499,2.6499,2.6499,2.6499,2.6499,2.6499,2.6499,2.6499,2.6499,2.6499,2.6499,2.6499,2.6499,2.6499,2.6499,2.6499,2.6499,2.6499,2.6499,2.6499,2.6499,2.6499,2.6499,2.6499,2.6499,2.6499,2.6499,2.6499,2.6499,2.6499,2.6499,2.6499,2.6499,2.6499,2.6499,2.6499,2.6499,2.6499,2.6499,2.6763,2.6952,2.6587,2.6499,2.6499,2.6499,2.6499,2.6499,2.6499,2.6499,2.6738,2.7492,2.7618,2.7618,2.7618,2.8837,2.9792,2.9792,2.9792,2.9792,2.9792,2.9792,2.9792,2.9792,2.9792,2.9792,2.9792,2.9792,2.9126,2.7681,2.7618,2.7618,2.7618,2.7857,2.7907,2.7758,2.7808,2.8021,2.8386,2.8586,2.8863,0.0,0.0,0.0,0.8644,0.0,0.0,1.0653,0.0,1.3033,1.5115,1.599,1.6725,1.7794,1.8008,1.8008,1.8008,1.8315,1.8588,1.8617,1.9684,2.0703,2.134,2.2548,2.3765,2.4898,2.5382,2.5863,2.6465,2.6499,2.6499,2.6499,2.6499,2.6499,2.6499,2.6499,2.6499,2.6499,2.6499,2.6499,2.6499,2.6499,2.6499,2.6499,2.6499,2.6499,2.6499,2.6499,2.6499,2.6499,2.6499,2.6499,2.6499,2.6499,2.6499,2.6499,2.6499,2.6499,2.6499,2.6499,2.6499,2.6499,2.6499,2.6499,2.6499,2.6499,2.6499,2.6499,2.6499,2.6512,2.6524,2.6537,2.7341,2.7846,2.6801,2.6537,2.6524,2.6499,2.6499,2.6499,2.6499,2.6549,2.7278,2.9415,2.9792,2.9792,2.9792,2.9792,2.9792,2.9792,2.9792,2.9792,2.9792,2.9792,2.9792,2.9792,2.9792,2.9792,2.9792,2.9792,2.9792,2.9792,2.9792,2.9792,2.9792,2.9101,2.8725,2.8725,2.8863,2.89,2.8938,2.9528,2.9792,0.8542,0.0,0.0,0.0,0.0,0.0,0.0,0.0,1.2088,1.3924,1.5175,1.6389,1.776,1.8008,1.8008,1.8008,1.8105,1.8398,1.9023,1.966,2.0516,2.178,2.2877,2.3911,2.4909,2.55,2.6002,0.0,2.6499,2.6499,2.6499,2.6499,2.6499,2.6499,2.6499,2.6499,2.6499,2.6499,2.6499,2.6499,2.6499,2.6499,2.6499,2.6499,2.6499,2.6499,2.6499,2.6499,2.6499,2.6499,2.6499,2.6499,2.6499,2.6499,2.6499,2.6499,2.6499,2.6499,2.6499,2.6499,2.6499,2.6499,2.6499,2.6499,2.6499,2.6499,2.6499,2.6499,2.6876,2.7354,2.7582,2.8084,2.8386,2.7795,2.748,2.714,2.6612,2.6499,2.6499,2.6499,2.7806,2.9063,2.9679,2.9792,2.9792,2.9792,2.9792,2.9792,2.9792,2.9792,2.9792,2.9792,2.9792,2.9792,2.9792,2.9792,2.9792,2.9792,2.9792,2.9792,2.9792,2.9792,2.9792,2.9792,2.9591,2.949,2.949,2.9076,2.9101,2.9566,2.9716,2.9792,0.9482,0.9313,0.9065,0.8749,0.0,0.0,0.8892,0.9926,1.1417,0.0,1.4526,1.5707,1.7199,1.7447,1.7447,1.7447,1.7627,1.8047,1.8896,1.968,2.0567,2.1696,2.2796,2.3875,2.4909,2.5465,2.5968,2.6452,2.6499,2.6499,2.6499,2.6499,2.6499,2.6499,2.6499,2.6499,2.6499,2.6499,2.6499,2.6499,2.6499,2.6499,2.6499,2.6499,2.6499,2.6499,2.6499,2.6499,2.6499,2.6499,2.6499,2.6499,2.6499,2.6499,2.6499,2.6499,2.6499,2.6499,2.6499,2.6499,2.6499,2.6499,2.6499,2.6499,2.6499,2.6499,2.6499,2.6499,2.7467,2.8573,2.875,2.8976,2.9101,2.8863,2.8649,2.841,2.7982,2.7894,2.7894,2.7894,2.89,2.9792,2.9792,2.9792,2.9792,2.9792,2.9792,2.9792,2.9792,2.9792,2.9792,2.9792,2.9792,2.9792,2.9792,2.9792,2.9792,2.9792,2.9792,2.9792,2.9792,2.9792,2.9792,2.9792,2.9792,2.9792,2.9792,2.9453,2.9465,2.9792,2.9792,2.9792,1.0863,1.0678,1.0315,0.9624,0.9347,0.0,0.9191,0.979,1.0952,0.0,1.3971,1.4827,1.6301,1.6551,1.6551,1.6551,1.6992,1.7617,1.8481,1.9654,2.0673,2.1392,2.257,2.3765,2.4898,2.5382,2.5851,2.6452,2.6499,2.6499,2.6499,2.6499,2.6499,2.6499,2.6499,2.6499,2.6499,2.6499,2.6499,2.6499,2.6499,2.6499,2.6499,2.6499,2.6499,2.6499,2.6499,2.6499,2.6499,2.6499,2.6499,2.6499,2.6499,2.6499,2.6499,2.6499,2.6499,2.6499,2.6499,2.6499,2.6499,2.6499,2.6499,2.6499,2.6499,2.6499,2.6512,2.6562,2.802,2.9541,2.9641,2.9679,2.9691,2.9779,2.9792,2.9792,2.9792,2.9792,2.9792,2.9792,2.9792,2.9792,2.9792,2.9792,2.9792,2.9792,2.9792,2.9792,2.9792,2.9792,2.9792,2.9792,2.9792,2.9792,2.9792,2.9792,2.9792,2.9792,2.9792,2.9792,2.9792,2.9792,2.9792,2.9792,2.9792,2.9792,2.9792,2.9792,2.9792,2.9792,2.9792,2.9792,1.245,1.2025,1.15,1.1076,1.0329,0.0,0.9613,0.9844,1.059,0.0,1.3195,1.4035,1.539,1.5634,1.5634,1.5634,1.6307,1.7243,1.8432,1.9431,2.0496,2.1795,2.2909,2.3911,2.4898,2.55,2.6002,2.6465,2.6499,2.6499,2.6499,2.6499,2.6499,2.6499,2.6499,2.6499,2.6499,2.6499,2.6499,2.6499,2.6499,2.6499,2.6499,2.6499,2.6499,2.6499,2.6499,2.6499,2.6499,2.6499,2.6499,2.6499,2.6499,2.6499,2.6499,2.6499,2.6499,2.6499,2.6499,2.6499,2.6499,2.6499,2.6499,2.6499,2.6499,2.6499,2.6587,2.7027,2.7431,2.7946,2.8712,2.8913,2.9063,2.9654,2.9792,2.9792,2.9792,2.9792,2.9792,2.9792,2.9792,2.9792,2.9792,2.9792,2.9792,2.9792,2.9792,2.9792,2.9792,2.9792,2.9792,2.9792,2.9792,2.9792,2.9792,2.9792,2.9792,2.9792,2.9792,2.9792,2.9792,2.9792,2.9792,2.9792,2.9792,2.9792,2.9792,2.9792,2.9792,2.9792,2.9792,2.9792,1.3506,1.3059,1.2502,1.2018,0.0,0.0,0.0,1.058,1.1119,1.2426,1.3038,1.3641,1.4575,1.4747,1.4747,1.4747,1.5478,1.6377,1.7236,1.866,2.0053,2.1314,2.243,2.3513,2.4553,2.5331,2.5968,2.6452,2.6499,2.6499,2.6499,2.6499,2.6499,2.6499,2.6499,2.6499,2.6499,2.6499,2.6499,2.6499,2.6499,2.6499,2.6499,2.6499,2.6499,2.6499,2.6499,2.6499,2.6499,2.6499,2.6499,2.6499,2.6499,2.6499,2.6499,2.6499,2.6499,2.6499,2.6499,2.6499,2.6499,2.6499,2.6499,2.6499,2.6499,2.6499,2.6549,2.6839,2.7102,2.7442,2.802,2.8687,2.934,2.9704,2.9792,2.9792,2.9792,2.9792,2.9792,2.9792,2.9792,2.9792,2.9792,2.9792,2.9792,2.9792,2.9792,2.9792,2.9792,2.9792,2.9792,2.9792,2.9792,2.9792,2.9792,2.9792,2.9792,2.9792,2.9792,2.9792,2.9792,2.9792,2.9792,2.9792,2.9792,2.9792,2.9792,2.9792,2.9792,2.9792,2.9792,2.9792,1.4348,1.3992,1.3462,1.2877,0.0,1.1695,0.0,0.0,0.0,1.2588,1.295,0.0,0.0,0.0,0.0,0.0,0.0,0.0,0.0,1.7352,0.0,2.0393,2.1547,2.276,2.4091,2.5052,2.5758,2.6151,2.6273,2.6336,2.6336,2.6436,2.6499,2.6499,2.6499,2.6499,2.6499,2.6499,2.6499,2.6499,2.6499,2.6499,2.6499,2.6499,2.6499,2.6499,2.6499,2.6499,2.6499,2.6499,2.6499,2.6499,2.6499,2.6499,2.6499,2.6499,2.6499,2.6499,2.6499,2.6499,2.6499,2.6499,2.6499,2.6499,2.6499,2.6499,2.6499,2.6499,2.6813,2.719,2.7341,2.8272,2.9264,2.9691,2.9792,2.9792,2.9792,2.9792,2.9792,2.9792,2.9792,2.9792,2.9792,2.9792,2.9792,2.9792,2.9792,2.9792,2.9792,2.9792,2.9792,2.9792,2.9792,2.9792,2.9792,2.9792,2.9792,2.9792,2.9792,2.9792,2.9792,2.9792,2.9792,2.9792,2.9792,2.9792,2.9792,2.9792,2.9792,2.9792,2.9792,2.9792,0.0,0.0,0.0,0.0,1.3313,0.0,0.0,0.0,1.1723,1.2173,0.0,0.0,0.0,0.0,0.0,0.0,0.0,0.0,1.427,1.5204,1.6815,1.9435,2.0413,2.1697,2.3688,2.4896,2.5432,2.5013,2.5435,2.5686,2.5686,2.6223,2.6499,2.6499,2.6499,2.6499,2.6499,2.6499,2.6499,2.6499,2.6499,2.6499,2.6499,2.6499,2.6499,2.6499,2.6499,2.6499,2.6499,2.6499,2.6499,2.6499,2.6499,2.6499,2.6499,2.6499,2.6499,2.6499,2.6499,2.6499,2.6499,2.6499,2.6499,2.6499,2.6499,2.6499,2.6499,2.6499,2.6537,2.66,2.6612,2.6751,2.7366,2.9315,2.9792,2.9792,2.9792,2.9792,2.9792,2.9792,2.9792,2.9792,2.9792,2.9792,2.9792,2.9792,2.9792,2.9792,2.9792,2.9792,2.9792,2.9792,2.9792,2.9792,2.9792,2.9792,2.9792,2.9792,2.9792,2.9792,2.9792,2.9792,2.9792,2.9792,2.9792,2.9792,2.9792,2.9792,2.9792,2.9792,2.9792,2.9792,0.0,0.0,0.0,0.0,0.0,0.0,1.2705,0.0,1.2475,0.0,0.0,0.0,0.0,0.0,0.0,0.0,1.3389,0.0,0.0,0.0,1.537,0.0,0.0,0.0,2.2791,2.3704,2.4217,2.4343,2.4544,2.4933,2.5561,2.6185,2.6499,2.6499,2.6499,2.6499,2.6499,2.6499,2.6499,2.6499,2.6499,2.6499,2.6499,2.6499,2.6499,2.6499,2.6499,2.6499,2.6499,2.6499,2.6499,2.6499,2.6499,2.6499,2.6499,2.6499,2.6499,2.6499,2.6499,2.6499,2.6499,2.6499,2.6499,2.6499,2.6499,2.6499,2.6499,2.6499,2.6499,2.6499,2.6499,2.6499,2.6725,2.7668,2.7894,2.7894,2.7894,2.8875,2.9792,2.9792,2.9792,2.9792,2.9792,2.9792,2.9792,2.9792,2.9792,2.9792,2.9792,2.9792,2.9792,2.9792,2.9792,2.9792,2.9792,2.9792,2.9792,2.9792,2.9792,2.9792,2.9792,2.9792,2.9792,2.9792,2.9792,2.9792,2.9792,2.9792,2.9792,2.9792,2.9792,2.9792,1.6697,0.0,0.0,0.0,0.0,0.0,0.0,0.0,0.0,0.0,0.0,0.0,0.0,0.0,0.0,0.0,0.0,1.3467,0.0,1.3665,0.0,0.0,0.0,0.0,0.0,2.2457,2.313,2.3453,2.3647,2.4243,2.5322,2.5946,2.6336,2.6487,2.6499,2.6499,2.6499,2.6499,2.6499,2.6499,2.6499,2.6499,2.6499,2.6499,2.6499,2.6499,2.6499,2.6499,2.6499,2.6499,2.6499,2.6499,2.6499,2.6499,2.6499,2.6499,2.6499,2.6499,2.6499,2.6499,2.6499,2.6499,2.6499,2.6499,2.6499,2.6499,2.6499,2.6499,2.6499,2.6499,2.6499,2.6499,2.6499,2.6499,2.6499,2.6499,2.6499,2.8259,2.9792,2.9792,2.9792,2.9792,2.9792,2.9792,2.9792,2.9792,2.9792,2.9792,2.9792,2.9792,2.9792,2.9792,2.9792,2.9792,2.9792,2.9792,2.9792,2.9792,2.9792,2.9792,2.9792,2.9792,2.9792,2.9792,2.9792,2.9792,2.9792,2.9792,2.9792,2.9792,2.9792,2.9792,0.0,0.0,0.0,1.5019,0.0,0.0,0.0,0.0,1.3486,0.0,0.0,0.0,0.0,0.0,0.0,0.0,0.0,0.0,0.0,0.0,0.0,0.0,0.0,0.0,0.0,2.1542,2.2559,0.0,2.2742,2.3634,2.475,2.5335,2.5921,2.6474,2.6499,2.6499,2.6499,2.6499,2.6499,2.6499,2.6499,2.6499,2.6499,2.6499,2.6499,2.6499,2.6499,2.6499,2.6499,2.6499,2.6499,2.6499,2.6499,2.6499,2.6499,2.6499,2.6499,2.6499,2.6499,2.6499,2.6499,2.6499,2.6499,2.6499,2.6499,2.6499,2.6499,2.6499,2.6499,2.6499,2.6499,2.6499,2.6499,2.6499,2.6499,2.6499,2.6499,2.8259,2.9792,2.9792,2.9792,2.9792,2.9792,2.9792,2.9792,2.9792,2.9792,2.9792,2.9792,2.9792,2.9792,2.9792,2.9792,2.9792,2.9792,2.9792,2.9792,2.9792,2.9792,2.9792,2.9792,2.9792,2.9792,2.9792,2.9792,2.9792,2.9792,2.9792,2.9792,2.9792,2.9792,2.9792,0.0,0.0,1.676,1.588,0.0,0.0,0.0,0.0,0.0,0.0,0.0,0.0,0.0,0.0,0.0,0.0,0.0,0.0,0.0,0.0,0.0,0.0,0.0,0.0,0.0,0.0,0.0,2.1194,2.1732,0.0,2.4192,2.5121,2.5686,2.5921,2.6298,2.6499,2.6499,2.6499,2.6499,2.6499,2.6499,2.6499,2.6499,2.6499,2.6499,2.6499,2.6499,2.6499,2.6499,2.6499,2.6499,2.6499,2.6499,2.6499,2.6499,2.6499,2.6499,2.6499,2.6499,2.6499,2.6499,2.6499,2.6499,2.6499,2.6499,2.6499,2.6499,2.6499,2.6499,2.6499,2.6499,2.6499,2.6499,2.6499,2.6499,2.6499,2.6499,2.8259,2.9792,2.9792,2.9792,2.9792,2.9792,2.9792,2.9792,2.9792,2.9792,2.9792,2.9792,2.9792,2.9792,2.9792,2.9792,2.9792,2.9792,2.9792,2.9792,2.9792,2.9792,2.9792,2.9792,2.9792,2.9792,2.9792,2.9792,2.9792,2.9792,2.9792,2.9792,2.9792,2.9792,2.9792,1.8008,1.7705,0.0,1.6515,1.5967,0.0,1.4561,0.0,1.4971,0.0,0.0,0.0,0.0,0.0,0.0,0.0,0.0,0.0,0.0,1.3008,0.0,0.0,0.0,0.0,0.0,0.0,1.9122,2.0342,2.093,0.0,0.0,2.4544,2.5209,2.5586,2.6197,2.6499,2.6499,2.6499,2.6499,2.6499,2.6499,2.6499,2.6499,2.6499,2.6499,2.6499,2.6499,2.6499,2.6499,2.6499,2.6499,2.6499,2.6499,2.6499,2.6499,2.6499,2.6499,2.6499,2.6499,2.6499,2.6499,2.6499,2.6499,2.6499,2.6499,2.6499,2.6499,2.6499,2.6499,2.6499,2.6499,2.6499,2.66,2.6989,2.7077,2.719,2.7593,2.8775,2.9792,2.9792,2.9792,2.9792,2.9792,2.9792,2.9792,2.9792,2.9792,2.9792,2.9792,2.9792,2.9792,2.9792,2.9792,2.9792,2.9792,2.9792,2.9792,2.9792,2.9792,2.9792,2.9792,2.9792,2.9792,2.9792,2.9792,2.9792,2.9792,2.9792,2.9792,2.9792,2.9792,2.9792]}]]